     2              OBSERVATION DATA    GPS                 RINEX VERSION / TYPE
teqc 2000Feb29 20030805 02:55:10UTC                         PGM / RUN BY / DATE
                                                            COMMENT
L2: 1 -> 1; 150 -> 5; 250 -> 9                              COMMENT
L2: 1 -> 1; 150 -> 5; 250 -> 9                              COMMENT
L2: 1 -> 1; 150 -> 5; 250 -> 9                              COMMENT
L2: 1 -> 1; 150 -> 5; 250 -> 9                              COMMENT
L2: 1 -> 1; 150 -> 5; 250 -> 9                              COMMENT
Original Marker Name: FARF                                  COMMENT
Campaign Name: USC/SCEC 2003                                COMMENT
4-Character Station Name: FARF                              COMMENT
6-Character Antenna Code: DMRCHT                            COMMENT
Vertical Measurement Point: BCR                             COMMENT
Vertical Offset to Rinex Ref. Point: 0.0348                 COMMENT
Radial Measurement Point: ECF                               COMMENT
Radial Offset to Rinex Ref. Point: 0.1897                   COMMENT
Antenna Height from Field Measurement: 0.5450 m             COMMENT
Additional Antenna Identification Info.:                    COMMENT
Turborogue and Ashtech Choke Ring                           COMMENT
Original XYZ: -2661893.8209 -4519861.4273 3616769.9876      COMMENT
New XYZ position is based on association with SCEC monument COMMENT
E1E9E6X2+0011. Position of that monument is believed to be  COMMENT
valid to within 1 m horizontally; vertical accuracy         COMMENT
should be no worse than 3-times this value.                 COMMENT
                                                            COMMENT
Revised Rinex header created by UCSD GPS archive for        COMMENT
GSAC on 09-Nov-2004 (2004:314) 22:44:29 GMT                 COMMENT
For assistance contact dagnew@ucsd.edu                      COMMENT
or anderson@python.ucsd.edu                                 COMMENT
                                                            COMMENT
FARFIELD 1970                                               MARKER NAME
KEA UNIV SOUTHERN CALIFORNIA                                OBSERVER / AGENCY
174 ASHTECH Z-XII3 CD00                                     REC # / TYPE / VERS
376 DORNE-MARGOL. TYPE T                                    ANT # / TYPE
 -2661885.0000 -4519852.0000  3616765.0000                  APPROX POSITION XYZ
        0.4761        0.0000        0.0000                  ANTENNA: DELTA H/E/N
     1     1     0                                          WAVELENGTH FACT L1/2
     7    C1    L1    L2    P1    P2    S1    S2            # / TYPES OF OBSERV
     0                                                      INTERVAL
  2003     3    20     0     0   30.000000                  TIME OF FIRST OBS
  2003     3    20    23    59    0.000000                  TIME OF LAST OBS
                                                            END OF HEADER
 03  3 20  0  0 30.0000000  0 11G14G16G 3G29G23G 2G 6G17G15G26G18
                  -1695241.27059  -1304135.33143
       205.000          74.000
  23564556.149   -13213242.96749 -10276367.99545  23564556.357    23564563.835
       217.000         158.000
  23572021.977    -7537387.94549  -5852032.03145  23572021.279    23572029.411
       214.000         155.000
  24480685.849    -2149404.21249  -1650299.28345  24480685.684    24480694.787
       211.000         146.000
  20756649.804   -21443941.43049 -16676897.81147  20756649.201    20756655.247
       242.000         211.000
  24695114.932    -6735939.31149  -5005088.53045  24695113.888    24695124.319
       206.000         141.000
  22703805.662   -16424044.08249 -12778558.28946  22703806.582    22703813.615
       225.000         170.000
  20881211.416    -1349155.24749  -1040623.41647  20881210.719    20881217.244
       241.000         207.000
  20746790.192   -26261357.22449 -20431314.57547  20746789.327    20746795.663
       243.000         208.000
  22590969.325   -14155821.57749 -11014282.03846  22590969.287    22590976.862
       223.000         169.000
  20402329.212   -28877858.86449 -22470509.05648  20402328.722    20402333.515
       240.000         213.000
 03  3 20  0  1  0.0000000  0 10G16G 3G29G23G 2G 6G17G15G26G18
  23572723.402   -13170324.14149 -10242924.78945  23572722.344    23572731.128
       217.000         158.000
  23554806.563    -7627854.87249  -5922525.67445  23554806.507    23554813.579
       216.000         155.000
  24496408.791    -2066779.91249  -1585916.75845  24496409.499    24496417.254
       212.000         147.000
  20761743.061   -21417176.05149 -16656041.66247  20761742.495    20761748.595
       242.000         211.000
  24695625.653    -6733255.63849  -5002997.35645  24695624.615    24695635.559
       206.000         140.000
  22722472.527   -16325949.98049 -12702121.41146  22722471.960    22722480.301
       224.000         170.000
  20883671.094    -1336229.41149  -1030551.33247  20883670.276    20883677.009
       241.000         207.000
  20740242.818   -26295763.70549 -20458124.79647  20740242.069    20740248.453
       243.000         208.000
  22604084.012   -14086903.49749 -10960579.65946  22604084.578    22604091.437
       222.000         169.000
  20400628.391   -28886796.51849 -22477473.44648  20400627.789    20400632.603
       240.000         213.000
 03  3 20  0  1 30.0000000  0 11G14G16G 3G29G23G 2G 6G17G15G26G18
                  -1378931.90359  -1044634.75443
       205.000          74.000
  23580965.403   -13127012.49249 -10209175.51345  23580965.767    23580972.552
       216.000         157.000
  23537640.176    -7718064.87549  -5992819.09945  23537639.311    23537647.438
       215.000         156.000
  24512191.590    -1983841.02249  -1521289.11645  24512191.383    24512199.868
       211.000         147.000
  20766895.149   -21390101.63149 -16634944.69747  20766894.578    20766900.438
       242.000         211.000
  24696213.309    -6730167.77049  -5000591.23445  24696212.778    24696222.602
       206.000         141.000
  22741188.102   -16227599.09349 -12625484.44746  22741188.153    22741197.163
       224.000         170.000
  20886172.880    -1323082.27549  -1020306.80647  20886172.254    20886178.577
       240.000         207.000
  20733733.962   -26329967.86749 -20484777.36147  20733733.005    20733739.809
       243.000         208.000
  22617297.828   -14017464.40249 -10906471.29146  22617297.541    22617304.825
       222.000         169.000
  20399003.638   -28895334.59149 -22484126.46948  20399003.154    20399007.936
       241.000         213.000
 03  3 20  0  2  0.0000000  0 11G14G16G 3G29G23G 2G 6G17G15G26G18
                  -1491884.07549  -1132649.63043
       206.000          74.000
  23589281.625   -13083310.43049 -10175121.99745  23589280.751    23589289.773
       215.000         158.000
  23520522.998    -7808015.53849  -6062910.45645  23520522.421    23520531.237
       215.000         156.000
  24528033.770    -1900589.95949  -1456418.19745  24528033.915    24528041.909
       211.000         145.000
  20772105.739   -21362719.77249 -16613608.17047  20772105.121    20772111.211
       242.000         211.000
  24696877.634    -6726676.63049  -4997870.85945  24696876.998    24696886.820
       206.000         141.000
  22759952.227   -16128993.52149 -12548649.04246  22759952.433    22759960.768
       224.000         170.000
  20888716.873    -1309713.50349  -1009889.57747  20888716.143    20888722.830
       241.000         207.000
  20727263.735   -26363968.96349 -20511271.69847  20727263.034    20727269.371
       243.000         208.000
  22630610.294   -13947506.80149 -10851958.90546  22630610.394    22630617.345
       222.000         168.000
  20397454.722   -28903474.14649 -22490468.96248  20397454.156    20397458.977
       240.000         213.000
 03  3 20  0  2 30.0000000  0 11G14G16G 3G29G23G 2G 6G17G15G26G18
                  -1604842.03349  -1220669.22343
       206.000          74.000
  23597671.651   -13039220.57549 -10140766.31645  23597671.462    23597679.460
       215.000         157.000
  23503455.594    -7897704.76549  -6132798.08145  23503454.877    23503463.103
       215.000         157.000
  24543934.911    -1817029.32449  -1391306.05245  24543935.117    24543942.930
       211.000         144.000
  20777374.532   -21335032.10249 -16592033.34547  20777373.883    20777380.069
       242.000         211.000
  24697618.469    -6722783.12449  -4994836.97845  24697617.485    24697627.486
       206.000         142.000
  22778764.362   -16030135.40449 -12471616.81246  22778764.200    22778773.034
       224.000         170.000
  20891303.245    -1296122.08149   -999298.85347  20891302.632    20891309.162
       241.000         207.000
  20720832.336   -26397766.12449 -20537607.11347  20720831.497    20720838.036
       243.000         208.000
  22644021.070   -13877033.09649 -10797044.34246  22644021.580    22644028.905
       223.000         168.000
  20395981.443   -28911216.22749 -22496501.72848  20395980.946    20395985.821
       241.000         213.000
 03  3 20  0  3  0.0000000  0 10G16G 3G29G23G 2G 6G17G15G26G18
  23606134.945   -12994745.27149 -10106110.26045  23606134.123    23606141.835
       214.000         157.000
  23486438.567    -7987129.62149  -6202479.71045  23486438.117    23486446.259
       217.000         158.000
  24559894.416    -1733161.52949  -1325954.54645  24559893.460    24559902.671
       212.000         144.000
  20782701.113   -21307040.45049 -16570221.65347  20782700.566    20782706.652
       242.000         211.000
  24698435.806    -6718488.17849  -4991490.27345  24698434.659    24698445.460
       208.000         141.000
  22797624.163   -15931027.07049 -12394389.64246  22797624.233    22797632.436
       223.000         170.000
  20893932.070    -1282307.38949   -988534.15747  20893931.362    20893937.852
       241.000         207.000
  20714439.891   -26431358.45149 -20563782.93047  20714439.232    20714445.612
       243.000         208.000
  22657529.551   -13806045.76549 -10741729.55446  22657529.659    22657537.085
       223.000         168.000
  20394583.599   -28918561.89749 -22502225.60648  20394582.954    20394587.685
       241.000         214.000
 03  3 20  0  3 30.0000000  0 11G14G16G 3G29G23G 2G 6G17G15G26G18
                  -1830766.20249  -1045213.01743
       204.000          74.000
  23614670.911   -12949888.55049 -10071157.01345  23614670.504    23614677.805
       218.000         157.000
  23469471.974    -8076289.26349  -6271954.67745  23469471.813    23469479.065
       216.000         158.000
  24575911.755    -1648990.21549  -1260366.53745  24575911.730    24575919.801
       211.000         145.000
  20788085.017   -21278747.81949 -16548175.43747  20788084.479    20788090.407
       242.000         211.000
  24699328.994    -6713794.28749  -4987832.72145  24699329.180    24699338.155
       207.000         142.000
  22816530.877   -15831672.00049 -12316970.20046  22816531.544    22816539.069
       224.000         170.000
  20896603.311    -1268269.95149   -977595.89347  20896602.663    20896609.226
       241.000         206.000
  20708086.380   -26464746.44549 -20589799.52247  20708085.551    20708091.782
       243.000         208.000
  22671134.921   -13734548.82149 -10686017.67746  22671135.260    22671141.853
       222.000         168.000
  20393260.785   -28925513.22249 -22507642.20348  20393260.150    20393265.055
       240.000         214.000
 03  3 20  0  4  0.0000000  0 11G14G16G 3G29G23G 2G 6G17G15G26G18
                  -1943727.48049  -1133233.98743
       206.000          74.000
  23623279.189   -12904652.00249 -10035907.81245  23623278.565    23623286.956
       215.000         157.000
  23452556.522    -8165180.29149  -6341220.32345  23452555.783    23452563.875
       214.000         158.000
  24591986.427    -1564517.07749  -1194543.36345  24591986.722    24591994.496
       210.000         144.000
  20793526.005   -21250155.21149 -16525895.46947  20793525.472    20793531.390
       242.000         210.000
  24700298.167    -6708701.62749  -4983864.43545  24700297.390    24700307.185
       208.000         142.000
  22835484.345   -15732071.48649 -12239359.50546  22835484.423    22835493.286
       223.000         169.000
  20899317.205    -1254008.44849   -966483.03147  20899316.654    20899322.946
       241.000         206.000
  20701772.018   -26497928.36749 -20615655.54047  20701771.352    20701777.703
       243.000         208.000
  22684837.040   -13662544.04549 -10629910.07746  22684837.394    22684844.044
       223.000         168.000
  20392013.008   -28932070.27749 -22512751.57248  20392012.533    20392017.079
       241.000         214.000
 03  3 20  0  4 30.0000000  0 11G14G16G 3G29G23G 2G 6G17G15G26G18
                  -2056684.74949   -867830.73343
       209.000          74.000
  23631959.304   -12859038.02649 -10000364.50645  23631958.665    23631966.816
       216.000         157.000
  23435692.537    -8253800.27949  -6410274.77745  23435691.558    23435700.036
       214.000         158.000
  24608118.100    -1479744.70649  -1128487.00945  24608117.805    24608126.887
       210.000         144.000
  20799023.729   -21221264.45849 -16503383.18147  20799023.096    20799029.104
       242.000         210.000
  24701342.999    -6703211.34049  -4979586.29845  24701342.257    24701352.328
       208.000         142.000
  22854483.952   -15632227.94249 -12161559.43846  22854484.460    22854492.504
       223.000         169.000
  20902073.820    -1239522.24049   -955195.06847  20902073.156    20902079.505
       240.000         206.000
  20695497.057   -26530903.43849 -20641350.36747  20695496.276    20695502.624
       243.000         208.000
  22698635.328   -13590033.81049 -10573408.61746  22698635.851    22698642.467
       221.000         168.000
  20390840.054   -28938233.96549 -22517554.41748  20390839.506    20390844.221
       240.000         214.000
 03  3 20  0  5  0.0000000  0 11G14G16G 3G29G23G 2G 6G17G15G26G18
                  -2169634.03449   -955842.91443
       209.000          74.000
  23640710.927   -12813048.21649  -9964528.32345  23640710.687    23640718.171
       214.000         157.000
  23418880.832    -8342145.74349  -6479115.30445  23418880.666    23418888.526
       215.000         158.000
  24624306.473    -1394674.27049  -1062198.39745  24624306.627    24624314.735
       212.000         144.000
  20804578.057   -21192076.11049 -16480639.00247  20804577.381    20804583.516
       242.000         210.000
  24702463.509    -6697323.37449  -4974998.31345  24702463.061    24702472.375
       209.000         142.000
  22873529.625   -15532142.54749 -12083570.91446  22873529.855    22873537.931
       223.000         168.000
  20904873.626    -1224809.08349   -943730.26647  20904873.098    20904879.540
       241.000         206.000
  20689261.786   -26563669.90949 -20666882.65347  20689260.983    20689267.202
       243.000         209.000
  22712529.407   -13517019.62749 -10516514.46746  22712529.583    22712537.209
       223.000         167.000
  20389741.976   -28944004.26049 -22522050.72248  20389741.426    20389746.134
       241.000         214.000
 03  3 20  0  5 30.0000000  0 11G14G16G 3G29G23G 2G 6G17G15G26G18
                  -2282572.68549  -1043846.67643
       208.000          74.000
  23649533.584   -12766684.89149  -9928401.10145  23649532.499    23649541.596
       215.000         156.000
  23402122.006    -8430213.97149  -6547739.80145  23402121.428    23402128.803
       217.000         159.000
  24640551.135    -1309308.18849   -995679.40145  24640550.912    24640560.413
       210.000         142.000
  20810188.736   -21162591.79049 -16457664.19847  20810188.206    20810194.272
       242.000         210.000
  24703659.538    -6691038.58649  -4970101.08445  24703658.753    24703669.940
       209.000         142.000
  22892620.927   -15431817.37149 -12005395.55346  22892620.668    22892628.979
       222.000         168.000
  20907716.726    -1209868.47849   -932088.23447  20907715.999    20907722.628
       241.000         206.000
  20683066.454   -26596226.57749 -20692251.45847  20683065.712    20683071.973
       243.000         209.000
  22726519.012   -13443504.00849 -10459229.59646  22726519.728    22726526.034
       223.000         168.000
  20388718.584   -28949382.09449 -22526241.21448  20388718.174    20388722.826
       240.000         213.000
 03  3 20  0  6  0.0000000  0 11G14G16G 3G29G23G 2G 6G17G15G26G18
                  -2395495.35849  -1131838.04744                  24370306.426
       209.000         126.000
  23658427.345   -12719947.92749  -9891982.74545  23658427.372    23658436.138
       215.000         155.000
  23385416.929    -8517999.40049  -6616143.93745  23385416.453    23385424.132
       217.000         160.000
  24656852.032    -1223646.14649   -928929.76045  24656853.446    24656860.521
       209.000         140.000
  20815855.905   -21132810.61249 -16434458.07847  20815855.513    20815861.458
       242.000         210.000
  24704931.268    -6684355.52449  -4964893.52145  24704929.903    24704941.170
       208.000         143.000
  22911757.990   -15331251.90449 -11927032.94746  22911758.310    22911766.230
       221.000         167.000
  20910603.762    -1194697.08049   -920266.36547  20910603.241    20910609.639
       241.000         206.000
  20676911.635   -26628570.19549 -20717454.25047  20676910.733    20676917.182
       244.000         209.000
  22740604.018   -13369486.76449 -10401553.84046  22740603.528    22740611.003
       222.000         167.000
  20387770.295   -28954365.44949 -22530124.32248  20387769.721    20387774.514
       240.000         213.000
 03  3 20  0  6 30.0000000  0 11G14G16G 3G29G23G 2G 6G17G15G26G18
  24348811.048    -2508406.80049  -1219820.64745  24348811.658    24348820.099
       208.000         136.000
  23667390.326   -12672847.26749  -9855280.99045  23667389.307    23667397.736
       215.000         154.000
  23368764.705    -8605507.28749  -6684331.80545  23368764.031    23368772.457
       218.000         161.000
  24673207.501    -1137698.06149   -861957.24045  24673208.443    24673216.355
       208.000         138.000
  20821577.846   -21102741.64549 -16411027.70447  20821577.232    20821583.296
       242.000         210.000
  24706277.226    -6677282.71749  -4959382.26145  24706276.870    24706286.546
       210.000         142.000
  22930938.895   -15230455.84649 -11848490.67246  22930938.911    22930947.423
       221.000         167.000
  20913533.352    -1179302.08849   -908270.26247  20913532.753    20913539.214
       241.000         206.000
  20670796.175   -26660707.10249 -20742495.96847  20670795.476    20670801.784
       244.000         209.000
  22754782.608   -13294977.78549 -10343494.92346  22754783.201    22754790.004
       221.000         167.000
  20386895.404   -28958962.91149 -22533706.73448  20386894.806    20386899.590
       240.000         213.000
 03  3 20  0  7  0.0000000  0 11G14G16G 3G29G23G 2G 6G17G15G26G18
  24327327.631    -2621301.51549  -1307790.21745  24327325.953    24327337.108
       210.000         139.000
  23676422.659   -12625382.36449  -9818295.40245  23676422.354    23676430.562
       215.000         155.000
  23352166.352    -8692732.18349  -6752299.15446  23352166.292    23352173.699
       219.000         163.000
  24689617.482    -1051463.10649   -794761.22245  24689617.733    24689626.663
       209.000         139.000
  20827354.768   -21072383.55049 -16387372.03747  20827354.233    20827360.071
       242.000         210.000
  24707697.673    -6669818.22949  -4953565.79745  24707696.867    24707708.430
       208.000         143.000
  22950163.839   -15129428.48349 -11769768.14646  22950163.223    22950172.316
       222.000         166.000
  20916506.296    -1163679.02749   -896096.44447  20916505.704    20916512.308
       241.000         206.000
  20664720.808   -26692633.26349 -20767373.46747  20664720.122    20664726.451
       243.000         209.000
  22769054.889   -13219976.71749 -10285052.55546  22769054.911    22769062.590
       222.000         167.000
  20386094.314   -28963172.43449 -22536986.85648  20386093.731    20386098.634
       240.000         213.000
 03  3 20  0  7 30.0000000  0 11G14G16G 3G29G23G 2G 6G17G15G26G18
  24305848.411    -2734174.59449  -1395742.94745  24305847.862    24305856.015
       211.000         139.000
  23685524.176   -12577553.94249  -9781026.55545  23685523.513    23685531.223
       214.000         154.000
  23335622.684    -8779669.59449  -6820042.49046  23335622.395    23335629.476
       218.000         163.000
  24706081.913     -964941.97849   -727342.20245  24706082.545    24706091.129
       210.000         140.000
  20833186.774   -21041736.22449 -16363490.99647  20833186.065    20833192.236
       242.000         210.000
  24709192.790    -6661961.22349  -4947443.48145  24709193.162    24709202.288
       209.000         142.000
  22969432.726   -15028170.00449 -11690865.53746  22969432.863    22969441.414
       221.000         166.000
  20919523.220    -1147825.12349   -883742.74647  20919522.636    20919529.050
       241.000         206.000
  20658686.107   -26724345.75049 -20792084.46747  20658685.330    20658691.571
       243.000         209.000
  22783420.690   -13144484.14549 -10226227.20046  22783420.576    22783428.364
       221.000         167.000
  20385367.295   -28966992.88549 -22539963.80848  20385366.764    20385371.423
       240.000         213.000
 03  3 20  0  8  0.0000000  0 11G14G16G 3G29G23G 2G 6G17G15G26G18
  24284373.758    -2847023.92649  -1483677.22345  24284372.439    24284382.296
       212.000         139.000
  23694694.318   -12529365.07349  -9743476.84945  23694694.255    23694701.002
       214.000         153.000
  23319134.031    -8866317.44849  -6887560.20046  23319133.030    23319141.077
       218.000         163.000
  24722600.282     -878137.74949   -659702.57545  24722599.820    24722609.174
       208.000         140.000
  20839073.391   -21010801.80849 -16339386.25247  20839072.700    20839078.835
       242.000         210.000
  24710762.315    -6653713.36849  -4941016.60445  24710762.425    24710771.675
       207.000         142.000
  22988745.086   -14926683.25049 -11611785.04546  22988745.283    22988753.449
       221.000         166.000
  20922584.030    -1131740.41749   -871209.20647  20922583.337    20922589.989
       241.000         206.000
  20652692.128   -26755844.25849 -20816628.73347  20652691.429    20652697.582
       243.000         209.000
  22797879.346   -13068503.38249 -10167021.44946  22797879.237    22797886.141
       221.000         165.000
  20384713.948   -28970426.16549 -22542639.07248  20384713.516    20384718.178
       240.000         214.000
 03  3 20  0  8 30.0000000  0 11G14G16G 3G29G23G 2G 6G17G15G26G18
  24262904.002    -2959847.37149  -1571591.36945  24262903.791    24262912.565
       210.000         138.000
  23703932.324   -12480818.87249  -9705648.70845  23703931.700    23703939.963
       213.000         153.000
  23302700.902    -8952674.01449  -6954850.93546  23302700.596    23302708.188
       219.000         164.000
  24739171.993     -791053.14749   -591844.48445  24739172.557    24739180.579
       208.000         139.000
  20845014.185   -20979582.66549 -16315059.64447  20845013.567    20845019.633
       242.000         210.000
  24712405.958    -6645076.46949  -4934286.56945  24712406.007    24712415.385
       207.000         141.000
  23008100.366   -14824970.97349 -11532528.83146  23008099.854    23008108.256
       220.000         166.000
  20925688.829    -1115424.58349   -858495.56547  20925688.108    20925694.805
       241.000         206.000
  20646738.891   -26787128.40049 -20841005.96147  20646738.091    20646744.381
       243.000         209.000
  22812430.311   -12992037.55549 -10107437.72546  22812430.413    22812437.026
       221.000         165.000
  20384134.061   -28973473.46549 -22545013.57248  20384133.418    20384138.303
       240.000         214.000
 03  3 20  0  9  0.0000000  0 11G14G16G 3G29G23G 2G 6G17G15G26G18
  24241439.685    -3072641.98849  -1659483.04345  24241438.232    24241448.620
       209.000         139.000
  23713237.877   -12431917.59449  -9667543.89145  23713237.557    23713245.791
       214.000         153.000
  23286323.756    -9038736.19449  -7021912.28146  23286322.334    23286330.629
       219.000         164.000
  24755796.498     -703690.44149   -523769.66545  24755796.169    24755804.590
       209.000         137.000
  20851008.901   -20948080.22549 -16290512.28247  20851008.367    20851014.529
       242.000         210.000
  24714123.386    -6636051.21749  -4927253.91445  24714122.229    24714133.003
       206.000         141.000
  23027498.185   -14723034.98349 -11453098.30046  23027498.195    23027505.830
       221.000         166.000
  20928837.773    -1098876.81249   -845601.19847  20928837.367    20928843.836
       241.000         206.000
  20640826.742   -26818196.88949 -20865215.14347  20640825.974    20640832.434
       243.000         209.000
  22827073.197   -12915088.84349 -10047477.72446  22827073.566    22827081.037
       221.000         165.000
  20383627.437   -28976135.59449 -22547087.93448  20383626.769    20383631.769
       241.000         214.000
 03  3 20  0  9 30.0000000  0 11G14G16G 3G29G23G 2G 6G17G15G26G18
  24219981.164    -3185405.35849  -1747350.35245  24219980.077    24219989.948
       210.000         141.000
  23722610.518   -12382663.98849  -9629164.52645  23722610.568    23722618.664
       214.000         152.000
  23270003.072    -9124501.62249  -7088742.38846  23270002.652    23270009.837
       219.000         164.000
  24772473.523     -616052.27749   -455480.23645  24772473.204    24772481.306
       208.000         137.000
  20857057.195   -20916296.30749 -16265745.58547  20857056.650    20857062.770
       242.000         210.000
  24715914.380    -6626639.24049  -4919919.92545  24715913.669    24715923.029
       206.000         140.000
  23046938.144   -14620877.88049 -11373495.45546  23046938.087    23046946.779
       219.000         165.000
  20932031.034    -1082096.42249   -832525.56947  20932030.307    20932036.958
       241.000         206.000
  20634955.716   -26849049.15749 -20889255.84447  20634954.838    20634961.246
       243.000         209.000
  22841807.381   -12837660.19449  -9987143.73946  22841806.866    22841814.487
       220.000         164.000
  20383193.881   -28978413.79949 -22548863.14048  20383193.389    20383198.114
       241.000         214.000
 03  3 20  0 10  0.0000000  0 11G14G16G 3G29G23G 2G 6G17G15G26G18
  24198529.339    -3298134.63049  -1835191.11345  24198528.277    24198538.419
       212.000         144.000
  23732049.744   -12333060.77049  -9590512.75745  23732048.605    23732057.162
       214.000         152.000
  23253739.273    -9209968.23249  -7155339.66546  23253738.882    23253746.356
       219.000         164.000
  24789202.490     -528141.22449   -386978.14145  24789202.642    24789211.765
       208.000         137.000
  20863158.661   -20884232.76749 -16240761.00047  20863158.146    20863164.000
       242.000         210.000
  24717778.790    -6616841.75849  -4912285.54645  24717778.588    24717787.572
       204.000         139.000
  23066419.684   -14518502.00049 -11293722.15646  23066419.950    23066429.008
       219.000         165.000
  20935268.569    -1065082.98749   -819268.34547  20935267.946    20935274.296
       240.000         206.000
  20629126.044   -26879684.23649 -20913127.30847  20629125.314    20629131.585
       243.000         209.000
  22856632.335   -12759754.35749  -9926437.93246  22856632.113    22856639.952
       221.000         164.000
  20382833.196   -28980309.20849 -22550340.06148  20382832.709    20382837.488
       241.000         214.000
 03  3 20  0 10 30.0000000  0 11G14G16G 3G29G23G 2G 6G17G15G26G18
  24177084.407    -3410827.56649  -1923003.59045  24177082.894    24177092.663
       211.000         144.000
  23741554.949   -12283110.96549  -9551590.91645  23741555.023    23741563.005
       214.000         152.000
  23237532.693    -9295134.01449  -7221702.53646  23237532.161    23237539.323
       219.000         165.000
  24805982.877     -439960.09049   -318265.61445  24805984.005    24805992.520
       207.000         136.000
  20869312.914   -20851891.70849 -16215560.17047  20869312.436    20869318.401
       241.000         210.000
  24719716.172    -6606660.58749  -4904352.18945  24719715.127    24719726.125
       205.000         139.000
  23085942.420   -14415909.87349 -11213780.34946  23085942.405    23085951.094
       218.000         164.000
  20938550.531    -1047835.89149   -805829.04947  20938549.983    20938556.391
       241.000         206.000
  20623337.788   -26910101.63349 -20936829.14947  20623336.951    20623343.192
       243.000         209.000
  22871547.569   -12681374.41149  -9865362.67446  22871547.657    22871554.571
       220.000         163.000
  20382545.094   -28981823.11449 -22551519.70848  20382544.548    20382549.575
       240.000         214.000
 03  3 20  0 11  0.0000000  0 11G14G16G 3G29G23G 2G 6G17G15G26G18
  24155646.986    -3523481.06949  -2010785.38345  24155646.264    24155655.348
       207.000         141.000
  23751125.681   -12232816.80049  -9512400.75145  23751125.718    23751134.082
       213.000         152.000
  23221383.930    -9379996.05649  -7287828.71846  23221383.061    23221390.861
       219.000         165.000
  24822814.219     -351510.82649   -249344.13745  24822814.023    24822823.601
       210.000         136.000
  20875519.755   -20819274.45149 -16190144.11547  20875519.069    20875525.219
       242.000         210.000
  24721726.536    -6596096.36249  -4896120.37145  24721726.225    24721735.776
       207.000         139.000
  23105505.847   -14313103.50949 -11133671.60046  23105506.381    23105514.591
       218.000         163.000
  20941877.227    -1030353.95849   -792206.76247  20941876.481    20941882.806
       240.000         205.000
  20617591.159   -26940300.10649 -20960360.39847  20617590.259    20617596.675
       243.000         210.000
  22886552.552   -12602522.70049  -9803919.82945  22886552.389    22886560.058
       220.000         162.000
  20382329.470   -28982956.15449 -22552402.57348  20382328.907    20382333.622
       241.000         214.000
 03  3 20  0 11 30.0000000  0 11G14G16G 3G29G23G 2G 6G17G15G26G18
  24134217.570    -3636092.62249  -2098534.49145  24134215.720    24134225.477
       207.000         139.000
  23760761.429   -12182181.00049  -9472944.35545  23760760.418    23760768.453
       214.000         152.000
  23205293.457    -9464551.69049  -7353716.14546  23205292.870    23205300.017
       220.000         165.000
  24839696.120     -262796.29349   -180215.97345  24839694.707    24839704.090
       206.000         135.000
  20881778.833   -20786382.82649 -16164514.27447  20881778.166    20881784.364
       242.000         209.000
  24723809.397    -6585150.58149  -4887591.22845  24723809.303    24723819.139
       206.000         139.000
  23125109.559   -14210085.39549 -11053397.86446  23125110.259    23125118.064
       217.000         163.000
  20945248.711    -1012636.90949   -778401.26747  20945248.007    20945254.663
       240.000         205.000
  20611886.400   -26970278.85949 -20983720.43747  20611885.539    20611892.127
       243.000         210.000
  22901646.805   -12523201.89349  -9742111.43745  22901646.520    22901654.101
       221.000         162.000
  20382186.119   -28983709.35249 -22552989.45448  20382185.666    20382190.260
       241.000         214.000
 03  3 20  0 12  0.0000000  0 11G14G16G 3G29G23G 2G 6G17G15G26G18
  24112796.575    -3748659.76349  -2186248.99245  24112796.239    24112804.913
       210.000         142.000
  23770461.631   -12131206.56149  -9433224.09545  23770461.192    23770469.585
       214.000         153.000
  23189261.752    -9548798.45849  -7419362.90346  23189261.348    23189268.658
       220.000         165.000
  24856627.877     -173818.88449   -110882.97145  24856627.645    24856635.589
       205.000         133.000
  20888089.774   -20753218.62849 -16138672.03747  20888089.367    20888095.216
       242.000         209.000
  24725964.635    -6573824.54849  -4878765.78845  24725963.702    24725973.367
       204.000         139.000
  23144753.242   -14106857.94649 -10972960.98545  23144753.680    23144761.873
       218.000         161.000
  20948665.030     -994683.93249   -764411.93247  20948664.291    20948670.879
       240.000         205.000
  20606223.599   -27000036.83649 -21006908.44247  20606222.789    20606228.927
       244.000         210.000
  22916829.823   -12443414.96249  -9679939.83846  22916829.689    22916837.431
       220.000         163.000
  20382114.758   -28984084.20249 -22553281.52248  20382114.256    20382118.981
       241.000         214.000
 03  3 20  0 12 30.0000000  0 11G14G16G 3G29G23G 2G 6G17G15G26G18
  24091384.667    -3861179.27449  -2273926.37245  24091383.802    24091393.756
       211.000         146.000
  23780225.842   -12079895.74849  -9393241.72545  23780225.552    23780233.534
       214.000         152.000
  23173289.349    -9632733.72149  -7484766.93046  23173288.766    23173296.101
       220.000         166.000
  24873609.319      -84580.83049    -41346.84445  24873610.558    24873617.651
       204.000         132.000
  20894452.289   -20719783.33549 -16112618.55647  20894451.622    20894457.822
       242.000         209.000
  24728192.051    -6562119.45049  -4869644.99245  24728191.999    24728202.358
       206.000         139.000
  23164436.273   -14003423.13649 -10892362.55445  23164435.835    23164445.964
       217.000         162.000
  20952126.438     -976494.05749   -750238.00247  20952125.545    20952132.173
       240.000         205.000
  20600603.019   -27029573.08749 -21029923.67347  20600602.220    20600608.563
       244.000         210.000
  22932100.998   -12363164.47449  -9617407.03745  22932101.327    22932108.483
       219.000         162.000
  20382115.252   -28984081.61349 -22553279.48248  20382114.706    20382119.337
       241.000         214.000
 03  3 20  0 13  0.0000000  0 11G14G16G 3G29G23G 2G 6G17G15G26G18
  24069982.304    -3973648.97949  -2361564.95045  24069981.289    24069990.510
       211.000         146.000
  23790053.354   -12028251.87349  -9352999.82245  23790052.869    23790061.204
       216.000         152.000
  23157376.621    -9716355.54549  -7549926.70946  23157376.232    23157383.802
       221.000         167.000
  24890639.903        4914.87349     28390.04045  24890638.020    24890646.995
       206.000         132.000
  20900865.975   -20686079.13749 -16086355.54047  20900865.532    20900871.652
       243.000         209.000
  24730491.257    -6550037.08349  -4860230.24045  24730491.947    24730500.225
       204.000         139.000
  23184158.223   -13899783.68949 -10811604.66545  23184157.742    23184166.951
       218.000         161.000
  20955633.083     -958066.57549   -735878.92747  20955632.458    20955638.938
       242.000         205.000
  20595024.817   -27058886.82949 -21052765.52547  20595024.101    20595030.084
       245.000         210.000
  22947459.811   -12282453.40849  -9554515.32945  22947459.604    22947467.099
       222.000         161.000
  20382187.292   -28983702.90649 -22552984.36448  20382186.926    20382191.506
       242.000         214.000
 03  3 20  0 13 30.0000000  0 10G14G16G 3G23G 2G 6G17G15G26G18
  24048590.120    -4086064.66549  -2449161.42645  24048589.028    24048598.825
       207.000         143.000
  23799944.187   -11976275.81349  -9312499.07445  23799944.162    23799951.232
       215.000         153.000
  23141524.316    -9799659.93149  -7614839.13946  23141524.436    23141530.849
       220.000         167.000
  20907330.813   -20652106.13549 -16059883.06147  20907330.167    20907336.441
       241.000         209.000
  24732862.389    -6537577.06449  -4850521.19845  24732861.416    24732871.037
       206.000         138.000
  23203919.049   -13795940.35449 -10730687.86845  23203918.561    23203927.438
       216.000         159.000
  20959185.263     -939399.48649   -721333.14347  20959184.698    20959191.014
       240.000         205.000
  20589489.382   -27087975.53449 -21075432.01947  20589488.704    20589494.759
       244.000         210.000
  22962906.025   -12201283.10749  -9491265.78045  22962907.070    22962913.061
       220.000         162.000
  20382331.012   -28982947.62449 -22552395.80948  20382330.316    20382335.200
       241.000         214.000
 03  3 20  0 14  0.0000000  0 10G14G16G 3G23G 2G 6G17G15G26G18
  24027208.512    -4198425.16149  -2536714.92545  24027208.250    24027216.373
       210.000         142.000
  23809897.278   -11923972.18349  -9271743.06545  23809896.911    23809905.456
       214.000         152.000
  23125732.424    -9882646.03849  -7679503.56046  23125731.549    23125739.343
       220.000         167.000
  20913846.118   -20617867.90649 -16033203.91347  20913845.616    20913851.647
       242.000         209.000
  24735304.826    -6524742.40449  -4840520.23845  24735303.825    24735313.603
       205.000         138.000
  23223717.914   -13691897.11349 -10649615.34345  23223717.455    23223727.253
       217.000         160.000
  20962782.932     -920493.77749   -706601.42147  20962782.298    20962788.696
       240.000         205.000
  20583996.648   -27116839.90149 -21097923.70947  20583995.816    20584002.224
       243.000         210.000
  22978438.847   -12119657.85449  -9427661.72745  22978439.677    22978446.661
       221.000         162.000
  20382545.826   -28981818.53849 -22551515.98448  20382545.268    20382550.022
       240.000         214.000
 03  3 20  0 14 30.0000000  0 10G14G16G 3G23G 2G 6G17G15G26G18
  24005837.931    -4310727.72449  -2624223.29045  24005837.515    24005846.365
       210.000         145.000
  23819912.301   -11871343.42849  -9230733.73245  23819912.198    23819919.215
       215.000         151.000
  23110001.694    -9965311.42649  -7743918.06746  23110000.749    23110008.088
       220.000         167.000
  20920411.577   -20583366.20049 -16006319.46047  20920410.921    20920416.958
       241.000         209.000
  24737818.235    -6511534.46249  -4830228.40345  24737817.016    24737828.476
       206.000         138.000
  23243554.403   -13587656.36149 -10568388.91045  23243554.572    23243562.465
       218.000         159.000
  20966426.023     -901349.03749   -691683.44547  20966425.526    20966431.785
       240.000         204.000
  20578546.732   -27145479.14249 -21120239.97647  20578545.889    20578552.219
       244.000         210.000
  22994057.615   -12037580.60249  -9363705.47945  22994057.755    22994065.169
       221.000         162.000
  20382831.620   -28980316.84549 -22550345.81448  20382831.030    20382835.716
       241.000         214.000
 03  3 20  0 15  0.0000000  0 10G14G16G 3G23G 2G 6G17G15G26G18
  23984478.961    -4422969.49749  -2711684.26245  23984477.752    23984488.600
       207.000         146.000
  23829988.608   -11818392.32249  -9189473.22645  23829988.342    23829995.927
       214.000         150.000
  23094332.383   -10047653.51549  -7808080.64746  23094331.797    23094339.379
       220.000         167.000
  20927026.857   -20548602.60549 -15979230.93947  20927026.321    20927032.171
       241.000         209.000
  24740402.416    -6497954.63249  -4819646.77845  24740402.546    24740411.190
       206.000         139.000
  23263428.030   -13483220.27049 -10487010.24145  23263427.634    23263437.724
       218.000         159.000
  20970114.841     -881964.03549   -676578.25647  20970114.082    20970120.943
       240.000         204.000
  20573139.883   -27173892.12049 -21142379.93447  20573139.102    20573145.503
       243.000         210.000
  23009761.923   -11955054.05649  -9299399.10045  23009762.263    23009768.787
       222.000         161.000
  20383188.086   -28978443.39849 -22548885.96548  20383187.543    20383192.244
       241.000         214.000
 03  3 20  0 15 30.0000000  0 10G14G16G 3G23G 2G 6G17G15G26G18
  23963131.840    -4535148.15849  -2799096.02745  23963131.090    23963140.429
       208.000         145.000
  23840125.671   -11765121.79649  -9147963.81645  23840124.445    23840132.806
       214.000         150.000
  23078725.071   -10129670.07349  -7871989.57046  23078724.541    23078731.832
       221.000         167.000
  20933691.653   -20513578.98949 -15951939.79747  20933691.157    20933696.945
       241.000         209.000
  24743057.182    -6484004.31749  -4808776.44245  24743057.268    24743066.294
       205.000         139.000
  23283338.387   -13378591.12749 -10405481.17645  23283338.320    23283346.425
       217.000         159.000
  20973849.573     -862338.04349   -661285.27547  20973848.927    20973855.263
       240.000         204.000
  20567776.243   -27202078.23349 -21164343.11647  20567775.455    20567781.713
       244.000         210.000
  23025551.274   -11872080.89949  -9234744.72245  23025551.882    23025558.778
       220.000         161.000
  20383615.066   -28976199.45749 -22547137.41948  20383614.357    20383619.206
       241.000         214.000
 03  3 20  0 16  0.0000000  0 10G14G16G 3G23G 2G 6G17G15G26G18
  23941797.422    -4647260.14549  -2886455.86945  23941795.520    23941805.573
       210.000         145.000
  23850323.149   -11711533.81449  -9106207.03745  23850323.235    23850331.666
       214.000         150.000
  23063180.358   -10211358.07649  -7935642.46546  23063179.403    23063188.245
       223.000         168.000
  20940405.696   -20478296.44749 -15924446.89747  20940405.009    20940411.166
       241.000         209.000
  24745782.296    -6469684.47049  -4797618.16345  24745782.082    24745791.933
       206.000         140.000
  23303285.167   -13273770.71449 -10323803.03745  23303284.682    23303293.548
       218.000         158.000
  20977630.367     -842469.79949   -645803.53747  20977629.789    20977636.209
       240.000         204.000
  20562456.101   -27230035.71549 -21186128.14047  20562455.368    20562461.609
       243.000         210.000
  23041425.087   -11788663.45449  -9169744.15945  23041425.383    23041432.523
       219.000         160.000
  20384112.460   -28973585.51549 -22545100.56748  20384112.013    20384116.649
       241.000         214.000
 03  3 20  0 16 30.0000000  0 10G14G16G 3G23G 2G 6G17G15G26G18
  23920476.247    -4759303.14849  -2973761.96745  23920475.240    23920484.422
       209.000         146.000
  23860580.521   -11657631.54649  -9064205.37245  23860580.394    23860587.704
       212.000         151.000
  23047698.558   -10292715.59649  -7999037.84846  23047697.131    23047705.063
       221.000         168.000
  20947168.578   -20442757.22549 -15896753.98747  20947167.907    20947173.855
       242.000         208.000
  24748577.211    -6454997.02149  -4786173.43945  24748575.997    24748587.369
       205.000         139.000
  23323267.725   -13168761.82549 -10241978.06345  23323268.517    23323276.556
       217.000         158.000
  20981457.287     -822359.22249   -630132.95947  20981456.580    20981462.959
       240.000         204.000
  20557179.543   -27257763.86149 -21207734.46147  20557178.631    20557184.767
       244.000         210.000
  23057382.887   -11704804.88849  -9104399.83345  23057383.066    23057389.626
       220.000         160.000
  20384679.977   -28970603.04249 -22542776.54748  20384679.280    20384684.143
       240.000         214.000
 03  3 20  0 17  0.0000000  0 10G14G16G 3G23G 2G 6G17G15G26G18
  23899168.689    -4871274.27049  -3061012.01445  23899167.790    23899178.075
       209.000         145.000
  23870897.066   -11603417.71549  -9021960.92245  23870897.512    23870905.118
       215.000         151.000
  23032280.159   -10373739.51449  -8062173.28146  23032279.735    23032287.175
       222.000         168.000
  20953979.997   -20406962.83549 -15868862.24747  20953979.252    20953985.525
       241.000         208.000
  24751441.885    -6439943.14349  -4774443.21145  24751440.874    24751451.985
       205.000         140.000
  23343285.756   -13063566.64649 -10160007.93345  23343285.839    23343294.325
       216.000         158.000
  20985330.564     -802005.14249   -614272.64047  20985330.078    20985336.225
       240.000         204.000
  20551946.886   -27285261.60349 -21229161.25247  20551946.174    20551952.166
       244.000         210.000
  23073424.143   -11620507.86049  -9038713.87145  23073423.281    23073431.548
       219.000         160.000
  20385317.456   -28967252.99849 -22540166.10848  20385316.819    20385321.574
       240.000         214.000
 03  3 20  0 17 30.0000000  0 10G14G16G 3G23G 2G 6G17G15G26G18
  23877875.278    -4983171.28249  -3148204.29945  23877874.911    23877883.989
       209.000         146.000
  23881272.479   -11548895.43849  -8979476.12645  23881271.949    23881281.460
       215.000         151.000
  23016925.551   -10454427.96449  -8125047.31246  23016925.204    23016931.873
       223.000         168.000
  20960839.578   -20370915.38949 -15840773.32147  20960838.923    20960844.828
       241.000         208.000
  24754375.927    -6424524.81949  -4762428.94545  24754375.872    24754385.307
       206.000         140.000
  23363338.750   -12958187.91749 -10077894.74345  23363338.327    23363347.589
       216.000         156.000
  20989250.235     -781407.12949   -598222.24847  20989249.625    20989256.111
       240.000         204.000
  20546758.221   -27312528.39849 -21250408.08147  20546757.276    20546763.802
       244.000         210.000
  23089548.142   -11535775.71349  -8972688.85545  23089547.289    23089556.314
       220.000         160.000
  20386024.571   -28963536.98749 -22537270.50148  20386024.029    20386028.728
       241.000         214.000
 03  3 20  0 18  0.0000000  0 10G14G16G 3G23G 2G 6G17G15G26G18
  23856596.694    -5094990.80149  -3235336.20045  23856595.762    23856604.285
       212.000         147.000
  23891706.108   -11494066.76449  -8936752.58245  23891705.776    23891714.054
       215.000         150.000
  23001635.337   -10534778.10849  -8187657.73046  23001634.919    23001642.258
       223.000         169.000
  20967747.112   -20334615.96249 -15812488.04647  20967746.381    20967752.838
       241.000         208.000
  24757379.150    -6408743.06749  -4750131.50245  24757378.114    24757389.226
       205.000         140.000
  23383426.373   -12852627.28649  -9995639.83645  23383425.981    23383436.159
       218.000         158.000
  20993216.511     -760564.02049   -581980.87147  20993215.849    20993222.451
       240.000         204.000
  20541613.763   -27339562.62049 -21271473.68647  20541613.017    20541619.146
       243.000         210.000
  23105754.487   -11450610.75549  -8906326.58745  23105754.699    23105762.671
       218.000         161.000
  20386801.169   -28959455.85749 -22534090.39048  20386800.552    20386805.377
       241.000         214.000
 03  3 20  0 18 30.0000000  0 10G14G16G 3G23G 2G 6G17G15G26G18
  23835333.303    -5206730.08749  -3322405.58845  23835331.993    23835341.404
       210.000         146.000
  23902197.377   -11438934.93449  -8893792.80645  23902197.193    23902205.519
       213.000         150.000
  22986409.933   -10614787.76549  -8250002.82046  22986409.180    22986415.545
       223.000         169.000
  20974702.215   -20298066.49549 -15784007.93447  20974701.566    20974707.669
       241.000         208.000
  24760451.197    -6392599.22549  -4737551.86745  24760450.477    24760461.020
       205.000         139.000
  23403548.122   -12746887.28649  -9913245.15645  23403548.501    23403557.842
       217.000         157.000
  20997229.523     -739475.49249   -565548.25847  20997228.871    20997235.301
       240.000         204.000
  20536513.696   -27366363.50449 -21292357.46847  20536512.858    20536519.205
       244.000         210.000
  23122042.616   -11365015.94949  -8839629.36345  23122042.513    23122050.026
       219.000         161.000
  20387647.053   -28955010.66049 -22530626.58348  20387646.446    20387651.144
       241.000         214.000
 03  3 20  0 19  0.0000000  0 10G14G16G 3G23G 2G 6G17G15G26G18
  23814085.580    -5318386.59949  -3409410.47545  23814084.113    23814093.351
       208.000         146.000
  23912745.960   -11383502.38149  -8850598.71045  23912745.691    23912754.520
       214.000         149.000
  22971249.870   -10694454.28749  -8312080.54646  22971248.735    22971256.576
       224.000         170.000
  20981704.611   -20261268.70449 -15755334.32847  20981703.939    20981710.073
       240.000         208.000
  24763591.939    -6376094.85549  -4724691.34745  24763591.312    24763601.656
       206.000         139.000
  23423703.598   -12640970.19449  -9830712.47445  23423704.237    23423713.048
       217.000         156.000
  21001289.453     -718140.37249   -548923.49447  21001288.660    21001295.336
       240.000         204.000
  20531458.298   -27392929.75649 -21313058.41847  20531457.608    20531463.807
       244.000         210.000
  23138412.064   -11278994.20249  -8772599.45745  23138412.320    23138418.178
       220.000         160.000
  20388561.967   -28950202.73349 -22526880.13448  20388561.443    20388566.195
       241.000         214.000
 03  3 20  0 19 30.0000000  0 10G14G16G 3G23G 2G 6G17G15G26G18
  23792854.023    -5429958.08449  -3496349.08745  23792853.260    23792861.898
       210.000         147.000
  23923350.965   -11327772.76849  -8807173.12945  23923350.369    23923359.407
       214.000         149.000
  22956155.439   -10773775.92649  -8373889.53546  22956155.115    22956161.890
       224.000         170.000
  20988753.766   -20224224.94749 -15726469.06047  20988753.169    20988759.142
       242.000         208.000
  24766800.890    -6359232.00049  -4711551.51245  24766800.681    24766810.902
       205.000         140.000
  23443892.196   -12534878.91949  -9748044.08245  23443892.561    23443901.011
       217.000         157.000
  21005396.427     -696558.18649   -532106.20747  21005395.757    21005402.463
       240.000         204.000
  20526447.566   -27419261.09649 -21333576.32247  20526446.757    20526453.065
       244.000         210.000
  23154862.141   -11192548.70649  -8705239.34945  23154862.023    23154870.631
       219.000         160.000
  20389545.559   -28945033.62649 -22522852.24248  20389544.942    20389549.490
       241.000         214.000
 03  3 20  0 20  0.0000000  0 10G14G16G 3G23G 2G 6G17G15G26G18
  23771639.358    -5541441.24049  -3583218.87745  23771637.728    23771648.231
       212.000         150.000
  23934012.119   -11271748.20549  -8763517.70245  23934012.368    23934019.939
       214.000         149.000
  22941127.188   -10852749.37949  -8435427.20546  22941126.698    22941133.836
       224.000         170.000
  20995849.564   -20186936.25149 -15697412.93247  20995848.956    20995854.918
       241.000         208.000
  24770077.821    -6342011.53349  -4698133.00045  24770077.322    24770087.484
       206.000         140.000
  23464113.577   -12428615.33749  -9665241.41445  23464114.611    23464121.939
       217.000         156.000
  21009550.468     -674728.44949   -515096.03247  21009550.041    21009556.426
       240.000         204.000
  20521481.862   -27445355.94449 -21353909.94747  20521481.084    20521487.155
       244.000         210.000
  23171392.293   -11105682.04749  -8637551.06845  23171392.579    23171400.063
       220.000         160.000
  20390597.843   -28939503.86949 -22518543.32248  20390597.423    20390602.003
       240.000         214.000
 03  3 20  0 20 30.0000000  0 10G14G16G 3G23G 2G 6G17G15G26G18
  23750441.949    -5652833.76749  -3670018.05045  23750440.302    23750450.322
       211.000         149.000
  23944728.874   -11215431.88649  -8719634.93045  23944728.509    23944737.739
       213.000         149.000
  22926165.538   -10931372.82449  -8496692.15146  22926165.046    22926171.702
       224.000         170.000
  21002991.531   -20149404.85449 -15668167.68547  21002990.942    21002997.122
       241.000         208.000
  24773422.521    -6324435.73049  -4684437.63845  24773422.946    24773432.534
       207.000         140.000
  23484367.205   -12322182.31649  -9582306.69345  23484367.541    23484376.456
       218.000         155.000
  21013751.780     -652650.61249   -497892.52447  21013751.123    21013757.845
       240.000         203.000
  20516561.274   -27471213.78549 -21374058.88847  20516560.531    20516566.706
       244.000         210.000
  23188002.041   -11018397.49149  -8569537.15945  23188002.520    23188009.266
       220.000         160.000
  20391718.387   -28933615.32949 -22513954.82948  20391717.778    20391722.341
       241.000         214.000
 03  3 20  0 21  0.0000000  0 10G14G16G 3G23G 2G 6G17G15G26G18
  23729262.321    -5764132.53949  -3756744.16445  23729261.434    23729270.869
       210.000         147.000
  23955500.552   -11158826.26249  -8675526.74445  23955500.412    23955508.222
       213.000         149.000
  22911271.080   -11009643.79949  -8557682.45746  22911270.128    22911277.472
       225.000         171.000
  21010179.468   -20111632.05949 -15638734.33947  21010178.916    21010184.942
       241.000         207.000
  24776834.573    -6306505.72749  -4670466.23945  24776833.325    24776843.149
       205.000         140.000
  23504652.683   -12215581.74849  -9499241.45545  23504651.978    23504661.934
       215.000         155.000
  21018000.537     -630323.29349   -480494.61947  21017999.961    21018006.448
       239.000         203.000
  20511686.002   -27496833.27949 -21394022.11647  20511685.186    20511691.174
       243.000         210.000
  23204690.836   -10930697.51249  -8501199.53945  23204691.756    23204697.818
       219.000         159.000
  20392907.049   -28927368.79549 -22509087.38548  20392906.455    20392911.124
       241.000         214.000
 03  3 20  0 21 30.0000000  0 10G14G16G 3G23G 2G 6G17G15G26G18
  23708101.034    -5875335.02449  -3843395.25745  23708100.733    23708108.641
       214.000         148.000
  23966326.748   -11101934.55449  -8631195.62345  23966326.368    23966335.705
       215.000         148.000
  22896444.059   -11087560.11849  -8618396.39646  22896443.982    22896451.286
       225.000         171.000
  21017412.934   -20073619.88249 -15609114.46047  21017412.428    21017418.523
       241.000         207.000
  24780313.592    -6288223.43349  -4656220.36945  24780314.036    24780322.389
       205.000         141.000
  23524969.597   -12108816.31649  -9416047.73445  23524970.202    23524978.957
       217.000         154.000
  21022296.793     -607746.17649   -462902.06647  21022296.107    21022302.673
       239.000         203.000
  20506856.290   -27522213.59349 -21413798.96647  20506855.559    20506861.646
       244.000         211.000
  23221458.117   -10842585.30949  -8432540.68545  23221459.298    23221465.082
       219.000         159.000
  20394163.595   -28920765.65649 -22503942.06148  20394163.035    20394167.678
       241.000         214.000
 03  3 20  0 22  0.0000000  0 10G14G16G 3G23G 2G 6G17G15G26G18
  23686958.726    -5986438.15249  -3929968.91945  23686957.960    23686967.241
       214.000         151.000
  23977206.888   -11044759.18449  -8586643.48445  23977207.305    23977215.265
       213.000         148.000
  22881685.108   -11165118.69049  -8678831.59046  22881684.300    22881691.697
       225.000         171.000
  21024691.736   -20035369.51249 -15579308.97147  21024691.179    21024697.199
       241.000         207.000
  24783859.425    -6269590.04849  -4641700.88645  24783858.182    24783868.744
       205.000         141.000
  23545317.567   -12001887.81049  -9332726.94045  23545318.195    23545327.051
       217.000         155.000
  21026640.752     -584918.39949   -445114.18847  21026640.040    21026646.468
       239.000         203.000
  20502072.352   -27547353.21749 -21433388.26447  20502071.561    20502077.512
       243.000         211.000
  23238303.266   -10754063.36649  -8363562.58445  23238303.467    23238310.856
       216.000         158.000
  20395487.808   -28913806.70249 -22498519.48148  20395487.368    20395491.843
       241.000         214.000
 03  3 20  0 22 30.0000000  0 10G14G16G 3G23G 2G 6G17G15G26G18
  23665835.866    -6097438.80349  -4016462.71045  23665834.883    23665843.701
       214.000         151.000
  23988140.589   -10987302.66349  -8541872.28145  23988141.425    23988148.209
       213.000         148.000
  22866994.742   -11242316.82349  -8738985.91846  22866994.829    22867000.754
       224.000         172.000
  21032015.579   -19996882.48549 -15549319.08447  21032014.959    21032021.189
       240.000         207.000
  24787471.799    -6250606.79749  -4626908.80745  24787471.521    24787481.793
       204.000         141.000
  23565696.078   -11894798.39449  -9249280.78745  23565696.798    23565705.661
       215.000         155.000
  21031032.659     -561838.98949   -427130.23147  21031031.910    21031038.559
       239.000         203.000
  20497334.449   -27572250.97749 -21452789.09947  20497333.641    20497339.827
       244.000         211.000
  23255225.861   -10665134.36649  -8294267.28445  23255225.942    23255232.862
       217.000         158.000
  20396879.578   -28906492.94149 -22492820.42648  20396879.034    20396883.830
       241.000         214.000
 03  3 20  0 23  0.0000000  0 10G14G16G 3G23G 2G 6G17G15G26G18
  23644732.872    -6208335.19149  -4102875.27345  23644731.323    23644740.393
       215.000         150.000
  23999127.094   -10929568.70349  -8496884.90145  23999126.600    23999136.110
       213.000         148.000
  22852373.244   -11319152.93649  -8798858.15546  22852372.602    22852379.738
       225.000         172.000
  21039383.936   -19958161.35449 -15519146.77647  21039383.528    21039389.592
       241.000         207.000
  24791150.199    -6231276.33349  -4611846.15345  24791149.434    24791160.965
       205.000         140.000
  23586104.643   -11787551.30649  -9165711.75945  23586104.929    23586113.400
       215.000         153.000
  21035472.531     -538507.44049   -408949.80947  21035471.806    21035478.328
       239.000         202.000
  20492642.594   -27596906.66049 -21472001.30447  20492642.009    20492647.958
       244.000         211.000
  23272225.284   -10575802.04149  -8224657.71945  23272225.613    23272232.822
       217.000         157.000
  20398338.434   -28898826.46949 -22486846.53248  20398338.004    20398342.539
       241.000         214.000
 03  3 20  0 23 30.0000000  0 10G14G16G 3G23G 2G 6G17G15G26G18
  23623650.365    -6319123.94049  -4189203.99545  23623650.127    23623657.556
       214.000         151.000
  24010165.924   -10871559.94349  -8451683.38445  24010164.329    24010174.362
       213.000         148.000
  22837821.076   -11395624.58549  -8858446.38846  22837820.886    22837828.064
       226.000         173.000
  21046796.620   -19919207.49249 -15488793.12047  21046796.166    21046802.164
       241.000         207.000
  24794894.552    -6211599.74549  -4596513.79045  24794894.202    24794904.105
       204.000         140.000
  23606542.866   -11680148.53349  -9082021.41545  23606544.000    23606552.230
       215.000         153.000
  21039960.496     -514922.81649   -390572.18347  21039959.789    21039966.342
       239.000         202.000
  20487997.107   -27621318.75949 -21491023.70847  20487996.365    20488002.464
       243.000         211.000
  23289300.963   -10486068.82449  -8154735.77145  23289300.982    23289308.123
       216.000         157.000
  20399864.272   -28890807.84249 -22480598.23248  20399863.768    20399868.277
       240.000         214.000
 03  3 20  0 24  0.0000000  0 10G14G16G 3G23G 2G 6G17G15G26G18
  23602588.661    -6429802.62949  -4275446.91645  23602587.399    23602595.944
       215.000         151.000
  24021256.401   -10813279.12649  -8406269.87545  24021256.050    24021264.679
       212.000         148.000
  22823338.791   -11471729.26549  -8917748.67846  22823338.122    22823345.608
       224.000         173.000
  21054253.233   -19880022.69949 -15458259.52047  21054252.664    21054258.868
       241.000         207.000
  24798704.416    -6191578.88749  -4580913.15445  24798703.605    24798713.447
       207.000         141.000
  23627010.183   -11572592.64049  -8998211.77445  23627009.991    23627019.464
       217.000         154.000
  21044496.706     -491084.81049   -371997.12047  21044496.069    21044502.508
       239.000         202.000
  20483398.159   -27645486.44549 -21509855.65647  20483397.429    20483403.630
       244.000         211.000
  23306452.287   -10395938.01349  -8084504.02345  23306452.379    23306459.855
       216.000         158.000
  20401456.879   -28882438.61049 -22474076.73348  20401456.386    20401461.045
       241.000         214.000
 03  3 20  0 24 30.0000000  0 10G14G16G 3G23G 2G 6G17G15G26G18
  23581548.540    -6540368.34949  -4361601.78445  23581547.424    23581556.537
       216.000         152.000
  24032398.080   -10754729.20349  -8360646.68045  24032397.148    24032406.978
       212.000         147.000
  22808926.710   -11547464.87249  -8976763.36946  22808926.918    22808934.028
       225.000         174.000
  21061753.497   -19840608.71449 -15427547.32647  21061752.932    21061758.834
       241.000         207.000
  24802579.536    -6171215.34949  -4565045.52645  24802579.142    24802588.522
       207.000         141.000
  23647506.202   -11464885.96849  -8914284.64445  23647505.962    23647514.849
       214.000         153.000
  21049081.426     -466991.88649   -353223.41647  21049080.675    21049087.161
       239.000         202.000
  20478845.891   -27669408.64549 -21528496.31947  20478845.021    20478851.308
       244.000         211.000
  23323678.800   -10305412.41249  -8013964.62745  23323679.143    23323686.206
       216.000         158.000
  20403115.921   -28873720.07549 -22467283.05148  20403115.497    20403120.120
       241.000         214.000
 03  3 20  0 25  0.0000000  0 10G14G16G 3G23G 2G 6G17G15G26G18
  23560530.596    -6650818.13749  -4447666.35545  23560530.234    23560538.183
       217.000         153.000
  24043590.565   -10695912.76549  -8314815.82145  24043590.409    24043598.947
       213.000         148.000
  22794585.425   -11622828.43749  -9035488.17046  22794584.128    22794591.743
       225.000         174.000
  21069297.116   -19800966.79549 -15396657.52447  21069296.759    21069302.621
       240.000         207.000
  24806519.548    -6150510.70849  -4548912.09945  24806518.954    24806529.328
       206.000         141.000
  23668030.487   -11357030.44849  -8830241.52145  23668030.234    23668039.941
       214.000         152.000
  21053714.777     -442643.61749   -334250.74247  21053713.997    21053720.599
       239.000         202.000
  20474340.576   -27693084.08849 -21546944.70847  20474339.680    20474345.982
       244.000         211.000
  23340979.913   -10214494.54049  -7943119.55545  23340980.046    23340987.900
       214.000         156.000
  20404841.302   -28864653.11349 -22460217.86948  20404840.803    20404845.468
       241.000         214.000
 03  3 20  0 25 30.0000000  0 10G14G16G 3G23G 2G 6G17G15G26G18
  23539535.129    -6761149.63049  -4533638.73645  23539533.940    23539543.314
       216.000         152.000
  24054833.123   -10636833.05349  -8268779.79445  24054833.225    24054841.937
       212.000         148.000
  22780315.295   -11697818.05549  -9093921.57946  22780314.456    22780322.276
       226.000         174.000
  21076883.684   -19761099.23549 -15365591.89747  21076883.217    21076889.082
       241.000         207.000
  24810524.077    -6129466.93549  -4532514.42345  24810523.792    24810534.610
       204.000         141.000
  23688582.592   -11249029.12949  -8746084.80845  23688582.116    23688592.425
       213.000         152.000
  21058396.726     -418039.78449   -315078.92947  21058395.946    21058402.776
       239.000         202.000
  20469882.386   -27716512.06849 -21565200.26947  20469881.706    20469887.686
       244.000         211.000
  23358354.989   -10123188.04949  -7871971.70045  23358355.297    23358363.702
       215.000         156.000
  20406632.674   -28855239.39249 -22452882.49048  20406632.063    20406636.771
       241.000         214.000
 03  3 20  0 26  0.0000000  0 10G14G16G 3G23G 2G 6G17G15G26G18
  23518562.579    -6871360.15349  -4619516.83645  23518560.939    23518570.352
       217.000         152.000
  24066125.329   -10577492.85249  -8222540.80245  24066124.699    24066134.126
       213.000         148.000
  22766116.776   -11772431.61249  -9152061.94946  22766116.226    22766123.582
       226.000         175.000
  21084512.830   -19721007.68349 -15334351.73047  21084512.366    21084518.202
       241.000         207.000
  24814592.895    -6108085.67549  -4515853.74845  24814592.875    24814602.823
       205.000         141.000
  23709161.995   -11140884.25849  -8661816.23345  23709161.939    23709171.307
       213.000         151.000
  21063127.487     -393179.57349   -295707.33847  21063126.911    21063133.398
       239.000         202.000
  20465471.499   -27739691.47549 -21583262.13247  20465470.649    20465476.747
       244.000         211.000
  23375803.491   -10031495.82149  -7800523.24645  23375803.098    23375811.542
       214.000         156.000
  20408489.745   -28845480.11849 -22445277.85048  20408489.187    20408493.865
       241.000         214.000
 03  3 20  0 26 30.0000000  0 10G14G16G 3G23G 2G 6G17G15G26G18
  23497613.593    -6981446.78849  -4705298.38945  23497612.851    23497621.097
       219.000         154.000
  24077466.521   -10517895.27649  -8176101.23045  24077465.937    24077474.948
       215.000         148.000
  22751990.316   -11846666.64049  -9209907.36546  22751989.465    22751996.739
       226.000         175.000
  21092184.316   -19680693.86549 -15302938.36647  21092183.665    21092189.994
       241.000         207.000
  24818725.575    -6086368.72949  -4498931.48145  24818724.884    24818735.552
       204.000         141.000
  23729768.233   -11032598.29749  -8577437.69845  23729767.154    23729777.775
       213.000         149.000
  21067907.132     -368062.31949   -276135.45447  21067906.442    21067912.976
       239.000         202.000
  20461108.083   -27762621.31049 -21601129.52347  20461107.230    20461113.657
       244.000         211.000
  23393324.733    -9939420.92249  -7728776.62545  23393324.289    23393331.842
       212.000         155.000
  20410412.398   -28835376.56249 -22437404.94048  20410411.996    20410416.477
       241.000         214.000
 03  3 20  0 27  0.0000000  0 10G14G16G 3G23G 2G 6G17G15G26G18
  23476688.776    -7091406.55749  -4790981.09245  23476688.327    23476696.167
       215.000         153.000
  24088856.162   -10458042.81549  -8129463.06945  24088855.652    24088865.333
       213.000         148.000
  22737936.394   -11920520.30549  -9267455.59846  22737935.795    22737942.960
       227.000         176.000
  21099897.843   -19640159.02349 -15271352.77747  21099897.145    21099903.342
       241.000         207.000
  24822921.850    -6064317.30549  -4481748.60345  24822920.989    24822931.162
       204.000         142.000
  23750400.922   -10924173.13649  -8492950.70945  23750400.670    23750410.198
       211.000         149.000
  21072735.914     -342687.00449   -256362.48747  21072735.229    21072741.958
       239.000         202.000
  20456792.403   -27785300.17449 -21618801.35047  20456791.838    20456797.745
       244.000         211.000
  23410918.372    -9846965.68649  -7656733.61045  23410917.699    23410925.419
       214.000         154.000
  20412400.420   -28824929.48149 -22429264.35048  20412399.800    20412404.506
       241.000         214.000
 03  3 20  0 27 30.0000000  0  9G14G16G 3G23G 6G17G15G26G18
  23455789.040    -7201233.87149  -4876560.59145  23455788.236    23455796.620
       216.000         151.000
  24100294.304   -10397935.47249  -8082626.30145  24100295.253    24100303.436
       212.000         148.000
  22723956.076   -11993987.28149  -9324702.53846  22723955.483    22723962.750
       227.000         176.000
  21107653.646   -19599401.93049 -15239594.00547  21107653.076    21107659.018
       241.000         207.000
  23771060.258   -10815608.27249  -8408354.88245  23771059.998    23771069.414
       210.000         149.000
  21077614.551     -317049.59949   -236385.29347  21077613.842    21077620.520
       239.000         202.000
  20452525.297   -27807723.90949 -21636274.37847  20452524.502    20452530.558
       244.000         211.000
  23428584.447    -9754130.28249  -7584394.37745  23428585.128    23428591.999
       213.000         154.000
  20414454.108   -28814137.28849 -22420854.84748  20414453.648    20414458.266
       241.000         214.000
 03  3 20  0 28  0.0000000  0  9G14G16G 3G23G 6G17G15G26G18
  23434914.525    -7310929.32149  -4962037.31945  23434914.107    23434921.185
       218.000         154.000
  24111779.822   -10337579.56649  -8035595.84445  24111779.432    24111788.489
       213.000         147.000
  22710049.039   -12067069.15349  -9381649.38046  22710048.351    22710055.313
       228.000         177.000
  21115450.723   -19558427.99049 -15207666.26147  21115450.138    21115455.946
       241.000         207.000
  23791744.965   -10706909.75549  -8323654.88045  23791744.508    23791755.787
       209.000         148.000
  21082542.430     -291153.48149   -216206.50747  21082541.920    21082548.024
       239.000         202.000
  20448306.188   -27829895.31249 -21653550.78947  20448305.553    20448311.471
       244.000         211.000
  23446321.547    -9660921.43049  -7511764.14045  23446321.210    23446329.722
       211.000         153.000
  20416572.487   -28803004.87249 -22412180.23548  20416571.981    20416576.578
       241.000         214.000
 03  3 20  0 28 30.0000000  0  9G14G16G 3G23G 6G17G15G26G18
  23414065.542    -7420490.97549  -5047409.79945  23414064.560    23414072.062
       217.000         154.000
  24123311.773   -10276979.07049  -7988374.79545  24123310.889    24123319.899
       212.000         147.000
  22696215.553   -12139764.30649  -9438294.89246  22696214.967    22696222.187
       227.000         177.000
  21123288.605   -19517239.60149 -15175571.41447  21123288.122    21123294.007
       240.000         207.000
  23812454.466   -10598080.71649  -8238853.19345  23812453.811    23812465.179
       209.000         147.000
  21087519.611     -264998.27749   -195825.83247  21087518.954    21087525.432
       239.000         202.000
  20444135.203   -27851813.99749 -21670630.26247  20444134.450    20444140.579
       243.000         211.000
  23464128.895    -9567342.82449  -7438845.79145  23464128.432    23464136.572
       211.000         153.000
  20418755.260   -28791534.43049 -22403242.22248  20418754.890    20418759.354
       241.000         214.000
 03  3 20  0 29  0.0000000  0  9G14G16G 3G23G 6G17G15G26G18
  23393242.592    -7529915.08949  -5132675.10945  23393241.486    23393248.956
       217.000         152.000
  24134889.913   -10216135.86149  -7940964.63445  24134889.384    24134898.397
       213.000         147.000
  22682456.285   -12212069.38549  -9494636.44346  22682455.303    22682462.641
       227.000         177.000
  21131167.230   -19475837.28949 -15143309.87047  21131166.698    21131172.648
       241.000         207.000
  23833188.648   -10489122.66349  -8153950.96945  23833189.346    23833198.840
       209.000         148.000
  21092546.385     -238582.41249   -175242.05047  21092545.664    21092552.329
       239.000         202.000
  20440012.669   -27873477.82849 -21687511.15347  20440011.884    20440017.945
       243.000         211.000
  23482006.289    -9473396.43349  -7365640.85445  23482006.405    23482014.079
       213.000         153.000
  20421002.321   -28779726.04349 -22394040.87348  20421001.865    20421006.471
       241.000         214.000
 03  3 20  0 29 30.0000000  0  9G14G16G 3G23G 6G17G15G26G18
  23372446.204    -7639199.77149  -5217831.81345  23372444.853    23372453.445
       218.000         154.000
  24146513.538   -10155053.37949  -7893368.02945  24146513.507    24146522.410
       212.000         146.000
  22668771.622   -12283982.68449  -9550672.71446  22668771.516    22668778.010
       227.000         177.000
  21139086.053   -19434223.56249 -15110883.58547  21139085.536    21139091.592
       241.000         207.000
  23853946.794   -10380038.51649  -8068950.49145  23853947.846    23853956.224
       209.000         147.000
  21097622.741     -211905.97249   -154455.22147  21097622.230    21097628.702
       239.000         202.000
  20435938.751   -27894886.33349 -21704193.08647  20435937.915    20435944.274
       244.000         211.000
  23499953.100    -9379085.90049  -7292152.16345  23499953.451    23499962.033
       213.000         153.000
  20423313.239   -28767581.92349 -22384577.91948  20423312.785    20423317.458
       241.000         214.000
 03  3 20  0 30  0.0000000  0  9G14G16G 3G23G 6G17G15G26G18
  23351677.040    -7748341.33149  -5302876.94945  23351674.512    23351684.135
       216.000         155.000
  24158182.422   -10093733.70049  -7845586.58645  24158181.729    24158189.877
       211.000         147.000
  22655162.007   -12355501.22049  -9606401.37646  22655161.358    22655168.582
       227.000         178.000
  21147044.996   -19392399.16049 -15078293.14047  21147044.576    21147050.326
       241.000         206.000
  23874728.531   -10270829.83149  -7983852.98845  23874728.320    23874738.909
       209.000         145.000
  21102748.985     -184967.22849   -133463.99547  21102748.231    21102755.271
       239.000         202.000
  20431913.816   -27916037.55049 -21720674.53547  20431913.291    20431919.324
       244.000         211.000
  23517968.788    -9284413.38949  -7218381.40245  23517970.168    23517975.754
       212.000         153.000
  20425688.099   -28755102.12649 -22374853.39748  20425687.651    20425692.225
       241.000         214.000
 03  3 20  0 30 30.0000000  0  9G14G16G 3G23G 6G17G15G26G18
  23330935.544    -7857337.11249  -5387808.50145  23330933.671    23330942.670
       217.000         155.000
  24169895.808   -10032180.09349  -7797622.87845  24169896.509    24169904.347
       212.000         148.000
  22641627.967   -12426622.90349  -9661820.80646  22641627.917    22641634.095
       228.000         178.000
  21155043.634   -19350365.97849 -15045540.00747  21155043.068    21155049.017
       241.000         206.000
  23895533.539   -10161499.18849  -7898660.42845  23895532.687    23895543.743
       209.000         145.000
  21107925.299     -157765.60649   -112267.93447  21107924.538    21107931.189
       239.000         201.000
  20427937.964   -27936930.64249 -21736954.84647  20427937.263    20427943.422
       244.000         211.000
  23536052.655    -9189382.30449  -7144331.23745  23536053.829    23536060.275
       211.000         152.000
  20428126.464   -28742288.35349 -22364868.63248  20428126.043    20428130.606
       241.000         214.000
 03  3 20  0 31  0.0000000  0  9G14G16G 3G23G 6G17G15G26G18
  23310222.524    -7966183.91349  -5472624.01645  23310221.280    23310228.777
       218.000         155.000
  24181653.198    -9970395.21649  -7749478.95945  24181654.159    24181663.185
       212.000         147.000
  22628169.902   -12497345.18449  -9716929.01146  22628169.274    22628176.105
       227.000         178.000
  21163081.725   -19308125.41849 -15012625.28547  21163081.224    21163087.134
       241.000         206.000
  23916361.384   -10052048.73249  -7813374.51445  23916361.428    23916372.293
       208.000         146.000
  21113151.818     -130300.06049    -90866.21347  21113151.270    21113157.853
       239.000         201.000
  20424011.469   -27957564.51349 -21753033.16647  20424010.672    20424016.743
       244.000         211.000
  23554204.216    -9093995.08249  -7070003.57345  23554204.464    23554212.242
       210.000         152.000
  20430628.184   -28729141.74949 -22354624.51648  20430627.691    20430632.260
       241.000         214.000
 03  3 20  0 31 30.0000000  0  9G14G16G 3G23G 6G17G15G26G18
  23289538.346    -8074879.35349  -5557321.58545  23289537.699    23289546.288
       218.000         155.000
  24193454.055    -9908382.00549  -7701157.11045  24193453.421    24193462.823
       212.000         147.000
  22614788.224   -12567665.95649  -9771724.36046  22614787.648    22614794.133
       227.000         178.000
  21171158.983   -19265679.25549 -14979550.35047  21171158.292    21171164.503
       241.000         206.000
  23937211.521    -9942480.85349  -7727997.12145  23937211.483    23937221.843
       208.000         146.000
  21118428.625     -102570.23949    -69258.56847  21118427.827    21118434.524
       239.000         201.000
  20420134.499   -27977938.12749 -21768908.68947  20420133.846    20420139.970
       244.000         211.000
  23572423.031    -8998254.94749  -6995400.90345  23572422.761    23572430.270
       212.000         152.000
  20433192.991   -28715663.56449 -22344122.02648  20433192.535    20433196.973
       241.000         214.000
 03  3 20  0 32  0.0000000  0  9G14G16G 3G23G 6G17G15G26G18
  23268883.441    -8183420.46249  -5641898.86545  23268883.077    23268890.379
       219.000         156.000
  24205297.801    -9846143.21049  -7652659.48745  24205297.921    24205306.755
       213.000         148.000
  22601483.454   -12637582.52249  -9826204.74246  22601482.679    22601490.057
       227.000         178.000
  21179275.036   -19223028.92849 -14946316.33147  21179274.543    21179280.530
       241.000         206.000
  23958083.628    -9832797.79549  -7642529.97145  23958083.574    23958093.275
       206.000         144.000
  21123755.866      -74575.24349    -47444.28747  21123755.289    21123761.673
       238.000         201.000
  20416307.363   -27998049.82149 -21784580.12347  20416306.515    20416312.646
       244.000         211.000
  23590708.367    -8902164.79949  -6920525.49845  23590708.093    23590715.809
       210.000         152.000
  20435820.687   -28701854.96149 -22333362.06448  20435820.066    20435824.830
       242.000         214.000
 03  3 20  0 32 30.0000000  0  9G14G16G 3G23G 6G17G15G26G18
  23248258.499    -8291804.66349  -5726353.92645  23248257.956    23248265.510
       220.000         157.000
  24217183.843    -9783682.32349  -7603988.79945  24217183.673    24217192.894
       210.000         148.000
  22588255.922   -12707093.24849  -9880368.88246  22588255.056    22588262.100
       227.000         178.000
  21187429.577   -19180176.47349 -14912924.80747  21187429.138    21187434.833
       241.000         206.000
  23978977.165    -9723002.50949  -7556975.37845  23978978.479    23978987.439
       206.000         145.000
  21129133.714      -46314.53749    -25422.96547  21129133.355    21129139.590
       238.000         201.000
  20412530.141   -28017899.23949 -21800047.18547  20412529.460    20412535.536
       244.000         211.000
  23609059.695    -8805728.03149  -6845379.99045  23609059.258    23609067.016
       210.000         151.000
  20438510.937   -28687717.50049 -22322345.85448  20438510.314    20438514.886
       242.000         214.000
 03  3 20  0 33  0.0000000  0  9G14G16G 3G23G 6G17G15G26G18
  23227664.060    -8400028.86549  -5810684.30545  23227662.844    23227670.970
       218.000         156.000
  24229111.693    -9721001.67849  -7555146.86345  24229111.965    24229119.865
       212.000         147.000
  22575106.219   -12776195.33349  -9934214.59946  22575105.889    22575112.971
       227.000         179.000
  21195622.381   -19137123.16549 -14879376.77347  21195621.986    21195627.786
       240.000         206.000
  23999891.673    -9613096.80649  -7471334.74045  23999891.071    23999902.524
       206.000         145.000
  21134562.332      -17787.03149     -3193.74447  21134561.637    21134568.236
       238.000         201.000
  20408803.102   -28037484.91549 -21815308.73147  20408802.440    20408808.270
       244.000         211.000
  23627476.407    -8708947.22449  -6769966.39345  23627476.348    23627483.742
       211.000         151.000
  20441263.547   -28673252.31349 -22311074.26748  20441263.038    20441267.790
       241.000         214.000
 03  3 20  0 33 30.0000000  0  9G14G16G 3G23G 6G17G15G26G18
  23207100.378    -8508090.75749  -5894888.20645  23207099.869    23207107.441
       219.000         157.000
  24241080.603    -9658104.91549  -7506136.54945  24241081.209    24241089.775
       210.000         146.000
  22562034.580   -12844887.06849  -9987740.56746  22562034.039    22562041.226
       228.000         179.000
  21203852.995   -19093871.06149 -14845673.83647  21203852.518    21203858.535
       241.000         206.000
  24020826.666    -9503083.72949  -7385610.44745  24020826.478    24020836.862
       206.000         144.000
  21140041.660       11007.03549     19243.17947  21140041.004    21140047.687
       239.000         201.000
  20405126.371   -28056806.13249 -21830364.20747  20405125.516    20405131.659
       244.000         211.000
  23645958.017    -8611825.78049  -6694287.37045  23645958.164    23645966.162
       211.000         151.000
  20444078.272   -28658460.92849 -22299548.50548  20444077.700    20444082.345
       242.000         214.000
 03  3 20  0 34  0.0000000  0  9G14G16G 3G23G 6G17G15G26G18
  23186568.371    -8615987.12749  -5978963.13245  23186567.144    23186574.861
       220.000         159.000
  24253090.255    -9594994.33149  -7456959.58945  24253089.066    24253100.757
       210.000         145.000
  22549041.535   -12913165.66549 -10040944.60346  22549040.284    22549048.187
       229.000         180.000
  21212121.200   -19050421.22349 -14811816.81847  21212120.614    21212126.528
       241.000         206.000
  24041781.613    -9392965.26449  -7299804.02945  24041781.431    24041790.711
       205.000         143.000
  21145572.076       40069.55549     41889.29647  21145571.485    21145578.230
       239.000         201.000
  20401500.268   -28075861.32049 -21845212.38647  20401499.376    20401505.662
       244.000         211.000
  23664503.920    -8514366.24449  -6618344.91645  23664504.345    23664511.624
       208.000         151.000
  20446954.854   -28643344.23249 -22287769.25448  20446954.238    20446958.847
       242.000         214.000
 03  3 20  0 34 30.0000000  0  9G14G16G 3G23G 6G17G15G26G18
  23166068.241    -8723715.52649  -6062907.18045  23166066.946    23166074.297
       218.000         158.000
  24265139.889    -9531673.25549  -7407618.60245  24265139.583    24265149.225
       210.000         144.000
  22536127.508   -12981029.07449 -10093825.12546  22536127.114    22536134.375
       229.000         180.000
  21220426.716   -19006775.55949 -14777807.21447  21220426.125    21220432.250
       241.000         206.000
  24062756.122    -9282743.96849  -7213917.47845  24062756.201    24062766.422
       205.000         143.000
  21151153.700       69400.92049     64744.89747  21151153.111    21151159.798
       238.000         201.000
  20397924.976   -28094649.58449 -21859852.57747  20397924.141    20397930.187
       244.000         211.000
  23683113.458    -8416572.01649  -6542141.65645  23683113.752    23683120.567
       209.000         149.000
  20449893.075   -28627903.74949 -22275737.69948  20449892.564    20449897.115
       242.000         214.000
 03  3 20  0 35  0.0000000  0  9G14G16G 3G23G 6G17G15G26G18
  23145600.623    -8831272.82949  -6146717.89945  23145599.935    23145607.125
       221.000         159.000
  24277229.079    -9468144.44749  -7358115.77445  24277228.714    24277238.336
       208.000         144.000
  22523292.902   -13048475.00449 -10146380.33246  22523292.759    22523299.360
       228.000         180.000
  21228769.170   -18962935.50649 -14743646.13347  21228768.539    21228774.454
       241.000         206.000
  24083749.859    -9172421.86149  -7127952.40345  24083750.277    24083759.748
       207.000         143.000
  21156786.537       99001.60649     87810.35747  21156786.002    21156792.489
       238.000         201.000
  20394400.704   -28113169.67749 -21874283.80347  20394400.021    20394405.912
       244.000         211.000
  23701786.269    -8318445.95049  -6465679.80645  23701785.815    23701794.732
       210.000         150.000
  20452892.670   -28612140.88049 -22263454.93148  20452892.287    20452896.668
       241.000         214.000
 03  3 20  0 35 30.0000000  0  9G14G16G 3G23G 6G17G15G26G18
  23125165.935    -8938656.95449  -6230393.67945  23125164.852    23125172.685
       219.000         160.000
  24289357.195    -9404411.48549  -7308453.83345  24289356.279    24289366.598
       207.000         143.000
  22510538.089   -13115501.78349 -10198608.93046  22510537.159    22510544.765
       228.000         180.000
  21237148.213   -18918903.44349 -14709335.43447  21237147.619    21237153.535
       241.000         206.000
  24104762.221    -9062002.04649  -7041911.15845  24104762.640    24104772.969
       205.000         142.000
  21162470.631      128871.82149    111085.84147  21162470.217    21162476.584
       238.000         200.000
  20390927.520   -28131421.19649 -21888505.74447  20390926.865    20390932.655
       244.000         211.000
  23720521.569    -8219991.68849  -6388962.23645  23720521.854    23720529.894
       211.000         151.000
  20455953.232   -28596057.33749 -22250922.28748  20455952.629    20455957.282
       242.000         214.000
 03  3 20  0 36  0.0000000  0  9G14G16G 3G23G 6G17G15G26G18
  23104764.763    -9045864.83849  -6313932.11945  23104764.065    23104771.289
       220.000         160.000
  24301523.552    -9340476.62949  -7258634.59945  24301523.925    24301532.558
       209.000         144.000
  22497863.514   -13182106.91749 -10250508.97346  22497863.343    22497869.509
       229.000         181.000
  21245563.575   -18874680.33749 -14674875.87647  21245563.123    21245569.164
       241.000         205.000
  24125792.797    -8951486.34549  -6955795.21145  24125793.201    24125802.821
       205.000         141.000
  21168206.305      159013.05549    134572.50447  21168205.726    21168212.190
       238.000         200.000
  20387505.865   -28149402.22149 -21902516.92047  20387505.004    20387511.388
       244.000         212.000
  23739318.750    -8121211.67449  -6311990.84645  23739318.302    23739327.688
       209.000         151.000
  20459074.682   -28579653.89949 -22238140.37848  20459074.128    20459078.700
       242.000         214.000
 03  3 20  0 36 30.0000000  0  9G14G16G 3G23G 6G17G15G26G18
  23084397.754    -9152893.69849  -6397331.07745  23084397.334    23084405.291
       222.000         161.000
  24313727.787    -9276343.50049  -7208660.86745  24313727.037    24313736.745
       208.000         144.000
  22485269.576   -13248288.56549 -10302079.02246  22485269.062    22485275.755
       229.000         181.000
  21254014.917   -18830268.32149 -14640269.11347  21254014.392    21254020.057
       241.000         205.000
  24146840.982    -8840877.68149  -6869606.84045  24146841.420    24146852.110
       204.000         140.000
  21173993.588      189425.22649    158270.29147  21173993.010    21173999.433
       238.000         200.000
  20384135.761   -28167112.12149 -21916316.82647  20384135.037    20384140.972
       244.000         212.000
  23758177.371    -8022109.27449  -6234768.23345  23758177.526    23758185.489
       210.000         151.000
  20462256.720   -28562932.19349 -22225110.46648  20462256.155    20462260.680
       242.000         214.000
 03  3 20  0 37  0.0000000  0  9G14G16G 3G23G 6G17G15G26G18
  23064065.350    -9259740.60349  -6480588.22445  23064063.461    23064071.673
       220.000         162.000
  24325969.364    -9212014.46149  -7158534.48645  24325969.812    24325979.246
       209.000         144.000
  22472756.712   -13314043.85849 -10353316.85546  22472756.534    22472762.916
       229.000         181.000
  21262501.976   -18785668.50449 -14605516.01447  21262501.397    21262507.395
       241.000         205.000
  24167906.680    -8730177.83649  -6783347.42245  24167906.457    24167918.151
       208.000         141.000
  21179832.655      220109.85449    182180.38147  21179831.768    21179838.553
       238.000         200.000
  20380817.549   -28184549.43249 -21929904.32947  20380816.724    20380822.781
       244.000         212.000
  23777096.841    -7922687.11249  -6157296.43745  23777097.278    23777104.697
       211.000         150.000
  20465499.108   -28545893.19349 -22211833.31148  20465498.590    20465503.125
       241.000         214.000
 03  3 20  0 37 30.0000000  0  9G14G16G 3G23G 6G17G15G26G18
  23043767.897    -9366403.34949  -6563701.87645  23043767.272    23043774.142
       222.000         162.000
  24338247.399    -9147493.26849  -7108258.36645  24338247.542    24338256.658
       211.000         145.000
  22460325.242   -13379371.30949 -10404221.30146  22460324.711    22460330.943
       229.000         181.000
  21271024.329   -18740883.17349 -14570618.35447  21271023.687    21271029.877
       241.000         205.000
  24188988.942    -8619390.05149  -6697019.47945  24188989.601    24189000.012
       205.000         140.000
  21185723.535      251066.68349    206302.57247  21185722.749    21185729.601
       238.000         200.000
  20377551.231   -28201713.85049 -21943279.18847  20377550.515    20377556.517
       244.000         212.000
  23796076.427    -7822949.01049  -6079578.46745  23796076.419    23796085.301
       211.000         149.000
  20468801.488   -28528538.94649 -22198310.51148  20468800.984    20468805.536
       242.000         214.000
 03  3 20  0 38  0.0000000  0  9G14G16G 3G23G 6G17G15G26G18
  23023506.381    -9472878.18249  -6646669.11146  23023505.679    23023513.155
       221.000         163.000
  24350561.702    -9082781.79249  -7057833.97445  24350562.117    24350571.599
       208.000         145.000
  22447975.760   -13444268.08649 -10454790.16046  22447974.820    22447981.327
       230.000         181.000
  21279581.896   -18695912.96449 -14535576.63447  21279581.322    21279587.310
       241.000         205.000
  24210087.821    -8508515.77449  -6610624.12945  24210087.945    24210099.329
       206.000         141.000
  21191666.510      282297.25549    230638.07147  21191666.075    21191672.640
       238.000         200.000
  20374337.293   -28218603.18849 -21956439.69647  20374336.440    20374342.559
       244.000         212.000
  23815115.726    -7722896.92649  -6001615.85945  23815115.399    23815122.492
       211.000         149.000
  20472163.796   -28510869.88249 -22184542.40148  20472163.276    20472167.922
       242.000         214.000
 03  3 20  0 38 30.0000000  0  9G14G16G 3G23G 6G17G15G26G18
  23003280.934    -9579163.23149  -6729488.45446  23003279.851    23003287.469
       221.000         163.000
  24362911.512    -9017883.97449  -7007264.37845  24362911.677    24362921.119
       208.000         145.000
  22435708.530   -13508732.72849 -10505022.29446  22435707.763    22435714.296
       229.000         182.000
  21288174.204   -18650760.16149 -14500392.63447  21288173.434    21288179.596
       241.000         205.000
  24231202.597    -8397558.11549  -6524163.80945  24231202.478    24231213.820
       208.000         141.000
  21197661.568      313801.47749    255186.80347  21197660.755    21197667.691
       238.000         200.000
  20371175.788   -28235216.89849 -21969385.43247  20371175.039    20371181.130
       244.000         212.000
  23834214.100    -7622534.66749  -5923411.53445  23834213.827    23834221.223
       213.000         150.000
  20475585.644   -28492887.84749 -22170530.41748  20475585.107    20475589.662
       242.000         214.000
 03  3 20  0 39  0.0000000  0  9G14G16G 3G23G 6G17G15G26G18
  22983092.070    -9685255.59449  -6812157.64446  22983090.567    22983098.351
       221.000         164.000
  24375296.250    -8952802.40249  -6956551.61045  24375295.594    24375306.312
       208.000         145.000
  22423523.940   -13572762.79749 -10554915.79746  22423523.238    22423530.474
       230.000         182.000
  21296800.952   -18605426.07049 -14465067.36847  21296800.622    21296806.348
       241.000         205.000
  24252332.812    -8286519.10649  -6437640.10645  24252332.839    24252343.075
       208.000         141.000
  21203708.959      345580.69949    279949.81747  21203708.408    21203715.060
       238.000         199.000
  20368066.984   -28251553.65949 -21982115.36447  20368066.311    20368072.351
       244.000         212.000
  23853370.988    -7521864.99749  -5844967.65445  23853370.385    23853378.355
       212.000         149.000
  20479066.867   -28474594.00549 -22156275.46548  20479066.327    20479070.908
       242.000         214.000
 03  3 20  0 39 30.0000000  0  9G14G16G 3G23G 6G17G15G26G18
  22962940.536    -9791152.25049  -6894674.34346  22962939.088    22962946.473
       221.000         165.000
  24387715.263    -8887540.05949  -6905697.96345  24387715.216    24387725.029
       206.000         144.000
  22411422.421   -13636356.38449 -10604469.18146  22411421.726    22411428.727
       230.000         182.000
  21305461.941   -18559912.41749 -14429602.18047  21305461.266    21305467.362
       240.000         205.000
  24273477.968    -8175401.30849  -6351054.99745  24273479.150    24273488.748
       209.000         140.000
  21209808.799      377635.53849    304927.60247  21209808.135    21209814.790
       238.000         199.000
  20365011.104   -28267612.44949 -21994628.69347  20365010.377    20365016.427
       244.000         212.000
  23872585.692    -7420891.22949  -5766286.83545  23872584.953    23872593.683
       209.000         148.000
  20482607.125   -28455989.75549 -22141778.63748  20482606.577    20482611.185
       242.000         214.000
 03  3 20  0 40  0.0000000  0  9G14G16G 3G23G 6G17G15G26G18
  22942826.650    -9896850.60349  -6977036.51846  22942826.102    22942832.360
       223.000         165.000
  24400168.222    -8822099.91049  -6854705.76345  24400167.965    24400177.068
       208.000         143.000
  22399404.482   -13699511.11349 -10653680.60446  22399404.005    22399410.616
       230.000         183.000
  21314156.810   -18514220.75249 -14393998.29047  21314156.297    21314162.169
       241.000         205.000
  24294637.750    -8064207.04849  -6264410.30145  24294637.572    24294647.765
       210.000         140.000
  21215961.191      409966.52049    330120.56647  21215960.416    21215967.307
       237.000         199.000
  20362008.287   -28283392.16249 -22006924.56047  20362007.536    20362013.486
       244.000         212.000
  23891857.650    -7319615.96849  -5687371.07545  23891858.820    23891865.922
       211.000         147.000
  20486206.224   -28437076.40149 -22127040.95248  20486205.855    20486210.329
       242.000         214.000
 03  3 20  0 40 30.0000000  0  9G14G16G 3G23G 6G17G15G26G18
  22922751.048   -10002347.75649  -7059241.91346  22922750.140    22922756.931
       222.000         166.000
  24412654.534    -8756484.85749  -6803577.28145  24412654.741    24412663.592
       207.000         142.000
  22387470.460   -13762224.86249 -10702548.40446  22387469.957    22387476.660
       230.000         184.000
  21322885.295   -18468352.36249 -14358256.68347  21322884.784    21322890.732
       240.000         205.000
  24315811.543    -7952938.62749  -6177707.81145  24315811.824    24315822.100
       208.000         141.000
  21222166.251      442574.35249    355529.24647  21222165.551    21222172.185
       237.000         199.000
  20359058.870   -28298891.48449 -22019001.93847  20359058.177    20359064.273
       245.000         212.000
  23911186.471    -7218042.37849  -5608222.84945  23911186.860    23911193.645
       212.000         149.000
  20489863.896   -28417855.24749 -22112063.42048  20489863.443    20489867.717
       242.000         214.000
 03  3 20  0 41  0.0000000  0  9G14G16G 3G23G 6G17G15G26G18
  22902714.196   -10107641.44449  -7141288.77146  22902713.541    22902719.938
       222.000         166.000
  24425173.352    -8690698.12449  -6752315.01945  24425172.125    24425182.275
       207.000         141.000
  22375620.613   -13824495.90549 -10751071.23846  22375620.330    22375626.987
       231.000         184.000
  21331647.023   -18422309.13949 -14322378.84447  21331646.608    21331652.225
       240.000         205.000
  24336999.030    -7841598.65949  -6090949.59945  24336998.906    24337009.844
       207.000         141.000
  21228424.041      475459.24749    381153.83447  21228423.178    21228430.264
       237.000         199.000
  20356162.943   -28314109.61149 -22030860.20747  20356162.152    20356168.188
       245.000         212.000
  23930571.490    -7116173.70049  -5528844.68645  23930570.691    23930579.004
       210.000         148.000
  20493579.811   -28398327.92549 -22096847.32148  20493579.280    20493583.828
       242.000         214.000
 03  3 20  0 41 30.0000000  0  9G14G16G 3G23G 6G17G15G26G18
  22882716.724   -10212728.44349  -7223174.58146  22882716.035    22882722.433
       224.000         167.000
  24437724.351    -8624742.86649  -6700921.44645  24437725.904    24437733.979
       205.000         141.000
  22363855.456   -13886322.19849 -10799247.52746  22363855.245    22363861.173
       231.000         184.000
  21340441.705   -18376092.62649 -14286365.97347  21340441.080    21340447.101
       240.000         204.000
  24358199.587    -7730189.62349  -6004137.57345  24358200.289    24358210.252
       209.000         140.000
  21234734.733      508622.03249    406994.95247  21234733.990    21234740.786
       237.000         199.000
  20353320.774   -28329045.35149 -22042498.43547  20353320.060    20353326.014
       245.000         212.000
  23950012.068    -7014013.04049  -5449239.00945  23950011.662    23950020.532
       212.000         145.000
  20497353.700   -28378495.83649 -22081393.73548  20497353.098    20497357.805
       242.000         214.000
 03  3 20  0 42  0.0000000  0  9G14G16G 3G23G 6G17G15G26G18
  22862758.997   -10317606.24949  -7304897.38546  22862757.412    22862764.995
       222.000         167.000
  24450306.859    -8558621.58349  -6649398.49245  24450307.354    24450315.778
       205.000         141.000
  22352175.341   -13947701.35449 -10847075.39046  22352174.612    22352181.225
       231.000         184.000
  21349269.130   -18329704.12649 -14250219.08747  21349268.409    21349274.519
       240.000         204.000
  24379412.969    -7618713.49749  -5917273.23645  24379412.284    24379424.272
       208.000         140.000
  21241098.502      542063.63449    433053.33147  21241097.894    21241104.440
       237.000         198.000
  20350532.566   -28343697.35949 -22053915.57047  20350531.870    20350537.835
       245.000         212.000
  23969507.647    -6911563.37149  -5369408.11545  23969508.065    23969514.679
       212.000         145.000
  20501185.436   -28358359.96549 -22065703.43948  20501184.865    20501189.524
       242.000         213.000
 03  3 20  0 42 30.0000000  0 10G14G 9G16G 3G23G 6G17G15G26G18
  22842841.558   -10422272.20649  -7386455.12046  22842841.450    22842847.086
       224.000         168.000
  24433087.157    -9061463.07659  -7046034.12945  24433085.957    24433096.739
       206.000         139.000
  24462920.348    -8492337.65949  -6597748.80745  24462920.283    24462928.418
       204.000         140.000
  22340580.673   -14008631.55549 -10894553.41746  22340580.228    22340586.099
       231.000         185.000
  21358128.953   -18283145.49849 -14213939.63847  21358128.415    21358134.362
       240.000         204.000
  24400638.533    -7507173.08949  -5830358.80245  24400637.800    24400649.352
       207.000         137.000
  21247515.412      575784.65949    459329.44747  21247514.712    21247521.525
       238.000         198.000
  20347798.512   -28358064.87349 -22065111.01947  20347797.643    20347803.826
       246.000         212.000
  23989057.539    -6808827.67249  -5289354.33445  23989057.921    23989064.595
       212.000         147.000
  20505074.654   -28337922.00449 -22049777.74648  20505074.133    20505078.831
       242.000         213.000
 03  3 20  0 43  0.0000000  0 10G14G 9G16G 3G23G 6G17G15G26G18
  22822965.019   -10526723.61749  -7467845.67046  22822964.401    22822971.242
       224.000         168.000
  24421234.018    -9123750.89049  -7094569.90045  24421234.681    24421242.141
       208.000         139.000
  24475564.183    -8425894.16749  -6545974.79145  24475564.449    24475574.162
       206.000         140.000
  22329071.799   -14069110.91549 -10941680.14446  22329071.525    22329077.993
       231.000         185.000
  21367020.818   -18236418.34249 -14177528.87247  21367020.080    21367026.535
       240.000         204.000
  24421875.891    -7395570.74149  -5743396.12145  24421875.757    24421885.947
       203.000         136.000
  21253985.497      609785.21049    485823.37647  21253984.802    21253991.314
       237.000         198.000
  20345118.841   -28372146.65149 -22076083.81647  20345118.098    20345124.147
       245.000         212.000
  24008661.419    -6705809.05249  -5209080.12645  24008661.500    24008669.772
       212.000         147.000
  20509021.107   -28317183.05249 -22033617.52148  20509020.690    20509025.056
       242.000         214.000
 03  3 20  0 43 30.0000000  0 10G14G 9G16G 3G23G 6G17G15G26G18
  22803129.760   -10630958.07449  -7549067.18646  22803128.663    22803135.361
       225.000         169.000
  24409430.289    -9185779.62949  -7142903.81545  24409429.334    24409440.181
       207.000         139.000
  24488237.785    -8359294.43549  -6494079.02345  24488238.295    24488246.400
       209.000         140.000
  22317649.035   -14129137.69249 -10988454.20346  22317648.533    22317655.048
       231.000         185.000
  21375944.433   -18189524.48349 -14140988.20147  21375943.792    21375949.721
       240.000         204.000
  24443124.401    -7283909.20649  -5656387.32345  24443123.907    24443136.234
       205.000         136.000
  21260508.984      644066.25649    512535.87747  21260508.616    21260515.012
       237.000         198.000
  20342493.674   -28385941.88849 -22086833.33047  20342492.875    20342498.915
       245.000         212.000
  24028318.442    -6602511.04549  -5128588.21345  24028319.251    24028326.118
       213.000         147.000
  20513024.506   -28296144.98849 -22017224.21448  20513023.999    20513028.578
       242.000         213.000
 03  3 20  0 44  0.0000000  0 10G14G 9G16G 3G23G 6G17G15G26G18
  22783336.433   -10734971.93049  -7630116.80546  22783334.536    22783342.677
       224.000         169.000
  24397676.534    -9247545.27949  -7191032.71545  24397675.251    24397685.360
       206.000         139.000
  24500940.749    -8292540.68849  -6442063.24145  24500941.221    24500951.015
       208.000         141.000
  22306312.913   -14188709.14449 -11034873.46546  22306312.721    22306318.850
       230.000         185.000
  21384899.678   -18142464.48749 -14104318.07647  21384899.072    21384905.206
       241.000         203.000
  24464383.935    -7172190.11449  -5569333.70345  24464382.880    24464395.140
       204.000         137.000
  21267086.103      678629.14049    539467.98547  21267085.463    21267092.054
       237.000         198.000
  20339923.408   -28399448.69349 -22097358.09747  20339922.754    20339928.676
       245.000         212.000
  24048028.221    -6498935.70549  -5047880.16645  24048028.926    24048035.455
       213.000         146.000
  20517084.691   -28274808.50349 -22000598.37148  20517084.118    20517088.754
       242.000         213.000
 03  3 20  0 44 30.0000000  0 11G14G 9G16G 3G31G23G 6G17G15G26G18
  22763585.132   -10838764.72049  -7710994.17146  22763584.119    22763590.598
       224.000         169.000
  24385973.081    -9309046.92249  -7238955.89545  24385972.582    24385982.200
       207.000         140.000
  24513672.154    -8225637.95149  -6389931.36645  24513671.908    24513682.056
       208.000         142.000
  22295063.451   -14247825.30449 -11080937.95746  22295062.739    22295069.818
       231.000         185.000
  24416026.341    -3993705.28259  -2768042.68445  24416025.997    24416033.977
       205.000         138.000
  21393885.779   -18095242.13449 -14067521.43547  21393885.112    21393891.063
       240.000         203.000
  24485653.595    -7060417.89749  -5482238.66545  24485652.555    24485665.397
       202.000         136.000
  21273716.444      713471.84549    566618.14147  21273715.853    21273722.625
       237.000         198.000
  20337407.814   -28412668.14549 -22107658.95147  20337407.016    20337413.059
       245.000         212.000
  24067789.811    -6395088.23849  -4966960.06645  24067789.266    24067796.277
       214.000         146.000
  20521201.082   -28253176.68849 -21983742.40148  20521200.628    20521205.152
       242.000         213.000
 03  3 20  0 45  0.0000000  0 11G14G 9G16G 3G31G23G 6G17G15G26G18
  22743876.541   -10942333.31249  -7791696.84146  22743875.702    22743883.020
       225.000         169.000
  24374320.448    -9370280.82049  -7286670.44945  24374319.350    24374329.691
       207.000         140.000
  24526431.361    -8158588.78349  -6337685.40345  24526432.004    24526440.794
       210.000         142.000
  22283901.073   -14306483.71349 -11126645.76846  22283900.477    22283906.955
       231.000         185.000
  24398071.695    -4088056.64449  -2841563.12145  24398071.097    24398079.144
       207.000         139.000
  21402902.561   -18047858.62949 -14030599.22447  21402901.849    21402907.903
       240.000         203.000
  24506932.936    -6948594.61249  -5395103.81245  24506932.574    24506944.347
       205.000         134.000
  21280400.254      748595.57449    593987.27347  21280399.666    21280406.417
       237.000         197.000
  20334947.172   -28425598.84749 -22117734.80647  20334946.320    20334952.322
       245.000         212.000
  24087602.594    -6290971.37449  -4885830.06245  24087603.329    24087610.807
       213.000         146.000
  20525373.435   -28231250.75649 -21966657.25148  20525372.900    20525377.410
       242.000         213.000
 03  3 20  0 45 30.0000000  0 11G14G 9G16G 3G31G23G 6G17G15G26G18
  22724211.724   -11045672.00749  -7872220.37646  22724211.236    22724217.260
       227.000         170.000
  24362720.021    -9431240.81149  -7334171.57245  24362719.570    24362728.088
       208.000         140.000
  24539218.432    -8091393.11149  -6285325.28545  24539218.303    24539227.518
       208.000         142.000
  22272826.749   -14364679.58049 -11171993.14046  22272825.873    22272832.354
       231.000         185.000
  24380168.435    -4182138.86249  -2914873.84545  24380167.281    24380175.379
       208.000         140.000
  21411950.284   -18000312.49349 -13993550.28347  21411949.586    21411955.657
       240.000         203.000
  24528222.084    -6836719.56149  -5307928.62944  24528223.294    24528233.666
       203.000         131.000
  21287138.246      784004.02149    621578.26647  21287137.262    21287144.244
       236.000         197.000
  20332542.289   -28438236.46949 -22127582.28247  20332541.504    20332547.440
       245.000         212.000
  24107466.657    -6186585.13149  -4804490.16245  24107466.438    24107474.149
       214.000         146.000
  20529602.073   -28209029.08049 -21949341.64548  20529601.503    20529605.934
       242.000         213.000
 03  3 20  0 46  0.0000000  0 10G14G 9G16G 3G31G23G17G15G26G18
  22704591.267   -11148778.18949  -7952562.73746  22704590.989    22704597.489
       225.000         171.000
  24351172.186    -9491924.13149  -7381457.11845  24351171.445    24351181.095
       207.000         140.000
  24552032.743    -8024054.39649  -6232853.69345  24552033.351    24552042.768
       208.000         142.000
  22261840.761   -14422410.78849 -11216978.44846  22261840.578    22261847.040
       231.000         185.000
  24362316.746    -4275949.37149  -2987972.82845  24362316.050    24362324.715
       207.000         141.000
  21421028.606   -17952605.43849 -13956375.95547  21421027.781    21421033.892
       240.000         203.000
  21293930.539      819697.64949    649391.47547  21293930.049    21293936.486
       236.000         197.000
  20330193.343   -28450580.12649 -22137200.69747  20330192.421    20330198.619
       246.000         212.000
  24127381.321    -6081932.78249  -4722942.90145  24127381.471    24127388.695
       213.000         145.000
  20533886.719   -28186513.11949 -21931796.72948  20533886.226    20533890.764
       242.000         213.000
 03  3 20  0 46 30.0000000  0 10G14G 9G16G 3G31G23G17G15G26G18
  22685015.411   -11251649.60249  -8032722.16746  22685014.661    22685021.319
       226.000         171.000
  24339677.569    -9552328.05249  -7428524.94745  24339677.372    24339685.925
       207.000         139.000
  24564873.642    -7956575.74749  -6180273.08445  24564872.712    24564883.381
       206.000         141.000
  22250943.453   -14479676.06749 -11261600.69846  22250943.093    22250948.787
       231.000         186.000
  24344517.173    -4369486.05249  -3060858.45245  24344516.112    24344524.860
       207.000         142.000
  21430137.195   -17904739.43349 -13919077.77047  21430136.555    21430142.721
       239.000         202.000
  21300777.161      855676.89749    677427.24747  21300776.469    21300783.149
       236.000         197.000
  20327900.460   -28462629.20049 -22146589.57047  20327899.608    20327905.703
       245.000         212.000
  24147346.009    -5977017.68949  -4641190.89345  24147346.720    24147353.678
       213.000         143.000
  20538226.994   -28163704.65749 -21914023.89348  20538226.502    20538231.059
       242.000         213.000
 03  3 20  0 47  0.0000000  0 10G14G 9G16G 3G31G23G17G15G26G18
  22665484.461   -11354284.53849  -8112697.32246  22665483.572    22665490.350
       226.000         171.000
  24328236.433    -9612450.64449  -7475373.55945  24328234.953    24328245.327
       207.000         139.000
  24577740.238    -7888961.30749  -6127586.66445  24577740.075    24577750.192
       207.000         141.000
  22240135.014   -14536474.66049 -11305859.28146  22240134.735    22240140.843
       232.000         186.000
  24326770.117    -4462747.23749  -3133529.41045  24326769.148    24326776.663
       208.000         142.000
  21439275.533   -17856717.01549 -13881657.69847  21439274.889    21439281.108
       240.000         202.000
  21307678.072      891941.34249    705685.25547  21307677.452    21307684.001
       236.000         197.000
  20325663.658   -28474383.49049 -22155748.73647  20325662.886    20325668.872
       245.000         212.000
  24167359.920    -5871843.94049  -4559237.33045  24167358.706    24167368.561
       210.000         141.000
  20542622.522   -28140606.07349 -21896024.97848  20542621.999    20542626.382
       242.000         213.000
 03  3 20  0 47 30.0000000  0 10G14G 9G16G 3G31G23G17G15G26G18
  22645999.043   -11456680.32749  -8192486.13946  22645998.501    22646005.097
       226.000         172.000
  24316849.534    -9672288.91249  -7522000.62645  24316849.196    24316858.252
       210.000         141.000
  24590632.286    -7821214.09649  -6074796.78745  24590632.200    24590642.082
       206.000         142.000
  22229415.781   -14592804.53449 -11349752.63746  22229414.936    22229421.471
       231.000         186.000
  24309075.992    -4555730.43349  -3205983.73845  24309075.427    24309083.885
       207.000         143.000
  21448443.401   -17808539.67649 -13844116.91247  21448442.692    21448448.978
       239.000         202.000
  21314633.218      928490.97949    734165.49147  21314632.637    21314639.339
       235.000         196.000
  20323483.180   -28485842.01249 -22164677.44047  20323482.436    20323488.377
       246.000         212.000
  24187422.444    -5766414.61349  -4477084.63045  24187421.866    24187429.737
       209.000         140.000
  20547072.931   -28117218.92949 -21877801.21848  20547072.448    20547076.946
       242.000         213.000
 03  3 20  0 48  0.0000000  0 10G14G 9G16G 3G31G23G17G15G26G18
  22626559.722   -11558834.75249  -8272086.88746  22626558.190    22626565.103
       227.000         172.000
  24305517.250    -9731839.96249  -7568403.90045  24305515.542    24305526.421
       206.000         140.000
  24603548.959    -7753337.48749  -6021906.09745  24603548.878    24603558.727
       206.000         141.000
  22218786.035   -14648664.12049 -11393279.53146  22218785.315    22218791.805
       232.000         187.000
  24291435.045    -4648433.36849  -3278219.68745  24291433.900    24291441.607
       206.000         142.000
  21457640.322   -17760209.30449 -13806456.87647  21457639.935    21457645.722
       239.000         202.000
  21321642.772      965326.59349    762868.56447  21321642.234    21321648.822
       236.000         196.000
  20321359.125   -28497003.78749 -22173374.90847  20321358.346    20321364.410
       245.000         212.000
  24207532.940    -5660733.10049  -4394735.43645  24207532.244    24207542.251
       207.000         140.000
  20551577.930   -28093544.85049 -21859353.87248  20551577.399    20551581.982
       242.000         213.000
 03  3 20  0 48 30.0000000  0 10G14G 9G16G 3G31G23G17G15G26G18
  22607166.857   -11660744.91849  -8351497.31246  22607165.695    22607172.131
       226.000         172.000
  24294240.295    -9791100.27349  -7614580.59445  24294239.748    24294249.520
       208.000         140.000
  24616489.635    -7685334.13849  -5968916.64445  24616488.849    24616498.692
       205.000         140.000
  22208246.203   -14704051.07349 -11436438.14546  22208245.272    22208251.824
       231.000         187.000
  24273848.162    -4740852.94949  -3350234.82945  24273849.334    24273854.973
       208.000         143.000
  21466866.230   -17711726.85949 -13768678.34047  21466865.718    21466871.574
       239.000         202.000
  21328706.960     1002448.94349    791795.07347  21328706.484    21328713.128
       236.000         196.000
  20319291.892   -28507867.27649 -22181839.94947  20319291.217    20319297.125
       245.000         212.000
  24227690.907    -5554802.03949  -4312191.78845  24227690.919    24227699.451
       209.000         141.000
  20556137.382   -28069584.76449 -21840683.66348  20556136.853    20556141.283
       242.000         213.000
 03  3 20  0 49  0.0000000  0 10G14G 9G16G 3G31G23G17G15G26G18
  22587820.942   -11762407.75949  -8430714.99946  22587820.297    22587826.560
       226.000         173.000
  24283019.282    -9850066.46449  -7660528.12745  24283018.666    24283027.605
       208.000         140.000
  24629453.884    -7617207.13249  -5915830.85845  24629454.483    24629463.460
       205.000         139.000
  22197796.647   -14758963.64349 -11479227.11746  22197796.365    22197802.378
       231.000         187.000
  24256315.701    -4832986.38949  -3422026.98945  24256314.653    24256323.176
       206.000         143.000
  21476120.816   -17663093.75649 -13730782.41747  21476120.161    21476126.019
       238.000         201.000
  21335825.733     1039858.53249    820945.39447  21335825.026    21335831.759
       235.000         196.000
  20317281.538   -28518431.57549 -22190071.85947  20317280.779    20317286.778
       246.000         212.000
  24247895.826    -5448624.41249  -4229455.98445  24247897.290    24247903.280
       208.000         140.000
  20560751.003   -28045339.97349 -21821791.60748  20560750.509    20560754.886
       242.000         213.000
 03  3 20  0 49 30.0000000  0 10G14G 9G16G 3G31G23G17G15G26G18
  22568522.612   -11863820.59149  -8509737.86846  22568522.267    22568527.531
       226.000         173.000
  24271854.790    -9908735.88749  -7706244.42645  24271854.485    24271864.126
       209.000         140.000
  24642441.041    -7548959.27949  -5862650.90245  24642439.724    24642452.498
       205.000         138.000
  22187437.629   -14813400.23949 -11521645.18646  22187437.367    22187443.938
       231.000         187.000
  24238838.099    -4924831.45849  -3493594.42845  24238837.082    24238844.589
       205.000         143.000
  21485403.759   -17614311.65549 -13692770.37847  21485403.145    21485409.086
       239.000         201.000
  21342999.276     1077555.87949    850319.94947  21342998.789    21343005.572
       235.000         196.000
  20315328.322   -28528695.74349 -22198069.89447  20315327.721    20315333.426
       246.000         212.000
  24268147.130    -5342203.33149  -4146530.47545  24268147.251    24268154.966
       209.000         138.000
  20565418.495   -28020812.03049 -21802678.90948  20565418.007    20565422.551
       242.000         213.000
 03  3 20  0 50  0.0000000  0 10G14G 9G16G 3G31G23G17G15G26G18
  22549272.230   -11964981.19349  -8588564.19746  22549271.574    22549277.986
       227.000         173.000
  24260747.282    -9967105.51649  -7751727.11745  24260747.354    24260756.699
       205.000         139.000
  24655450.550    -7480593.94649  -5809379.39445  24655451.106    24655461.193
       206.000         140.000
  22177169.585   -14867358.93149 -11563690.87446  22177168.965    22177175.174
       231.000         187.000
  24221415.859    -5016385.36849  -3564935.01045  24221414.943    24221423.343
       204.000         143.000
  21494714.778   -17565381.98449 -13654643.36047  21494714.219    21494720.263
       239.000         201.000
  21350227.772     1115541.74249    879919.31647  21350227.325    21350234.012
       236.000         196.000
  20313432.424   -28538658.71149 -22205833.22747  20313431.534    20313437.574
       246.000         212.000
  24288444.154    -5235541.91849  -4063417.70345  24288443.950    24288451.587
       209.000         137.000
  20570139.629   -27996002.32749 -21783346.65748  20570139.109    20570143.671
       241.000         213.000
 03  3 20  0 50 30.0000000  0 10G14G 9G16G 3G31G23G17G15G26G18
  22530070.540   -12065886.24249  -8667191.39346  22530069.597    22530076.423
       227.000         174.000
  24249697.480   -10025171.85449  -7796973.46745  24249696.884    24249705.605
       207.000         139.000
  24668482.033    -7412113.79249  -5756018.41445  24668482.005    24668492.555
       208.000         139.000
  22166992.883   -14920837.65649 -11605362.55946  22166992.450    22166998.601
       232.000         187.000
  24204049.506    -5107645.44249  -3636046.61045  24204047.876    24204056.783
       206.000         144.000
  21504053.628   -17516305.99349 -13616402.32247  21504052.904    21504058.743
       239.000         201.000
  21357511.319     1153817.00049    909744.17947  21357510.483    21357517.198
       235.000         196.000
  20311594.194   -28548318.77849 -22213360.53647  20311593.536    20311599.359
       246.000         212.000
  24308786.430    -5128642.82549  -3980119.71745  24308786.397    24308793.824
       210.000         137.000
  20574914.177   -27970911.81049 -21763795.59448  20574913.724    20574918.188
       242.000         213.000
 03  3 20  0 51  0.0000000  0 10G14G 9G16G 3G31G23G17G15G26G18
  22510918.012   -12166533.28349  -8745617.53946  22510917.116    22510923.831
       227.000         174.000
  24238705.928   -10082931.80249  -7841981.07945  24238704.334    24238713.263
       204.000         139.000
  24681534.908    -7343521.54049  -5702570.09345  24681534.789    24681544.990
       209.000         140.000
  22156907.924   -14973834.37549 -11646658.65946  22156907.372    22156913.743
       231.000         187.000
  24186739.601    -5198608.81749  -3706927.03545  24186738.399    24186746.555
       205.000         144.000
  21513420.002   -17467085.18849 -13578048.44047  21513419.320    21513425.416
       239.000         201.000
  21364849.962     1192381.79149    939794.64747  21364849.373    21364856.275
       235.000         195.000
  20309813.784   -28557674.87949 -22220650.98247  20309812.949    20309818.964
       246.000         212.000
  24329173.368    -5021509.09449  -3896638.89145  24329174.353    24329181.180
       210.000         137.000
  20579741.909   -27945541.93849 -21744026.84548  20579741.312    20579745.745
       242.000         213.000
 03  3 20  0 51 30.0000000  0  9G14G 9G 3G31G23G17G15G26G18
  22491815.390   -12266917.74249  -8823839.07746  22491814.851    22491821.049
       227.000         174.000
  24227773.670   -10140380.65249  -7886746.25945  24227772.402    24227781.824
       206.000         139.000
  22146915.324   -15026345.61149 -11687576.46046  22146915.110    22146920.956
       232.000         187.000
  24169486.976    -5289271.22349  -3777572.93745  24169486.573    24169494.349
       206.000         145.000
  21522814.028   -17417719.16649 -13539581.40847  21522813.376    21522819.442
       238.000         201.000
  21372244.206     1231238.73849    970072.77447  21372243.604    21372250.159
       235.000         195.000
  20308091.755   -28566724.08849 -22227702.29847  20308091.031    20308096.913
       245.000         212.000
  24349604.671    -4914141.99649  -3812976.22545  24349604.340    24349611.815
       207.000         136.000
  20584622.873   -27919892.13849 -21724039.97648  20584622.502    20584626.951
       242.000         213.000
 03  3 20  0 52  0.0000000  0  9G14G 9G 3G31G23G17G15G26G18
  22472763.305   -12367036.52649  -8901853.59246  22472762.200    22472769.730
       228.000         174.000
  24216901.349   -10197514.84749  -7931266.26545  24216899.200    24216910.267
       207.000         139.000
  22137015.430   -15078369.43549 -11728114.46046  22137014.854    22137020.997
       231.000         187.000
  24152292.327    -5379629.62649  -3847981.97145  24152291.047    24152300.007
       206.000         144.000
  21532235.489   -17368209.04249 -13501002.08147  21532234.774    21532240.877
       238.000         201.000
  21379694.175     1270388.73249   1000579.24847  21379693.476    21379700.675
       235.000         195.000
  20306428.397   -28575465.07949 -22234513.43747  20306427.663    20306433.471
       246.000         212.000
  24370079.885    -4806544.08349  -3729133.69045  24370080.524    24370086.216
       206.000         133.000
  20589556.935   -27893963.54849 -21703835.86348  20589556.367    20589560.992
       242.000         213.000
 03  3 20  0 52 30.0000000  0  9G14G 9G 3G31G23G17G15G26G18
  22453761.384   -12466891.50349  -8979662.53646  22453760.545    22453767.322
       228.000         175.000
  24206088.608   -10254335.80049  -7975542.18945  24206088.444    24206096.874
       206.000         141.000
  22127207.859   -15129908.16549 -11768274.46847  22127207.473    22127213.632
       232.000         188.000
  24135155.044    -5469685.91349  -3918155.60945  24135153.711    24135161.630
       206.000         145.000
  21541683.291   -17318560.50349 -13462314.89947  21541682.344    21541688.823
       239.000         200.000
  21387199.284     1309828.35049   1031311.40247  21387198.451    21387205.863
       235.000         195.000
  20304823.057   -28583901.07849 -22241086.91947  20304822.184    20304828.269
       246.000         212.000
  24390597.620    -4698722.80549  -3645117.11944  24390595.622    24390605.947
       205.000         131.000
  20594542.883   -27867762.09749 -21683419.13148  20594542.275    20594546.828
       243.000         213.000
 03  3 20  0 53  0.0000000  0  9G14G 9G 3G31G23G17G15G26G18
  22434810.277   -12566479.63849  -9057263.55346  22434809.285    22434816.625
       227.000         175.000
  24195336.022   -10310840.04449  -8019571.29445  24195334.738    24195344.593
       206.000         141.000
  22117492.958   -15180960.04749 -11808055.11247  22117492.728    22117498.379
       232.000         188.000
  24118075.874    -5559436.99649  -3988091.43345  24118075.584    24118083.400
       209.000         145.000
  21551157.206   -17268774.63349 -13423520.72047  21551156.745    21551162.517
       238.000         200.000
  21394759.590     1349557.96649   1062269.52847  21394759.126    21394765.608
       235.000         194.000
  20303276.037   -28592030.44749 -22247421.47947  20303275.165    20303281.272
       245.000         212.000
  24411157.222    -4590680.73349  -3560928.49744  24411158.357    24411163.914
       204.000         131.000
  20599580.643   -27841288.51049 -21662790.35448  20599580.018    20599584.741
       243.000         213.000
 03  3 20  0 53 30.0000000  0  8G14G 9G 3G31G23G17G15G18
  22415910.712   -12665797.07949  -9134653.64246  22415909.918    22415915.918
       228.000         175.000
  24184644.580   -10367023.47349  -8063350.43445  24184644.079    24184652.954
       208.000         143.000
  22107871.303   -15231521.97949 -11847453.98947  22107870.919    22107877.025
       233.000         188.000
  24101055.529    -5648879.24649  -4057786.61345  24101055.077    24101062.510
       205.000         146.000
  21560657.196   -17218851.86149 -13384619.85947  21560656.688    21560662.436
       238.000         200.000
  21402375.442     1389579.39949   1093455.04447  21402374.754    21402381.763
       235.000         194.000
  20301787.766   -28599851.20149 -22253515.55447  20301786.965    20301793.183
       245.000         212.000
  20604670.113   -27814543.02249 -21641949.70248  20604669.414    20604674.213
       242.000         213.000
 03  3 20  0 54  0.0000000  0  8G14G 9G 3G31G23G17G15G18
  22397063.159   -12764840.87149  -9211830.49046  22397062.566    22397069.139
       228.000         176.000
  24174014.776   -10422882.75449  -8106876.99145  24174014.098    24174023.532
       207.000         145.000
  22098343.321   -15281591.77949 -11886469.38147  22098342.436    22098349.330
       233.000         189.000
  24084094.456    -5738009.71949  -4127238.83945  24084093.929    24084102.055
       207.000         146.000
  21570183.046   -17168793.15749 -13345613.07947  21570182.473    21570188.338
       238.000         200.000
  21410046.967     1429893.40449   1124868.54447  21410046.443    21410053.113
       235.000         194.000
  20300358.569   -28607361.66949 -22259367.84447  20300357.765    20300363.776
       246.000         212.000
  20609811.108   -27787526.82249 -21620898.10748  20609810.645    20609815.196
       242.000         213.000
 03  3 20  0 54 30.0000000  0  8G14G 9G 3G31G23G17G15G18
  22378268.248   -12863608.35049  -9288792.05246  22378267.858    22378274.069
       228.000         176.000
  24163447.212   -10478414.98549  -8150148.68945  24163446.624    24163455.116
       207.000         144.000
  22088909.281   -15331167.85449 -11925100.06147  22088908.687    22088915.267
       233.000         189.000
  24067193.320    -5826825.70549  -4196446.03245  24067192.979    24067200.342
       206.000         147.000
  21579734.505   -17118599.96349 -13306501.50547  21579733.771    21579739.927
       239.000         200.000
  21417774.294     1470500.68449   1156510.57347  21417773.714    21417780.230
       235.000         194.000
  20298988.608   -28614560.76249 -22264977.50747  20298987.803    20298993.697
       246.000         212.000
  20615003.409   -27760241.15949 -21599636.54247  20615002.811    20615007.377
       242.000         212.000
 03  3 20  0 55  0.0000000  0  8G14G 9G 3G31G23G17G15G18
  22359526.541   -12962096.64849  -9365536.05946  22359525.583    22359532.552
       228.000         176.000
  24152942.550   -10533616.84749  -8193162.95445  24152941.926    24152950.687
       209.000         144.000
  22079569.583   -15380248.08549 -11963344.36647  22079569.312    22079575.432
       232.000         189.000
  24050352.489    -5915324.37949  -4265405.94945  24050352.378    24050359.918
       206.000         146.000
  21589311.396   -17068273.32749 -13267285.95147  21589310.881    21589316.899
       238.000         200.000
  21425557.587     1511402.20449   1188381.87847  21425557.195    21425564.062
       234.000         194.000
  20297678.180   -28621447.09549 -22270343.46047  20297677.380    20297683.386
       246.000         212.000
  20620246.778   -27732687.00949 -21578165.76848  20620246.301    20620250.818
       243.000         213.000
 03  3 20  0 55 30.0000000  0  8G14G 9G 3G31G23G17G15G18
  22340838.376   -13060303.18149  -9442060.52446  22340838.289    22340844.354
       229.000         177.000
  24142501.388   -10588485.28449  -8235917.44345  24142501.294    24142509.090
       208.000         145.000
  22070324.517   -15428831.02449 -12001201.16847  22070324.103    22070330.260
       233.000         189.000
  24033572.590    -6003503.15649  -4334116.58945  24033572.364    24033579.524
       204.000         145.000
  21598913.317   -17017814.74549 -13227967.57347  21598912.814    21598918.523
       238.000         199.000
  21433396.978     1552598.45749   1220482.84547  21433396.618    21433403.375
       234.000         194.000
  20296427.484   -28628019.54049 -22275464.82647  20296426.766    20296432.567
       246.000         212.000
  20625540.940   -27704865.94049 -21556487.00247  20625540.425    20625544.811
       242.000         212.000
 03  3 20  0 56  0.0000000  0  8G14G 9G 3G31G23G17G15G18
  22322204.095   -13158226.23749  -9518364.08046  22322203.340    22322209.920
       229.000         177.000
  24132123.936   -10643018.16849  -8278410.44045  24132122.359    24132131.810
       207.000         144.000
  22061174.265   -15476915.88649 -12038669.85747  22061173.837    22061180.094
       234.000         190.000
  24016853.944    -6091360.28849  -4402576.60445  24016853.388    24016860.998
       206.000         145.000
  21608539.960   -16967226.32049 -13188548.02247  21608539.270    21608545.271
       238.000         199.000
  21441292.384     1594088.93549   1252813.08047  21441291.563    21441298.074
       234.000         193.000
  20295236.489   -28634277.92649 -22280341.47447  20295235.721    20295241.651
       246.000         212.000
  20630885.543   -27676779.88549 -21534601.75747  20630885.065    20630889.551
       243.000         212.000
 03  3 20  0 56 30.0000000  0  8G14G 9G 3G31G23G17G15G18
  22303624.532   -13255862.02249  -9594443.80446  22303623.343    22303629.984
       230.000         178.000
  24121811.217   -10697211.25749  -8320638.67645  24121810.968    24121819.646
       208.000         145.000
  22052119.287   -15524499.95349 -12075748.31547  22052118.876    22052125.537
       234.000         190.000
  24000197.151    -6178892.15949  -4470783.15345  24000196.740    24000204.697
       206.000         146.000
  21618191.224   -16916508.46049 -13149027.61447  21618190.878    21618196.738
       238.000         199.000
  21449244.033     1635875.12149   1285373.74047  21449243.258    21449250.104
       234.000         193.000
  20294105.798   -28640219.87849 -22284971.54948  20294105.113    20294111.061
       246.000         213.000
  20636280.485   -27648429.28449 -21512510.37347  20636279.831    20636284.427
       242.000         212.000
 03  3 20  0 57  0.0000000  0  8G14G 9G 3G31G23G17G15G18
  22285100.094   -13353208.25449  -9670297.90546  22285099.467    22285105.518
       230.000         179.000
  24111563.738   -10751061.88149  -8362600.06545  24111563.162    24111571.423
       206.000         145.000
  22043159.952   -15571581.52449 -12112435.21347  22043159.218    22043165.879
       235.000         190.000
  23983602.757    -6266096.28549  -4538734.30945  23983601.518    23983609.786
       207.000         147.000
  21627866.846   -16865662.56849 -13109407.43947  21627866.290    21627872.449
       238.000         199.000
  21457252.005     1677957.46649   1318165.16647  21457251.254    21457258.136
       234.000         193.000
  20293035.454   -28645844.49149 -22289354.34648  20293034.644    20293040.588
       246.000         213.000
  20641725.451   -27619815.56449 -21490213.96447  20641724.901    20641729.570
       243.000         212.000
 03  3 20  0 57 30.0000000  0  8G14G 9G 3G31G23G17G15G18
  22266631.658   -13450260.18349  -9745922.67546  22266631.022    22266636.903
       230.000         179.000
  24101382.325   -10804565.09049  -8404290.72445  24101382.210    24101390.849
       206.000         145.000
  22034296.867   -15618157.27849 -12148727.96947  22034296.574    22034302.853
       235.000         190.000
  23967071.516    -6352968.16849  -4606426.59445  23967071.112    23967077.966
       208.000         147.000
  21637566.951   -16814688.17149 -13069687.12947  21637566.554    21637572.411
       237.000         198.000
  21465316.867     1720338.46549   1351189.31547  21465316.541    21465323.281
       233.000         193.000
  20292026.074   -28651148.87049 -22293487.61048  20292025.303    20292031.087
       244.000         213.000
  20647220.661   -27590938.16849 -21467712.09047  20647220.157    20647224.559
       242.000         212.000
 03  3 20  0 58  0.0000000  0  8G14G 9G 3G31G23G17G15G18
  22248218.594   -13547020.87349  -9821320.50846  22248217.619    22248224.088
       230.000         180.000
  24091266.429   -10857723.51049  -8445712.71145  24091265.924    24091274.154
       208.000         145.000
  22025529.247   -15664231.27949 -12184629.74247  22025528.544    22025535.203
       235.000         190.000
  23950602.844    -6439510.88949  -4673862.36445  23950602.763    23950609.985
       209.000         148.000
  21647290.194   -16763592.18349 -13029872.07047  21647289.573    21647295.780
       237.000         198.000
  21473437.575     1763012.93149   1384442.14147  21473437.109    21473443.855
       234.000         192.000
  20291076.739   -28656137.53049 -22297374.86448  20291075.920    20291081.737
       244.000         213.000
  20652764.717   -27561803.82449 -21445009.99847  20652764.249    20652768.742
       242.000         212.000
 03  3 20  0 58 30.0000000  0  8G14G 9G 3G31G23G17G15G18
  22229862.335   -13643483.68249  -9896486.24146  22229861.597    22229867.137
       231.000         180.000
  24081217.519   -10910530.27649  -8486860.69345  24081217.180    24081225.160
       207.000         146.000
  22016858.178   -15709797.88849 -12220136.15147  22016857.916    22016864.029
       234.000         191.000
  23934198.136    -6525717.92949  -4741036.57645  23934197.820    23934205.440
       210.000         149.000
  21657037.103   -16712371.84049 -12989960.11247  21657036.576    21657042.692
       237.000         198.000
  21481614.899     1805985.02749   1417926.88247  21481613.918    21481621.124
       233.000         192.000
  20290188.484   -28660805.27249 -22301012.05248  20290187.605    20290193.680
       244.000         213.000
  20658358.116   -27532410.32049 -21422105.96247  20658357.567    20658362.107
       242.000         212.000
 03  3 20  0 59  0.0000000  0  8G14G 9G 3G31G23G17G15G18
  22211563.174   -13739646.21449  -9971417.97846  22211562.265    22211568.371
       232.000         181.000
  24071236.113   -10962982.41849  -8527732.33745  24071235.141    24071244.483
       210.000         147.000
  22008283.971   -15754855.53249 -12255245.95247  22008283.552    22008289.686
       235.000         191.000
  23917857.839    -6611586.60749  -4807947.12245  23917857.332    23917864.648
       211.000         149.000
  21666807.392   -16661028.67749 -12949952.44847  21666806.812    21666812.785
       238.000         198.000
  21489849.045     1849255.78149   1451644.34847  21489848.437    21489855.501
       233.000         192.000
  20289361.487   -28665151.16749 -22304398.45048  20289360.628    20289366.704
       244.000         213.000
  20664000.582   -27502758.94449 -21399000.98347  20664000.080    20664004.525
       242.000         212.000
 03  3 20  0 59 30.0000000  0  8G14G 9G 3G31G23G17G15G18
  22193321.438   -13835506.60749 -10046114.30146  22193320.284    22193326.652
       231.000         182.000
  24061322.526   -11015077.93749  -8568326.08845  24061321.544    24061330.220
       208.000         147.000
  21999806.753   -15799403.71249 -12289958.77547  21999806.531    21999812.133
       236.000         191.000
  23901582.266    -6697115.35649  -4874592.79745  23901581.360    23901588.516
       210.000         149.000
  21676600.624   -16609564.83049 -12909850.74447  21676600.192    21676606.145
       237.000         198.000
  21498139.893     1892824.45549   1485593.95147  21498139.438    21498146.102
       234.000         192.000
  20288595.749   -28669175.00449 -22307533.89447  20288594.958    20288600.979
       244.000         212.000
  20669691.734   -27472851.70449 -21375696.62847  20669691.251    20669695.711
       242.000         212.000
 03  3 20  1  0  0.0000000  0  8G14G 9G 3G31G23G17G15G18
  22175137.737   -13931061.93249 -10120572.90546  22175137.122    22175143.169
       231.000         182.000
  24051477.503   -11066813.28249  -8608639.19045  24051476.359    24051485.681
       208.000         148.000
  21991426.836   -15843440.31549 -12324272.96647  21991426.432    21991432.327
       236.000         192.000
  23885371.841    -6782300.98049  -4940971.09245  23885371.192    23885377.938
       211.000         150.000
  21686416.727   -16557980.90149 -12869655.47247  21686415.997    21686421.943
       238.000         198.000
  21506487.669     1936692.27749   1519776.66747  21506487.069    21506493.891
       233.000         191.000
  20287891.636   -28672875.13149 -22310417.09747  20287890.716    20287896.796
       244.000         212.000
  20675431.384   -27442689.55949 -21352193.64947  20675430.837    20675435.347
       243.000         212.000
 03  3 20  1  0 30.0000000  0  8G14G 9G 3G31G23G17G15G18
  22157012.577   -14026309.75649 -10194791.89546  22157012.000    22157017.953
       232.000         182.000
  24041701.534   -11118185.84749  -8648669.62545  24041700.997    24041708.466
       207.000         146.000
  21983144.566   -15886964.05449 -12358187.51947  21983144.126    21983150.132
       235.000         192.000
  23869227.128    -6867141.28449  -5007080.29645  23869227.128    23869233.454
       211.000         150.000
  21696255.340   -16506278.65249 -12829368.00347  21696254.915    21696260.741
       237.000         198.000
  21514892.374     1980859.40549   1554192.61047  21514891.660    21514898.655
       233.000         191.000
  20287249.269   -28676250.63249 -22313047.34247  20287248.470    20287254.378
       244.000         212.000
  20681219.283   -27412273.92949 -21328493.14547  20681218.810    20681223.189
       242.000         212.000
 03  3 20  1  1  0.0000000  0  8G14G 9G 3G31G23G17G15G18
  22138946.490   -14121247.42649 -10268769.20546  22138946.027    22138951.722
       233.000         183.000
  24031995.105   -11169192.68949  -8688415.06245  24031994.676    24032002.288
       208.000         145.000
  21974960.067   -15929973.53649 -12391701.35647  21974959.702    21974965.884
       236.000         192.000
  23853148.682    -6951633.72349  -5072918.45545  23853147.819    23853155.070
       212.000         151.000
  21706116.228   -16454459.36649 -12788989.33147  21706115.659    21706121.695
       237.000         198.000
  21523354.198     2025326.45549   1588842.25147  21523353.662    21523360.269
       233.000         191.000
  20286668.938   -28679300.30149 -22315423.69047  20286668.072    20286674.002
       244.000         212.000
  20687055.169   -27381606.04149 -21304596.07647  20687054.570    20687059.072
       242.000         212.000
 03  3 20  1  1 30.0000000  0  8G14G 9G 3G31G23G17G15G18
  22120939.934   -14215872.40849 -10342502.86146  22120938.963    22120945.227
       233.000         183.000
  24022358.833   -11219830.90449  -8727873.26145  24022358.657    24022366.928
       208.000         145.000
  21966873.736   -15972467.21949 -12424813.26847  21966873.430    21966879.316
       235.000         192.000
  23837136.951    -7035775.58649  -5138483.42645  23837136.294    23837143.857
       212.000         151.000
  21715999.167   -16402524.14849 -12748520.32447  21715998.557    21716004.525
       238.000         198.000
  21531873.092     2070093.58649   1623725.72647  21531872.325    21531878.982
       233.000         190.000
  20286150.854   -28682022.72049 -22317545.04147  20286150.121    20286155.993
       244.000         212.000
  20692938.837   -27350687.20149 -21280503.46347  20692938.387    20692942.692
       243.000         212.000
 03  3 20  1  2  0.0000000  0  8G14G 9G 3G31G23G17G15G18
  22102993.313   -14310182.25149 -10415990.94646  22102992.367    22102998.081
       234.000         184.000
  24012793.207   -11270097.82249  -8767042.15045  24012792.160    24012800.719
       207.000         144.000
  21958885.887   -16014443.31949 -12457521.87347  21958885.310    21958891.482
       236.000         192.000
  23821192.393    -7119564.45949  -5203773.34645  23821192.072    23821199.112
       213.000         151.000
  21725903.908   -16350474.52649 -12707962.16747  21725903.340    21725908.993
       238.000         198.000
  21540449.202     2115161.29249   1658843.41247  21540448.548    21540455.342
       232.000         190.000
  20285695.210   -28684417.09749 -22319410.76947  20285694.286    20285700.256
       244.000         212.000
  20698869.960   -27319518.92749 -21256216.48647  20698869.421    20698874.010
       242.000         212.000
 03  3 20  1  2 30.0000000  0  8G14G 9G 3G31G23G17G15G18
  22085107.141   -14404174.41949 -10489231.51646  22085106.089    22085111.986
       233.000         184.000
  24003298.827   -11319990.23449  -8805919.21045  24003298.332    24003306.610
       208.000         144.000
  21950996.782   -16055900.67649 -12489826.26347  21950996.122    21951002.868
       236.000         192.000
  23805315.481    -7202997.81449  -5268786.24845  23805314.554    23805321.692
       213.000         151.000
  21735830.166   -16298311.62949 -12667315.74847  21735829.438    21735835.481
       237.000         197.000
  21549082.686     2160530.44849   1694195.99847  21549081.731    21549088.985
       233.000         190.000
  20285302.146   -28686482.52049 -22321020.17547  20285301.378    20285307.260
       244.000         212.000
  20704848.299   -27288102.44149 -21231736.09547  20704847.822    20704852.356
       242.000         212.000
 03  3 20  1  3  0.0000000  0  8G14G 9G 3G31G23G17G15G18
  22067281.840   -14497846.64449 -10562222.76646  22067280.669    22067286.922
       233.000         185.000
  23993876.263   -11369505.68049  -8844502.53345  23993875.616    23993884.269
       208.000         146.000
  21943206.630   -16096838.10749 -12521725.52047  21943206.224    21943212.218
       236.000         193.000
  23789506.650    -7286073.25349  -5333520.24345  23789505.958    23789513.009
       213.000         151.000
  21745777.728   -16246036.83249 -12626582.13847  21745777.062    21745783.311
       237.000         197.000
  21557773.379     2206200.43449   1729782.99947  21557772.685    21557779.448
       232.000         190.000
  20284971.864   -28688218.10249 -22322372.56647  20284971.067    20284977.069
       244.000         212.000
  20710873.532   -27256439.46449 -21207063.63447  20710872.991    20710877.485
       243.000         212.000
 03  3 20  1  3 30.0000000  0  8G14G 9G 3G31G23G17G15G18
  22049517.933   -14591195.98749 -10634962.41946  22049517.127    22049522.917
       234.000         185.000
  23984526.009   -11418640.99649  -8882789.65045  23984525.808    23984533.733
       210.000         148.000
  21935515.699   -16137253.95949 -12553218.35647  21935515.229    21935521.484
       235.000         193.000
  23773766.358    -7368788.11049  -5397973.28145  23773766.314    23773773.261
       213.000         151.000
  21755746.358   -16193651.22449 -12585762.18347  21755745.671    21755751.773
       237.000         197.000
  21566521.555     2252172.49949   1765605.37647  21566520.568    21566527.510
       232.000         190.000
  20284704.611   -28689622.41649 -22323466.82547  20284703.892    20284709.614
       244.000         212.000
  20716945.549   -27224530.80949 -21182199.73847  20716945.047    20716949.468
       242.000         212.000
 03  3 20  1  4  0.0000000  0  8G14G 9G 3G31G23G17G15G18
  22031815.876   -14684220.43249 -10707448.89346  22031815.042    22031820.748
       233.000         185.000
  23975248.567   -11467394.20049  -8920779.03545  23975247.981    23975255.672
       209.000         149.000
  21927924.112   -16177147.64949 -12584304.30947  21927923.405    21927930.063
       236.000         193.000
  23758095.178    -7451140.45449  -5462143.83545  23758094.663    23758101.088
       212.000         151.000
  21765735.679   -16141156.87549 -12544857.49247  21765734.905    21765740.935
       237.000         197.000
  21575327.252     2298446.72449   1801663.21447  21575326.492    21575333.080
       232.000         189.000
  20284500.487   -28690694.97549 -22324302.56547  20284499.763    20284505.613
       244.000         212.000
  20723063.914   -27192378.53049 -21157146.00447  20723063.392    20723067.694
       243.000         212.000
 03  3 20  1  4 30.0000000  0  8G14G 9G 3G31G23G17G15G18
  22014176.208   -14776917.27549 -10779680.09846  22014175.493    22014181.088
       234.000         186.000
  23966044.395   -11515761.82349  -8958467.97345  23966043.573    23966052.502
       211.000         149.000
  21920432.345   -16216517.03349 -12614981.71447  21920431.741    21920437.842
       236.000         193.000
  23742493.514    -7533127.37049  -5526029.64945  23742492.924    23742500.519
       214.000         151.000
  21775745.597   -16088554.41649 -12503868.56647  21775745.245    21775751.192
       237.000         197.000
  21584190.510     2345023.56649   1837956.84947  21584189.886    21584196.519
       232.000         189.000
  20284359.811   -28691434.24749 -22324878.60847  20284358.891    20284364.868
       244.000         212.000
  20729228.498   -27159983.44449 -21131903.07147  20729227.934    20729232.360
       243.000         212.000
 03  3 20  1  5  0.0000000  0  8G14G 9G 3G31G23G17G15G18
  21996599.341   -14869284.07849 -10851654.12046  21996598.662    21996604.359
       234.000         186.000
  23956914.181   -11563741.32549  -8995854.47845  23956913.604    23956922.061
       209.000         148.000
  21913040.506   -16255361.07849 -12645249.76247  21913040.058    21913046.120
       236.000         193.000
  23726961.882    -7614746.42949  -5589628.82645  23726960.737    23726968.260
       213.000         151.000
  21785775.816   -16035845.27049 -12462796.50547  21785775.012    21785781.155
       237.000         197.000
  21593111.317     2391902.77549   1874486.10047  21593110.721    21593117.275
       231.000         189.000
  20284282.692   -28691839.33749 -22325194.24747  20284281.904    20284287.747
       244.000         212.000
  20735438.961   -27127347.07349 -21106472.12047  20735438.285    20735442.672
       243.000         212.000
 03  3 20  1  5 30.0000000  0  8G14G 9G 3G31G23G17G15G18
  21979085.786   -14961318.00049 -10923368.75346  21979085.116    21979090.540
       234.000         186.000
  23947858.313   -11611329.56249  -9032936.11545  23947857.803    23947865.911
       207.000         147.000
  21905748.969   -16293678.35549 -12675107.34447  21905748.836    21905754.769
       236.000         193.000
  23711500.707    -7695994.96349  -5652939.29445  23711500.140    23711507.234
       214.000         151.000
  21795826.195   -15983030.29149 -12421641.97647  21795825.374    21795831.642
       237.000         197.000
  21602089.911     2439085.45549   1911251.82447  21602089.235    21602096.084
       232.000         189.000
  20284269.454   -28691908.95949 -22325248.47947  20284268.743    20284274.502
       244.000         212.000
  20741695.193   -27094470.34349 -21080853.87847  20741694.654    20741699.009
       243.000         211.000
 03  3 20  1  6  0.0000000  0  8G14G 9G 3G31G23G17G15G18
  21961636.041   -15053016.60249 -10994822.10346  21961635.426    21961640.774
       235.000         187.000
  23938877.393   -11658523.52849  -9069710.53645  23938877.280    23938885.529
       209.000         147.000
  21898557.944   -16331467.20849 -12704553.17147  21898557.234    21898563.623
       235.000         193.000
  23696110.651    -7776870.21549  -5715958.88745  23696110.024    23696116.558
       216.000         150.000
  21805896.489   -15930110.48249 -12380405.76647  21805895.792    21805901.796
       237.000         196.000
  21611126.404     2486572.58149   1948254.77147  21611125.699    21611132.441
       232.000         189.000
  20284320.277   -28691641.87649 -22325040.35048  20284319.378    20284325.319
       244.000         213.000
  20747996.948   -27061354.38849 -21055049.23147  20747996.561    20748000.594
       243.000         211.000
 03  3 20  1  6 30.0000000  0  8G14G 9G 3G31G23G17G15G18
  21944250.500   -15144377.80749 -11066012.53746  21944249.772    21944255.536
       234.000         187.000
  23929972.081   -11705321.02649  -9106176.01245  23929971.136    23929978.967
       208.000         146.000
  21891467.667   -16368726.71149 -12733586.52047  21891467.353    21891473.363
       235.000         194.000
  23680791.933    -7857370.16649  -5778686.03145  23680790.870    23680798.053
       215.000         151.000
  21815986.383   -15877087.67449 -12339089.28947  21815985.697    21815991.875
       236.000         196.000
  21620220.706     2534363.39049   1985494.35447  21620220.083    21620226.818
       232.000         188.000
  20284435.274   -28691037.58349 -22324569.45248  20284434.438    20284440.163
       244.000         213.000
  20754343.869   -27028001.03849 -21029059.59347  20754343.347    20754347.729
       243.000         211.000
 03  3 20  1  7  0.0000000  0  8G14G 9G 3G31G23G17G15G18
  21926929.649   -15235398.89149 -11136937.94446  21926928.933    21926934.649
       235.000         187.000
  23921142.710   -11751719.11749  -9142330.28745  23921141.648    23921150.576
       209.000         146.000
  21884478.361   -16405455.70049 -12762206.47447  21884478.141    21884483.810
       236.000         194.000
  23665545.100    -7937492.27449  -5841118.75245  23665544.145    23665551.163
       216.000         150.000
  21826095.687   -15823962.90349 -12297693.36847  21826095.329    21826101.187
       237.000         196.000
  21629372.995     2582458.91149   2022971.37447  21629372.297    21629379.228
       231.000         188.000
  20284614.707   -28690094.61149 -22323834.65248  20284613.954    20284619.729
       245.000         213.000
  20760735.752   -26994411.45849 -21002885.88447  20760735.342    20760739.653
       243.000         211.000
 03  3 20  1  7 30.0000000  0  8G14G 9G 3G31G23G17G15G18
  21909674.013   -15326077.23749 -11207596.29046  21909673.209    21909678.823
       233.000         187.000
  23912389.987   -11797714.84349  -9178171.00745  23912389.237    23912396.735
       210.000         146.000
  21877590.268   -16441652.67249 -12790411.87847  21877589.870    21877596.014
       236.000         194.000
  23650370.658    -8017234.03649  -5903255.10545  23650370.209    23650376.329
       215.000         151.000
  21836224.204   -15770737.23049 -12256218.81947  21836223.607    21836229.454
       236.000         196.000
  21638583.289     2630859.49449   2060686.09747  21638582.941    21638589.817
       231.000         188.000
  20284858.773   -28688811.91849 -22322835.13948  20284858.105    20284863.885
       244.000         213.000
  20767172.389   -26960586.66249 -20976528.89747  20767171.856    20767176.297
       243.000         211.000
 03  3 20  1  8  0.0000000  0  8G14G 9G 3G31G23G17G15G18
  21892484.004   -15416411.03249 -11277986.15347  21892483.019    21892488.611
       234.000         188.000
  23903714.182   -11843305.90249  -9213696.41945  23903713.304    23903722.207
       209.000         146.000
  21870803.559   -16477316.88849 -12818202.14547  21870803.228    21870808.910
       236.000         194.000
  23635268.981    -8096593.26749  -5965093.40445  23635268.224    23635274.404
       216.000         152.000
  21846371.638   -15717412.24949 -12214666.88547  21846370.982    21846376.834
       236.000         196.000
  21647851.764     2679565.33349   2098638.69247  21647851.115    21647857.413
       231.000         188.000
  20285167.634   -28687189.01349 -22321570.52448  20285166.771    20285172.623
       244.000         213.000
  20773653.465   -26926528.33749 -20949989.93447  20773653.039    20773657.199
       243.000         211.000
 03  3 20  1  8 30.0000000  0  8G14G 9G 3G31G23G17G15G18
  21875360.048   -15506397.59649 -11348105.45047  21875359.564    21875364.765
       234.000         188.000
  23895115.923   -11888489.49749  -9248904.30545  23895115.945    23895123.848
       210.000         147.000
  21864118.467   -16512447.05549 -12845576.27447  21864117.826    21864124.096
       236.000         194.000
  23620240.694    -8175567.33849  -6026631.56445  23620240.498    23620246.197
       216.000         152.000
  21856537.717   -15663988.99649 -12173038.37647  21856537.154    21856542.821
       237.000         196.000
  21657178.278     2728576.69849   2136829.35346  21657177.748    21657184.030
       231.000         187.000
  20285541.409   -28685224.60949 -22320039.80847  20285540.762    20285546.376
       244.000         212.000
  20780178.740   -26892237.79649 -20923270.02047  20780178.112    20780182.709
       243.000         211.000
 03  3 20  1  9  0.0000000  0  8G14G 9G 3G31G23G17G15G18
  21858302.717   -15596034.29549 -11417952.12947  21858302.302    21858307.449
       235.000         189.000
  23886595.759   -11933262.93949  -9283792.60045  23886595.754    23886603.292
       211.000         148.000
  21857535.308   -16547041.68249 -12872533.09747  21857534.983    21857540.948
       236.000         194.000
  23605286.126    -8254153.80149  -6087867.69645  23605285.471    23605292.653
       216.000         152.000
  21866722.326   -15610468.57449 -12131334.15947  21866721.524    21866727.530
       236.000         196.000
  21666562.950     2777893.61449   2175258.10846  21666562.151    21666569.191
       231.000         187.000
  20285980.465   -28682917.41749 -22318241.98647  20285979.748    20285985.468
       244.000         212.000
  20786747.978   -26857716.14749 -20896370.02647  20786747.374    20786751.793
       242.000         211.000
 03  3 20  1  9 30.0000000  0  8G14G 9G 3G31G23G17G15G18
  21841312.924   -15685315.74949 -11487521.99847  21841312.374    21841317.428
       235.000         189.000
  23878154.837   -11977620.32749  -9318356.68645  23878154.018    23878161.603
       211.000         148.000
  21851054.826   -16581096.78149 -12899069.50947  21851054.220    21851060.366
       237.000         194.000
  23590406.332    -8332347.20649  -6148797.55345  23590406.082    23590411.956
       215.000         152.000
  21876925.816   -15556848.96049 -12089552.63647  21876925.080    21876931.010
       236.000         195.000
  21676006.553     2827520.06449   2213928.05746  21676006.093    21676013.046
       231.000         187.000
  20286485.483   -28680263.44649 -22316173.94547  20286484.509    20286490.520
       244.000         212.000
  20793361.541   -26822961.55949 -20869288.52247  20793360.976    20793365.450
       243.000         211.000
 03  3 20  1 10  0.0000000  0  8G14G 9G 3G31G23G17G15G18
  21824390.358   -15774244.10049 -11556816.72047  21824389.659    21824395.165
       235.000         189.000
  23869792.666   -12021563.66349  -9352598.14145  23869792.477    23869800.044
       212.000         149.000
  21844676.398   -16614615.70549 -12925188.12047  21844675.806    21844682.038
       237.000         194.000
  23575600.914    -8410149.74849  -6209422.83345  23575599.362    23575607.006
       215.000         152.000
  21887147.036   -15503136.10349 -12047698.46447  21887146.654    21887152.361
       236.000         195.000
  21685508.210     2877451.49449   2252835.65046  21685508.165    21685514.804
       231.000         187.000
  20287055.765   -28677266.43049 -22313838.59547  20287054.954    20287060.747
       244.000         212.000
  20800018.260   -26787980.16949 -20842030.29347  20800017.897    20800022.149
       243.000         211.000
 03  3 20  1 10 30.0000000  0  8G14G 9G 3G31G23G17G15G18
  21807535.487   -15862816.46849 -11625834.06347  21807534.608    21807540.146
       235.000         189.000
  23861509.924   -12065089.52549  -9386514.29145  23861509.721    23861517.392
       213.000         149.000
  21838400.291   -16647596.73949 -12950887.59847  21838400.220    21838405.422
       237.000         195.000
  23560870.532    -8487558.18249  -6269741.03345  23560869.300    23560876.620
       215.000         152.000
  21897385.935   -15449330.31149 -12005771.87247  21897385.316    21897391.313
       236.000         195.000
  21695068.095     2927688.89549   2291981.67046  21695067.168    21695074.057
       231.000         187.000
  20287691.744   -28673924.31449 -22311234.34047  20287690.934    20287696.587
       244.000         212.000
  20806718.127   -26752772.17449 -20814595.48847  20806717.809    20806722.149
       243.000         211.000
 03  3 20  1 11  0.0000000  0  8G14G 9G 3G31G23G17G15G18
  21790748.870   -15951030.17749 -11694571.93447  21790748.509    21790753.340
       235.000         190.000
  23853307.212   -12108194.96049  -9420102.85445  23853307.219    23853314.162
       211.000         149.000
  21832226.799   -16680038.64449 -12976166.97347  21832226.354    21832232.268
       236.000         195.000
  23546215.598    -8564569.99749  -6329750.17045  23546214.845    23546222.288
       214.000         153.000
  21907642.350   -15395432.56449 -11963773.62247  21907641.665    21907647.624
       236.000         195.000
  21704686.358     2978233.05549   2331366.71346  21704685.829    21704692.315
       231.000         186.000
  20288393.617   -28670235.93349 -22308360.26547  20288392.808    20288398.579
       244.000         212.000
  20813460.878   -26717338.73849 -20786985.01047  20813460.381    20813464.830
       243.000         211.000
 03  3 20  1 11 30.0000000  0  8G14G 9G 3G31G23G17G15G18
  21774031.118   -16038882.13049 -11763027.92247  21774030.522    21774035.962
       234.000         190.000
  23845184.931   -12150876.78349  -9453361.30445  23845184.612    23845191.601
       209.000         149.000
  21826156.223   -16711939.59349 -13001024.82547  21826155.827    21826161.754
       236.000         195.000
  23531636.721    -8641182.05049  -6389447.80545  23531636.387    23531643.099
       215.000         153.000
  21917916.124   -15341443.43649 -11921704.16647  21917915.403    21917921.015
       236.000         195.000
  21714363.192     3029085.18349   2370991.74046  21714361.930    21714369.708
       230.000         186.000
  20289161.642   -28666199.70549 -22305215.14447  20289160.756    20289166.667
       244.000         212.000
  20820246.373   -26681680.59049 -20759199.43447  20820245.794    20820250.281
       243.000         211.000
 03  3 20  1 12  0.0000000  0  8G14G 9G 3G31G23G17G15G18
  21757382.573   -16126370.33449 -11831200.47147  21757382.148    21757387.280
       236.000         190.000
  23837143.728   -12193132.78549  -9486287.94645  23837143.609    23837151.895
       211.000         149.000
  21820188.672   -16743299.00849 -13025460.69547  21820188.308    21820194.183
       237.000         195.000
  23517134.282    -8717392.53849  -6448832.53145  23517133.687    23517140.661
       215.000         153.000
  21928206.988   -15287364.43749 -11879564.68347  21928206.349    21928212.248
       235.000         195.000
  21724098.454     3080244.30449   2410855.98046  21724098.200    21724104.258
       231.000         186.000
  20289996.005   -28661815.05049 -22301798.52247  20289995.229    20290000.992
       244.000         212.000
  20827074.392   -26645799.28649 -20731239.97047  20827073.867    20827078.228
       243.000         211.000
 03  3 20  1 12 30.0000000  0  8G14G 9G 3G31G23G17G15G18
  21740803.812   -16213491.91849 -11899087.34747  21740803.115    21740808.729
       236.000         190.000
  23829184.187   -12234959.88449  -9518880.37745  23829184.449    23829192.124
       212.000         150.000
  21814324.505   -16774115.18549 -13049473.27147  21814323.978    21814330.253
       237.000         195.000
  23502708.863    -8793198.44649  -6507901.99045  23502707.464    23502715.462
       215.000         153.000
  21938514.847   -15233196.13249 -11837355.60947  21938514.562    21938520.225
       235.000         194.000
  21733892.375     3131711.63549   2450960.37946  21733891.700    21733898.096
       231.000         186.000
  20290896.989   -28657080.37749 -22298109.15547  20290896.465    20290902.029
       244.000         212.000
  20833944.657   -26609695.71249 -20703107.31447  20833944.181    20833948.528
       243.000         210.000
 03  3 20  1 13  0.0000000  0  8G14G 9G 3G31G23G17G15G18
  21724295.223   -16300244.95649 -11966687.04147  21724294.924    21724300.039
       235.000         191.000
  23821306.731   -12276355.94649  -9551136.93845  23821306.053    23821314.263
       212.000         151.000
  21808563.803   -16804387.64549 -13073062.16947  21808563.676    21808569.045
       237.000         195.000
  23488360.756    -8868597.89949  -6566654.74045  23488359.757    23488367.087
       214.000         153.000
  21948839.451   -15178939.95749 -11795078.06747  21948838.725    21948844.864
       235.000         194.000
  21743744.934     3183487.13249   2491304.90946  21743744.079    21743750.641
       231.000         185.000
  20291864.674   -28651995.23649 -22294146.69347  20291863.895    20291869.789
       244.000         212.000
  20840856.920   -26573371.43649 -20674802.67747  20840856.315    20840860.697
       243.000         210.000
 03  3 20  1 13 30.0000000  0  8G14G 9G 3G31G23G17G15G18
  21707857.255   -16386626.90649 -12033997.58647  21707856.614    21707862.053
       236.000         191.000
  23813511.884   -12317318.02349  -9583055.34045  23813511.389    23813518.784
       214.000         151.000
  21802906.831   -16834115.18949 -13096226.45547  21802906.922    21802912.207
       237.000         195.000
  23474090.521    -8943588.18849  -6625088.64645  23474090.715    23474096.941
       215.000         154.000
  21959180.607   -15124596.75549 -11752732.71147  21959180.186    21959185.732
       236.000         194.000
  21753656.135     3235570.83749   2531889.60446  21753655.398    21753662.101
       230.000         185.000
  20292899.281   -28646558.21749 -22289910.04247  20292898.479    20292904.184
       244.000         212.000
  20847811.006   -26536827.53849 -20646326.90947  20847810.601    20847814.902
       243.000         210.000
 03  3 20  1 14  0.0000000  0  8G14G 9G 3G31G23G17G15G18
  21691490.218   -16472635.90149 -12101017.50947  21691489.474    21691495.254
       236.000         192.000
  23805800.009   -12357843.92849  -9614633.87045  23805798.958    23805807.657
       211.000         149.000
  21797353.670   -16863297.10249 -13118965.57647  21797353.446    21797359.292
       237.000         195.000
  23459898.512    -9018167.42749  -6683202.26745  23459897.461    23459904.470
       215.000         154.000
  21969538.074   -15070168.05549 -11710320.73547  21969537.416    21969543.447
       236.000         194.000
  21763625.982     3287962.79249   2572714.49046  21763625.206    21763632.356
       229.000         185.000
  20294000.891   -28640769.01149 -22285398.96147  20294000.186    20294005.915
       244.000         212.000
  20854806.575   -26500065.51649 -20617681.17347  20854805.988    20854810.496
       243.000         210.000
 03  3 20  1 14 30.0000000  0  8G14G 9G 3G31G23G17G15G18
  21675194.690   -16558269.16349 -12167744.65947  21675194.045    21675199.476
       235.000         192.000
  23798171.617   -12397930.82449  -9645870.32145  23798171.309    23798178.456
       213.000         149.000
  21791904.527   -16891932.25149 -13141278.65347  21791904.119    21791910.187
       237.000         195.000
  23445785.266    -9092332.95349  -6740993.50745  23445784.671    23445791.505
       216.000         155.000
  21979911.628   -15015654.62749 -11667842.73547  21979910.714    21979916.965
       236.000         194.000
  21773654.655     3340663.94549   2613780.30246  21773653.923    21773660.857
       230.000         184.000
  20295169.846   -28634626.17449 -22280612.32647  20295169.167    20295174.749
       244.000         212.000
  20861843.507   -26463086.28149 -20588866.17847  20861843.017    20861847.267
       243.000         210.000
 03  3 20  1 15  0.0000000  0  8G14G 9G 3G31G23G17G15G18
  21658971.045   -16643524.44849 -12234177.27547  21658970.507    21658975.605
       236.000         192.000
  23790627.316   -12437576.00049  -9676762.57345  23790627.211    23790633.906
       213.000         150.000
  21786559.633   -16920019.73449 -13163164.97747  21786559.029    21786565.332
       237.000         195.000
  23431751.216    -9166082.35949  -6798460.49945  23431750.307    23431757.230
       216.000         156.000
  21990301.118   -14961057.47349 -11625299.49847  21990300.712    21990306.870
       236.000         194.000
  21783742.240     3393674.46649   2655087.19146  21783741.909    21783748.726
       230.000         184.000
  20296406.313   -28628128.34949 -22275549.07647  20296405.631    20296411.537
       244.000         212.000
  20868921.461   -26425891.24049 -20559883.02447  20868921.147    20868925.386
       243.000         210.000
 03  3 20  1 15 30.0000000  0  8G14G 9G 3G31G23G17G15G18
  21642819.726   -16728399.82449 -12300313.85247  21642819.248    21642824.592
       237.000         192.000
  23783167.341   -12476777.78649  -9707309.32045  23783166.037    23783174.401
       212.000         150.000
  21781319.051   -16947559.07949 -13184624.17747  21781319.017    21781324.736
       238.000         196.000
  23417796.649    -9239413.86149  -6855601.84545  23417796.257    23417802.899
       216.000         157.000
  22000706.233   -14906378.32249 -11582692.36647  22000705.668    22000711.394
       236.000         194.000
  21793888.545     3446993.86249   2696634.76546  21793887.875    21793894.440
       229.000         183.000
  20297710.405   -28621275.29449 -22270209.01847  20297709.608    20297715.315
       244.000         212.000
  20876040.204   -26388481.95249 -20530732.92047  20876039.628    20876043.901
       244.000         210.000
 03  3 20  1 16  0.0000000  0  8G14G 9G 3G31G23G17G15G18
  21626741.228   -16812892.41749 -12366152.16347  21626740.839    21626745.770
       236.000         193.000
  23775792.311   -12515532.80449  -9737507.93345  23775792.012    23775800.176
       213.000         151.000
  21776183.137   -16974548.49549 -13205654.87047  21776182.493    21776188.900
       237.000         196.000
  23403922.207    -9312324.28849  -6912415.09445  23403920.933    23403928.412
       216.000         158.000
  22011126.947   -14851617.23649 -11540021.38747  22011126.484    22011132.405
       235.000         193.000
  21804093.931     3500623.36649   2738423.96846  21804093.110    21804100.214
       230.000         183.000
  20299082.418   -28614065.24549 -22264590.79047  20299081.728    20299087.437
       244.000         212.000
  20883199.665   -26350858.77549 -20501416.15747  20883199.242    20883203.347
       243.000         210.000
 03  3 20  1 16 30.0000000  0  8G14G 9G 3G31G23G17G15G18
  21610735.994   -16897000.20349 -12431690.61747  21610735.459    21610740.944
       236.000         193.000
  23768502.854   -12553838.75349  -9767356.62845  23768502.498    23768510.180
       214.000         151.000
  21771151.942   -17000987.40749 -13226256.58947  21771151.406    21771157.409
       237.000         196.000
  23390128.208    -9384811.84449  -6968898.81645  23390126.942    23390133.949
       216.000         158.000
  22021562.924   -14796775.64449 -11497287.67947  22021562.559    22021568.137
       235.000         193.000
  21814358.413     3554563.29249   2780455.06846  21814357.495    21814364.711
       229.000         183.000
  20300522.487   -28606497.52549 -22258693.85647  20300521.571    20300527.698
       244.000         212.000
  20890399.435   -26313023.63349 -20471934.22247  20890399.058    20890403.221
       243.000         210.000
 03  3 20  1 17  0.0000000  0  8G14G 9G 3G31G23G17G15G18
  21594804.414   -16980721.06849 -12496927.57347  21594803.948    21594808.695
       237.000         194.000
  23761299.330   -12591693.51449  -9796853.75345  23761299.655    23761307.339
       215.000         152.000
  21766225.689   -17026875.22249 -13246428.89047  21766225.186    21766231.317
       238.000         196.000
  23376415.133    -9456874.28849  -7025051.29745  23376414.315    23376420.754
       216.000         158.000
  22032014.043   -14741854.79149 -11454492.21147  22032013.355    22032019.430
       235.000         193.000
  21824681.767     3608813.10049   2822727.63346  21824681.477    21824688.011
       229.000         183.000
  20302030.746   -28598571.65849 -22252517.84547  20302029.977    20302035.684
       244.000         212.000
  20897639.344   -26274977.67049 -20442288.00947  20897638.866    20897643.287
       243.000         210.000
 03  3 20  1 17 30.0000000  0  8G14G 9G 3G31G23G17G15G18
  21578946.772   -17064053.32349 -12561861.71747  21578946.276    21578951.342
       237.000         194.000
  23754182.104   -12629094.86449  -9825997.55645  23754181.742    23754188.851
       213.000         152.000
  21761404.297   -17052211.68149 -13266171.56547  21761403.714    21761409.838
       237.000         196.000
  23362783.250    -9528509.76749  -7080871.07645  23362782.692    23362789.209
       216.000         159.000
  22042479.902   -14686856.21549 -11411636.18047  22042479.259    22042485.076
       235.000         193.000
  21835064.072     3663372.26949   2865241.25646  21835063.200    21835070.012
       229.000         183.000
  20303607.236   -28590287.00349 -22246062.26047  20303606.316    20303612.259
       244.000         212.000
  20904919.086   -26236722.44749 -20412478.74047  20904918.696    20904922.932
       243.000         210.000
 03  3 20  1 18  0.0000000  0  8G14G 9G 3G31G23G17G15G18
  21563163.646   -17146994.03349 -12626490.75647  21563163.013    21563168.164
       238.000         194.000
  23747151.647   -12666039.90549  -9854785.80845  23747151.759    23747158.055
       214.000         151.000
  21756688.057   -17076995.47849 -13285483.59547  21756687.738    21756693.301
       237.000         196.000
  23349233.272    -9599715.40349  -7136355.90445  23349232.373    23349239.980
       216.000         159.000
  22052960.496   -14631780.17549 -11368719.77947  22052959.824    22052966.083
       234.000         192.000
  21845505.474     3718241.88449   2907996.78546  21845505.002    21845511.561
       228.000         183.000
  20305252.333   -28581641.76749 -22239325.70147  20305251.487    20305257.299
       244.000         212.000
  20912238.477   -26198258.66049 -20382506.95247  20912238.069    20912242.256
       243.000         210.000
 03  3 20  1 18 30.0000000  0  8G14G 9G 3G31G23G17G15G18
  21547455.406   -17229541.26349 -12690813.19247  21547454.847    21547460.165
       237.000         195.000
  23740208.398   -12702526.55149  -9883216.86445  23740206.947    23740214.982
       212.000         150.000
  21752077.085   -17101225.99749 -13304364.50047  21752076.661    21752082.819
       236.000         196.000
  23335765.399    -9670489.38049  -7191504.38745  23335764.616    23335770.510
       217.000         160.000
  22063455.574   -14576628.01549 -11325744.07647  22063454.988    22063460.743
       234.000         192.000
  21856005.828     3773421.68549   2950994.01946  21856005.083    21856012.158
       228.000         183.000
  20306966.186   -28572635.45449 -22232307.78547  20306965.340    20306971.129
       244.000         212.000
  20919597.315   -26159587.67949 -20352373.71347  20919596.804    20919601.223
       243.000         210.000
 03  3 20  1 19  0.0000000  0  8G14G 9G 3G31G23G17G15G18
  21531822.494   -17311692.44549 -12754827.02547  21531821.780    21531827.252
       237.000         195.000
  23733352.857   -12738552.00449  -9911288.53245  23733352.492    23733359.965
       213.000         149.000
  21747571.671   -17124902.03149 -13322813.34047  21747571.230    21747577.289
       237.000         196.000
  23322380.191    -9740828.95649  -7246314.36245  23322379.932    23322386.285
       218.000         160.000
  22073965.017   -14521400.46049 -11282709.61547  22073964.572    22073970.247
       235.000         192.000
  21866565.491     3828912.94249   2994233.95746  21866565.182    21866572.019
       229.000         182.000
  20308748.964   -28563266.82149 -22225007.54247  20308748.086    20308753.895
       244.000         212.000
  20926995.413   -26120710.42449 -20322079.74547  20926994.843    20926999.367
       243.000         209.000
 03  3 20  1 19 30.0000000  0  8G14G 9G 3G31G23G17G15G18
  21516265.297   -17393445.64849 -12818530.73647  21516264.680    21516269.805
       238.000         195.000
  23726585.536   -12774114.10249  -9938999.16945  23726585.097    23726592.728
       213.000         150.000
  21743171.890   -17148023.01749 -13340829.67447  21743171.506    21743177.728
       237.000         196.000
  23309077.984    -9810732.18049  -7300784.33345  23309077.242    23309083.863
       217.000         161.000
  22084488.600   -14466098.66149 -11239617.30347  22084487.947    22084494.119
       234.000         192.000
  21877184.321     3884715.24049   3037716.26846  21877183.261    21877190.762
       229.000         182.000
  20310600.852   -28553534.99049 -22217424.28847  20310600.084    20310605.772
       244.000         212.000
  20934432.494   -26081628.28749 -20291626.12347  20934432.004    20934436.433
       243.000         209.000
 03  3 20  1 20  0.0000000  0  8G14G 9G 3G31G23G17G15G18
  21500784.219   -17474798.78449 -12881922.71547  21500783.757    21500789.121
       238.000         195.000
  23719906.828   -12809210.75549  -9966347.09245  23719905.871    23719913.246
       212.000         151.000
  21738877.768   -17170588.65049 -13358413.26447  21738877.428    21738883.344
       237.000         196.000
  23295859.191    -9880197.01449  -7354912.69645  23295858.793    23295864.965
       217.000         162.000
  22095026.101   -14410723.84349 -11196468.09347  22095025.472    22095031.265
       235.000         192.000
  21887862.294     3940828.37749   3081440.78246  21887861.599    21887868.548
       229.000         182.000
  20312521.976   -28543439.29549 -22209557.50547  20312521.184    20312526.934
       244.000         212.000
  20941908.278   -26042342.63249 -20261013.91547  20941907.809    20941912.215
       242.000         209.000
 03  3 20  1 20 30.0000000  0  8G14G 9G 3G31G23G17G15G18
  21485379.792   -17555749.40049 -12945001.04147  21485378.952    21485384.588
       238.000         196.000
  23713317.177   -12843839.06949  -9993330.08745  23713315.893    23713323.760
       213.000         150.000
  21734689.549   -17192597.85749 -13375563.27647  21734689.358    21734695.206
       237.000         196.000
  23282724.371    -9949220.73549  -7408697.33945  23282723.356    23282730.515
       218.000         162.000
  22105577.382   -14355276.52349 -11153262.38647  22105576.398    22105582.912
       235.000         192.000
  21898599.597     3997253.10649   3125408.10146  21898599.325    21898605.621
       228.000         182.000
  20314512.643   -28532978.33449 -22201406.09947  20314511.956    20314517.601
       244.000         212.000
  20949422.619   -26002854.48449 -20230243.92047  20949422.257    20949426.468
       243.000         209.000
 03  3 20  1 21  0.0000000  0  8G14G 9G 3G31G23G17G15G18
  21470052.220   -17636295.97549 -13007764.53247  21470051.403    21470056.758
       238.000         196.000
  23706816.922   -12877997.43649 -10019946.88245  23706815.853    23706823.116
       212.000         149.000
  21730607.197   -17214050.66149 -13392279.72947  21730606.814    21730612.851
       238.000         196.000
  23269673.791   -10017801.89549  -7462137.13845  23269673.390    23269679.298
       218.000         162.000
  22116142.112   -14299758.36849 -11110001.48947  22116141.864    22116147.580
       234.000         192.000
  21909396.041     4053988.87049   3169617.78046  21909396.051    21909401.883
       229.000         182.000
  20316572.789   -28522152.04449 -22192970.01747  20316572.130    20316577.690
       244.000         212.000
  20956975.215   -25963165.30349 -20199317.27747  20956974.598    20956979.084
       242.000         209.000
 03  3 20  1 21 30.0000000  0  8G14G 9G 3G31G23G17G15G18
  21454802.110   -17716435.63849 -13070210.95247  21454801.560    21454806.394
       238.000         196.000
  23700406.663   -12911682.93649 -10046195.22845  23700406.680    23700414.380
       211.000         149.000
  21726631.003   -17234945.53849 -13408561.43147  21726630.577    21726636.238
       237.000         196.000
  23256707.918   -10085937.64949  -7515229.87446  23256707.277    23256714.271
       218.000         163.000
  22126720.289   -14244169.69149 -11066685.63247  22126719.711    22126725.257
       234.000         192.000
  21920251.780     4111036.18049   3214070.22046  21920251.686    21920258.202
       229.000         182.000
  20318702.816   -28510958.64649 -22184247.87847  20318702.035    20318707.964
       244.000         212.000
  20964565.950   -25923275.62649 -20168234.40147  20964565.313    20964569.620
       242.000         209.000
 03  3 20  1 22  0.0000000  0  8G14G 9G 3G31G23G17G15G18
  21439629.741   -17796166.54149 -13132338.85447  21439629.244    21439634.171
       238.000         197.000
  23694086.790   -12944893.73549 -10072073.66445  23694086.425    23694092.941
       213.000         150.000
  21722760.999   -17255282.41149 -13424408.32747  21722760.556    21722766.749
       238.000         196.000
  23243827.176   -10153626.23249  -7567974.16146  23243825.974    23243832.550
       218.000         163.000
  22137311.673   -14188511.61749 -11023315.70347  22137310.989    22137316.925
       234.000         192.000
  21931166.905     4168395.35949   3258765.68646  21931166.469    21931173.126
       228.000         182.000
  20320902.812   -28499397.60949 -22175239.26847  20320901.972    20320907.704
       244.000         212.000
  20972194.499   -25883187.22849 -20136996.67647  20972194.042    20972198.436
       243.000         208.000
 03  3 20  1 22 30.0000000  0  8G14G 9G 3G31G23G17G15G18
  21424535.574   -17875486.73849 -13194146.73147  21424534.723    21424539.761
       238.000         197.000
  23687857.672   -12977627.64949 -10097580.51745  23687857.248    23687863.933
       211.000         150.000
  21718997.282   -17275060.63149 -13439819.91147  21718996.572    21719002.897
       237.000         196.000
  23231031.951   -10220865.50049  -7620368.32646  23231031.581    23231037.650
       216.000         163.000
  22147916.052   -14132785.26449 -10979892.57247  22147915.457    22147921.458
       234.000         191.000
  21942141.239     4226065.89249   3303703.75746  21942140.792    21942147.840
       229.000         182.000
  20323172.926   -28487468.19249 -22165943.61147  20323172.181    20323177.781
       244.000         212.000
  20979860.634   -25842901.32749 -20105605.05647  20979860.245    20979864.261
       242.000         208.000
 03  3 20  1 23  0.0000000  0  8G14G 9G 3G31G23G17G15G18
  21409519.986   -17954393.87449 -13255632.74647  21409519.348    21409524.367
       239.000         197.000
  23681719.808   -13009881.86749 -10122713.57845  23681719.357    23681726.036
       213.000         150.000
  21715340.039   -17294279.48449 -13454795.62847  21715339.793    21715345.718
       237.000         196.000
  23218322.658   -10287653.06249  -7672410.52546  23218321.850    23218327.760
       217.000         163.000
  22158533.255   -14076991.35049 -10936416.79847  22158532.667    22158538.815
       235.000         191.000
  21953174.887     4284048.22249   3348884.78246  21953174.563    21953181.008
       229.000         182.000
  20325513.367   -28475169.14849 -22156359.93147  20325512.570    20325518.222
       244.000         212.000
  20987564.215   -25802418.67549 -20074060.12047  20987563.892    20987568.053
       243.000         208.000
 03  3 20  1 23 30.0000000  0  8G14G 9G 3G31G23G17G15G18
  21394583.370   -18032886.09349 -13316795.44947  21394582.848    21394587.596
       238.000         198.000
  23675673.555   -13041654.58849 -10147471.45445  23675672.063    23675680.639
       213.000         149.000
  21711789.343   -17312938.50349 -13469335.10247  21711789.051    21711795.401
       237.000         196.000
  23205699.622   -10353987.05049  -7724099.28146  23205699.149    23205705.172
       219.000         164.000
  22169163.092   -14021131.19949 -10892889.40947  22169162.288    22169168.347
       235.000         191.000
  21964267.927     4342342.19949   3394308.66546  21964267.124    21964274.128
       228.000         182.000
  20327924.241   -28462499.83849 -22146487.73247  20327923.471    20327929.187
       244.000         212.000
  20995304.992   -25761740.60649 -20042362.91747  20995304.563    20995308.948
       242.000         208.000
 03  3 20  1 24  0.0000000  0  8G14G 9G 3G31G23G17G15G18
  21379726.136   -18110960.96749 -13377632.94447  21379725.254    21379730.543
       239.000         198.000
  23669719.396   -13072943.42749 -10171852.28445  23669718.755    23669726.331
       213.000         151.000
  21708345.326   -17331036.85149 -13483437.69347  21708344.975    21708350.723
       238.000         196.000
  23193163.459   -10419864.98149  -7775432.67446  23193163.147    23193168.078
       218.000         164.000
  22179805.439   -13965205.30149 -10849310.78647  22179804.801    22179810.958
       234.000         191.000
  21975420.307     4400948.37149   3439975.80446  21975419.164    21975426.881
       228.000         181.000
  20330405.755   -28449459.33249 -22136326.29347  20330404.914    20330410.720
       244.000         212.000
  21003082.769   -25720868.12749 -20010514.22247  21003082.289    21003086.680
       243.000         208.000
 03  3 20  1 24 30.0000000  0  8G14G 9G 3G31G23G17G15G18
  21364948.670   -18188616.73549 -13438143.86147  21364948.184    21364952.983
       239.000         198.000
  23663857.802   -13103746.23049 -10195854.37245  23663857.452    23663864.859
       213.000         152.000
  21705008.018   -17348574.47449 -13497103.35447  21705007.566    21705013.495
       238.000         197.000
  23180714.345   -10485285.08449  -7826409.30846  23180713.816    23180720.277
       220.000         164.000
  22190460.111   -13909214.77749 -10805681.80047  22190459.395    22190465.449
       234.000         191.000
  21986632.060     4459866.73849   3485886.21546  21986630.832    21986638.463
       228.000         181.000
  20332958.021   -28436047.04449 -22125875.14547  20332957.287    20332963.026
       244.000         212.000
  21010897.222   -25679802.81449 -19978515.26647  21010896.649    21010900.970
       242.000         208.000
 03  3 20  1 25  0.0000000  0  8G14G 9G 3G31G23G17G15G18
  21350251.283   -18265851.81749 -13498326.97847  21350251.009    21350255.578
       238.000         198.000
  23658088.998   -13134061.24049 -10219476.38345  23658089.026    23658095.436
       214.000         152.000
  21701777.356   -17365551.56649 -13510332.23947  21701777.032    21701783.139
       238.000         197.000
  23168352.724   -10550245.69249  -7877027.90946  23168352.533    23168358.767
       218.000         165.000
  22201126.776   -13853160.89649 -10762003.45647  22201126.220    22201132.012
       235.000         190.000
  21997903.111     4519096.61649   3532039.35646  21997902.459    21997909.217
       228.000         180.000
  20335581.122   -28422262.39449 -22115133.85047  20335580.411    20335586.177
       244.000         212.000
  21018748.136   -25638546.01849 -19946367.11047  21018747.734    21018752.030
       243.000         208.000
 03  3 20  1 25 30.0000000  0  8G14G 9G 3G31G23G17G15G18
  21335634.429   -18342663.60649 -13558180.25047  21335633.548    21335638.773
       240.000         199.000
  23652413.507   -13163885.83849 -10242716.25545  23652413.175    23652420.707
       214.000         152.000
  21698653.574   -17381967.06049 -13523123.51747  21698653.225    21698659.155
       239.000         197.000
  23156078.967   -10614744.19349  -7927286.40746  23156078.820    23156083.837
       219.000         165.000
  22211805.451   -13797044.09549 -10718276.07947  22211804.917    22211811.080
       235.000         190.000
  22009233.593     4578638.37749   3578435.52446  22009232.785    22009240.471
       228.000         180.000
  20338275.360   -28408103.98149 -22104101.31247  20338274.615    20338280.404
       245.000         211.000
  21026635.413   -25597098.19249 -19914070.10047  21026634.854    21026639.145
       243.000         208.000
 03  3 20  1 26  0.0000000  0  8G14G 9G 3G31G23G17G15G18
  21321098.371   -18419050.66549 -13617702.55947  21321097.811    21321102.820
       239.000         199.000
  23646831.604   -13193218.68349 -10265572.94045  23646831.879    23646838.316
       214.000         153.000
  21695636.696   -17397821.01649 -13535477.22547  21695636.563    21695641.970
       237.000         197.000
  23143893.503   -10678779.06549  -7977183.66046  23143892.886    23143900.047
       219.000         165.000
  22222495.810   -13740865.90249 -10674500.86047  22222495.067    22222501.076
       235.000         190.000
  22020623.321     4638491.75749   3625074.50846  22020622.260    22020628.838
       228.000         180.000
  20341040.757   -28393571.76349 -22092777.49847  20341040.141    20341045.846
       244.000         211.000
  21034558.636   -25555461.16849 -19881625.65847  21034558.009    21034562.397
       242.000         207.000
 03  3 20  1 26 30.0000000  0  8G14G 9G 3G31G23G17G15G18
  21306643.711   -18495010.24749 -13676891.77947  21306643.168    21306647.979
       239.000         199.000
  23641343.874   -13222056.82149 -10288044.14545  23641343.488    23641350.007
       213.000         153.000
  21692726.854   -17413112.18349 -13547392.40747  21692726.568    21692732.450
       238.000         197.000
  23131796.745   -10742347.64249  -8026717.53946  23131796.411    23131802.486
       219.000         165.000
  22233197.812   -13684626.43549 -10630677.90347  22233197.118    22233203.602
       234.000         190.000
  22032072.494     4698657.86349   3671957.17246  22032071.694    22032078.460
       227.000         179.000
  20343877.619   -28378663.88749 -22081160.97247  20343876.897    20343882.601
       244.000         211.000
  21042517.807   -25513635.30449 -19849034.07647  21042517.408    21042521.671
       242.000         207.000
 03  3 20  1 27  0.0000000  0  8G14G 9G 3G31G23G17G15G18
  21292270.734   -18570540.53649 -13735746.47747  21292270.188    21292275.018
       240.000         200.000
  23635950.604   -13250398.31449 -10310128.35145  23635949.443    23635957.555
       215.000         152.000
  21689924.154   -17427840.43649 -13558868.94947  21689923.748    21689929.772
       238.000         197.000
  23119789.084   -10805447.93449  -8075886.55346  23119788.254    23119794.573
       219.000         165.000
  22243911.292   -13628326.68549 -10586807.96947  22243910.741    22243916.673
       235.000         189.000
  22043581.119     4759136.20749   3719083.14346  22043580.607    22043587.714
       227.000         179.000
  20346786.088   -28363379.77249 -22069251.26347  20346785.543    20346790.975
       245.000         212.000
  21050512.690   -25471621.94149 -19816296.37947  21050512.034    21050516.593
       242.000         207.000
 03  3 20  1 27 30.0000000  0  8G14G 9G 3G31G23G17G15G18
  21277979.840   -18645639.52149 -13794265.09447  21277979.082    21277984.353
       239.000         200.000
  23630652.232   -13278241.00749 -10331823.89145  23630650.881    23630657.792
       213.000         152.000
  21687228.656   -17442005.35449 -13569906.53547  21687228.314    21687233.954
       238.000         197.000
  23107870.915   -10868077.93849  -8124689.09946  23107869.974    23107876.113
       220.000         165.000
  22254636.112   -13571967.34449 -10542891.60147  22254635.666    22254641.306
       234.000         189.000
  22055149.162     4819926.62849   3766452.29146  22055148.668    22055155.872
       226.000         178.000
  20349766.337   -28347718.50749 -22057047.66747  20349765.630    20349771.295
       244.000         212.000
  21058543.029   -25429422.04649 -19783413.34347  21058542.544    21058546.815
       242.000         207.000
 03  3 20  1 28  0.0000000  0  8G14G 9G 3G31G23G17G15G18
  21263771.398   -18720305.10949 -13852446.00347  21263770.868    21263775.776
       239.000         200.000
  23625449.147   -13305582.92949 -10353129.22945  23625448.942    23625455.680
       213.000         152.000
  21684640.398   -17455606.62149 -13580504.90947  21684640.176    21684645.788
       237.000         197.000
  23096042.666   -10930235.63149  -8173123.61046  23096042.532    23096048.057
       220.000         165.000
  22265372.094   -13515549.50249 -10498929.64347  22265372.044    22265377.586
       234.000         189.000
  22066776.612     4881029.39749   3814064.83246  22066776.179    22066782.363
       226.000         178.000
  20352818.439   -28331679.51349 -22044549.73847  20352817.608    20352823.426
       244.000         212.000
  21066608.648   -25387037.06449 -19750386.08147  21066608.071    21066612.299
       242.000         207.000
 03  3 20  1 28 30.0000000  0  8G14G 9G 3G31G23G17G15G18
  21249645.689   -18794535.75849 -13910287.99847  21249644.977    21249649.914
       240.000         201.000
  23620341.694   -13332422.36749 -10374043.01145  23620341.678    23620348.107
       214.000         153.000
  21682159.347   -17468644.38549 -13590664.19047  21682159.034    21682164.807
       238.000         197.000
  23084304.595   -10991919.58649  -8221188.98846  23084303.949    23084309.811
       221.000         166.000
  22276118.982   -13459074.26949 -10454922.96847  22276118.254    22276124.106
       234.000         189.000
  22078463.405     4942444.01449   3861920.36246  22078461.879    22078469.949
       225.000         178.000
  20355942.533   -28315262.38049 -22031757.15947  20355941.775    20355947.396
       244.000         212.000
  21074709.175   -25344468.39549 -19717215.69147  21074708.883    21074713.023
       242.000         207.000
 03  3 20  1 29  0.0000000  0  8G14G 9G 3G31G23G17G15G18
  21235603.205   -18868329.30849 -13967789.39747  21235602.548    21235607.463
       240.000         201.000
  23615330.324   -13358757.05049 -10394563.48545  23615329.867    23615336.580
       214.000         153.000
  21679785.718   -17481117.78749 -13600383.71147  21679785.217    21679791.204
       238.000         197.000
  23072657.157   -11053127.25349  -8268883.23146  23072657.072    23072663.302
       221.000         166.000
  22286876.684   -13402542.23449 -10410872.02847  22286875.737    22286881.821
       234.000         188.000
  22090209.682     5004171.02049   3910019.31746  22090209.186    22090215.971
       225.000         177.000
  20359138.826   -28298465.61449 -22018668.75447  20359138.072    20359143.692
       244.000         212.000
  21082844.576   -25301716.59549 -19683902.59947  21082844.201    21082848.400
       242.000         206.000
 03  3 20  1 29 30.0000000  0  8G14G 9G 3G31G23G17G15G18
  21221644.167   -18941684.25049 -14024949.02947  21221643.552    21221648.220
       240.000         201.000
  23610415.353   -13384585.33049 -10414689.36245  23610415.819    23610421.825
       214.000         153.000
  21677519.441   -17493027.02149 -13609663.62347  21677519.146    21677525.041
       237.000         197.000
  23061100.600   -11113857.14649  -8316205.17846  23061100.312    23061106.084
       221.000         166.000
  22297644.961   -13345954.59449 -10366777.77147  22297644.522    22297650.686
       234.000         188.000
  22102015.320     5066210.05949   3958361.41146  22102014.804    22102021.618
       225.000         177.000
  20362407.408   -28281289.01049 -22005284.37647  20362406.589    20362412.315
       244.000         212.000
  21091014.541   -25258782.99849 -19650447.85147  21091013.875    21091018.507
       242.000         206.000
 03  3 20  1 30  0.0000000  0  8G14G 9G 3G31G23G17G15G18
  21207768.989   -19014598.46049 -14081765.22847  21207768.048    21207773.294
       240.000         202.000
  23605597.166   -13409905.04949 -10434418.95445  23605596.775    23605604.035
       214.000         153.000
  21675360.629   -17504371.65349 -13618503.57947  21675360.130    21675366.070
       238.000         197.000
  23049635.423   -11174107.02249  -8363153.08046  23049634.360    23049639.881
       221.000         167.000
  22308423.713   -13289311.89149 -10322640.59347  22308423.230    22308429.027
       233.000         188.000
  22113880.302     5128561.01949   4006946.56746  22113880.169    22113887.051
       226.000         177.000
  20365748.445   -28263731.60849 -21991603.26847  20365747.806    20365753.278
       244.000         212.000
  21099218.936   -25215668.81749 -19616852.38247  21099218.535    21099222.815
       242.000         206.000
 03  3 20  1 30 30.0000000  0  8G14G 9G 3G31G23G17G15G18
  21193978.022   -19087070.13449 -14138236.59747  21193977.265    21193982.143
       240.000         202.000
  23600876.092   -13434714.36649 -10453750.83945  23600875.344    23600882.454
       214.000         154.000
  21673309.170   -17515151.94849 -13626903.79447  21673308.860    21673314.716
       237.000         197.000
  23038261.845   -11233875.10549  -8409725.57046  23038261.134    23038267.453
       220.000         167.000
  22319212.762   -13232615.04549 -10278461.23847  22319211.921    22319217.934
       233.000         188.000
  22125804.679     5191223.67649   4055774.60746  22125803.785    22125810.299
       225.000         177.000
  20369162.108   -28245792.74749 -21977624.92147  20369161.363    20369166.937
       244.000         212.000
  21107457.472   -25172375.03749 -19583116.96647  21107457.072    21107461.225
       241.000         206.000
 03  3 20  1 31  0.0000000  0  8G14G 9G 3G31G23G17G15G18
  21180271.697   -19159097.12149 -14194361.46447  21180271.173    21180275.831
       240.000         202.000
  23596252.530   -13459011.06649 -10472683.27845  23596252.155    23596259.403
       214.000         154.000
  21671365.270   -17525367.24049 -13634863.75647  21671365.036    21671370.953
       237.000         197.000
  23026980.376   -11293159.32849  -8455921.01946  23026979.734    23026985.766
       221.000         168.000
  22330011.987   -13175864.53649 -10234240.06946  22330011.615    22330017.266
       233.000         187.000
  22137788.417     5254198.48649   4104845.87246  22137787.748    22137794.470
       225.000         177.000
  20372648.503   -28227471.45649 -21963348.59147  20372647.919    20372653.360
       244.000         212.000
  21115729.977   -25128902.62549 -19549242.36147  21115729.605    21115733.890
       242.000         206.000
 03  3 20  1 31 30.0000000  0  8G14G 9G 3G31G23G17G15G18
  21166650.345   -19230677.68649 -14250138.46447  21166649.743    21166654.951
       240.000         202.000
  23591726.900   -13482793.59749 -10491215.06745  23591726.548    23591733.621
       213.000         154.000
  21669528.902   -17535017.41549 -13642383.36347  21669528.508    21669534.335
       237.000         197.000
  23015791.373   -11351957.84849  -8501737.99646  23015790.580    23015796.324
       221.000         168.000
  22340821.237   -13119061.49349 -10189977.96046  22340820.632    22340826.574
       233.000         187.000
  22149831.463     5317485.00849   4154160.03546  22149831.341    22149838.184
       225.000         177.000
  20376207.760   -28208767.40849 -21948774.00347  20376206.876    20376212.569
       244.000         212.000
  21124036.298   -25085252.69749 -19515229.42647  21124035.744    21124040.058
       242.000         206.000
 03  3 20  1 32  0.0000000  0  8G14G 9G 3G31G23G17G15G18
  21153114.169   -19301810.34849 -14305566.44847  21153113.454    21153118.248
       240.000         202.000
  23587299.383   -13506060.06949 -10509344.72845  23587299.392    23587305.534
       214.000         154.000
  21667800.049   -17544102.50349 -13649462.63747  21667799.754    21667805.387
       238.000         197.000
  23004695.059   -11410269.11349  -8547175.29446  23004694.421    23004700.809
       220.000         168.000
  22351640.273   -13062206.95349 -10145675.71746  22351639.542    22351645.597
       232.000         187.000
  22161933.731     5381082.82649   4203716.76446  22161933.393    22161940.717
       226.000         176.000
  20379840.009   -28189679.94949 -21933900.64947  20379839.251    20379844.956
       244.000         212.000
  21132376.158   -25041426.46749 -19481079.11747  21132375.551    21132380.127
       241.000         205.000
 03  3 20  1 32 30.0000000  0  8G14G 9G 3G31G23G17G15G18
  21139663.701   -19372492.79949 -14360643.62447  21139663.176    21139668.043
       240.000         203.000
  23582970.406   -13528808.40049 -10527070.62945  23582969.400    23582976.016
       213.000         153.000
  21666178.753   -17552622.43149 -13656101.53347  21666178.327    21666184.241
       237.000         197.000
  22993691.887   -11468090.89549  -8592231.18346  22993691.469    22993697.497
       220.000         168.000
  22362469.044   -13005301.34749 -10101333.68446  22362468.435    22362474.565
       233.000         186.000
  22174095.422     5444992.76849   4253516.70346  22174094.774    22174101.583
       226.000         176.000
  20383545.453   -28170207.69649 -21918727.46447  20383544.746    20383550.598
       244.000         212.000
  21140749.375   -24997424.86949 -19446792.15547  21140748.664    21140753.119
       242.000         205.000
 03  3 20  1 33  0.0000000  0  8G14G 9G 3G31G23G17G15G18
  21126299.245   -19442723.32549 -14415368.65347  21126298.728    21126303.455
       240.000         203.000
  23578740.381   -13551036.68549 -10544391.29545  23578740.198    23578747.550
       214.000         153.000
  21664665.044   -17560577.05149 -13662299.93147  21664664.735    21664670.778
       238.000         197.000
  22982782.251   -11525421.40049  -8636904.25546  22982781.422    22982787.641
       221.000         168.000
  22373307.423   -12948345.36349 -10056952.39846  22373306.802    22373313.017
       233.000         186.000
  22186316.394     5509214.50749   4303559.60746  22186315.423    22186321.576
       225.000         176.000
  20387324.211   -28150350.10749 -21903254.01647  20387323.360    20387329.224
       244.000         212.000
  21149155.741   -24953248.92749 -19412369.34247  21149155.384    21149159.447
       241.000         205.000
 03  3 20  1 33 30.0000000  0  8G14G 9G 3G31G23G17G15G18
  21113021.071   -19512500.29249 -14469740.25247  21113020.500    21113025.156
       241.000         203.000
  23574609.700   -13572743.25149 -10561305.43345  23574609.238    23574616.132
       214.000         152.000
  21663258.886   -17567966.27449 -13668057.75347  21663258.288    21663264.374
       237.000         197.000
  22971966.320   -11582258.88549  -8681193.15046  22971965.269    22971972.103
       221.000         169.000
  22384155.176   -12891339.85849 -10012532.52146  22384154.582    22384160.408
       233.000         186.000
  22198596.633     5573747.69349   4353845.18846  22198596.451    22198603.036
       224.000         176.000
  20391176.429   -28130106.66249 -21887479.90447  20391175.873    20391181.387
       244.000         212.000
  21157595.124   -24908899.74949 -19377811.53547  21157594.602    21157598.857
       242.000         205.000
 03  3 20  1 34  0.0000000  0  8G14G 9G 3G31G23G17G15G18
  21099829.539   -19581821.94449 -14523757.06647  21099828.852    21099833.762
       241.000         204.000
  23570578.700   -13593926.38849 -10577811.70745  23570578.888    23570584.939
       214.000         153.000
  21661960.338   -17574790.10949 -13673375.02347  21661959.917    21661966.054
       237.000         197.000
  22961244.594   -11638601.56749  -8725096.49146  22961243.702    22961250.280
       222.000         169.000
  22395012.274   -12834285.57049  -9968074.63246  22395011.926    22395017.614
       232.000         185.000
  22210936.107     5638592.16849   4404373.34046  22210935.519    22210943.185
       224.000         175.000
  20395102.175   -28109476.76449 -21871404.65047  20395101.415    20395107.245
       244.000         212.000
  21166067.237   -24864378.45249 -19343119.61247  21166066.497    21166071.263
       242.000         205.000
 03  3 20  1 34 30.0000000  0  8G14G 9G 3G31G23G17G15G18
  21086725.009   -19650686.55749 -14577417.74547  21086724.384    21086729.127
       242.000         204.000
  23566647.552   -13614584.41049 -10593908.79345  23566647.739    23566653.871
       214.000         153.000
  21660769.411   -17581048.64549 -13678251.80147  21660768.932    21660774.788
       238.000         197.000
  22950617.389   -11694447.67749  -8768612.88046  22950617.018    22950622.823
       221.000         169.000
  22405878.486   -12777183.23949  -9923579.31046  22405877.963    22405884.147
       232.000         185.000
  22223334.802     5703747.78449   4455143.93646  22223334.066    22223341.096
       225.000         175.000
  20399101.614   -28088459.55749 -21855027.60547  20399100.706    20399106.463
       244.000         212.000
  21174571.921   -24819686.10249 -19308294.40147  21174571.369    21174575.813
       241.000         204.000
 03  3 20  1 35  0.0000000  0  8G14G 9G 3G31G23G17G15G18
  21073707.672   -19719092.86549 -14630721.30547  21073706.976    21073711.980
       241.000         204.000
  23562816.638   -13634715.95549 -10609595.63045  23562816.152    23562822.977
       215.000         153.000
  21659685.982   -17586742.22449 -13682688.35547  21659685.812    21659691.420
       238.000         197.000
  22940084.943   -11749796.01649  -8811741.41046  22940084.890    22940090.854
       222.000         170.000
  22416753.605   -12720034.32849  -9879047.69146  22416752.815    22416758.920
       232.000         185.000
  22235792.721     5769214.04649   4506156.59046  22235791.882    22235799.433
       224.000         175.000
  20403174.731   -28067054.87549 -21838348.63347  20403173.807    20403179.621
       244.000         211.000
  21183108.874   -24774824.03949 -19273336.94647  21183108.319    21183112.895
       241.000         204.000
 03  3 20  1 35 30.0000000  0  8G14G 9G 3G31G23G17G15G18
  21060778.010   -19787038.57249 -14683665.95147  21060777.317    21060782.178
       241.000         205.000
  23559086.296   -13654318.65949 -10624870.39045  23559085.804    23559092.665
       214.000         153.000
  21658710.124   -17591870.39349 -13686684.32547  21658709.987    21658715.358
       237.000         197.000
  22929647.720   -11804644.08849  -8854480.10746  22929647.046    22929653.283
       223.000         170.000
  22427637.502   -12662838.80249  -9834479.74546  22427636.570    22427643.450
       232.000         185.000
  22248309.703     5834991.20049   4557411.50446  22248309.626    22248316.410
       224.000         175.000
  20407321.846   -28045261.63549 -21821366.88547  20407321.046    20407326.780
       244.000         211.000
  21191678.005   -24729792.82749 -19238247.67947  21191677.557    21191681.698
       241.000         204.000
 03  3 20  1 36  0.0000000  0  8G14G 9G 3G31G23G17G15G18
  21047936.289   -19854522.01249 -14736250.39247  21047935.557    21047940.334
       242.000         205.000
  23555456.817   -13673391.15149 -10639731.99445  23555456.157    23555463.461
       214.000         153.000
  21657841.766   -17596433.51449 -13690240.00047  21657841.578    21657847.228
       237.000         197.000
  22919305.901   -11858990.41049  -8896827.84246  22919305.405    22919311.361
       223.000         171.000
  22438530.146   -12605597.49249  -9789876.13146  22438529.559    22438535.146
       231.000         185.000
  22260885.812     5901079.10049   4608908.55046  22260884.540    22260892.779
       223.000         174.000
  20411543.044   -28023079.27249 -21804081.92947  20411542.303    20411548.013
       244.000         211.000
  21200279.138   -24684593.49449 -19203027.41747  21200278.633    21200283.071
       241.000         204.000
 03  3 20  1 36 30.0000000  0  8G14G 9G 3G31G23G17G15G18
  21035182.924   -19921541.25349 -14788473.12047  21035182.266    21035186.998
       242.000         205.000
  23551928.606   -13691931.46749 -10654178.91845  23551928.109    23551935.626
       215.000         153.000
  21657081.002   -17600431.35049 -13693355.18647  21657080.435    21657086.625
       237.000         197.000
  22909059.998   -11912832.89249  -8938782.97446  22909059.578    22909065.001
       223.000         171.000
  22449431.480   -12548310.84449  -9745237.18846  22449431.122    22449436.919
       231.000         184.000
  22273521.036     5967477.83849   4660647.82146  22273520.433    22273527.439
       223.000         174.000
  20415838.433   -28000506.90349 -21786493.06847  20415837.520    20415843.366
       244.000         211.000
  21208912.113   -24639226.86749 -19167676.78547  21208911.726    21208915.850
       241.000         204.000
 03  3 20  1 37  0.0000000  0  8G14G 9G 3G31G23G17G15G18
  21022518.070   -19988095.20149 -14840333.28147  21022517.234    21022522.111
       242.000         205.000
  23548501.988   -13709938.23649 -10668210.09445  23548501.452    23548508.710
       215.000         154.000
  21656427.709   -17603864.38249 -13696030.26647  21656426.828    21656433.472
       237.000         197.000
  22898910.201   -11966170.37549  -8980344.59746  22898909.475    22898915.965
       223.000         171.000
  22460341.204   -12490980.00849  -9700563.80546  22460340.570    22460346.538
       231.000         184.000
  22286215.248     6034186.55549   4712628.61646  22286214.425    22286221.771
       223.000         173.000
  20420208.045   -27977544.23549 -21768600.08347  20420207.295    20420213.010
       244.000         211.000
  21217576.677   -24593694.53049 -19132197.03747  21217576.208    21217580.489
       241.000         204.000
 03  3 20  1 37 30.0000000  0  8G14G 9G 3G31G23G17G15G18
  21009942.113   -20054182.13149 -14891829.53347  21009941.480    21009946.412
       242.000         206.000
  23545177.225   -13727409.83449 -10681824.25445  23545176.334    23545183.308
       213.000         154.000
  21655881.926   -17606732.49649 -13698265.15647  21655881.295    21655887.407
       238.000         197.000
  22888856.808   -12019000.96149  -9021511.23946  22888856.414    22888862.061
       223.000         171.000
  22471259.150   -12433605.64549  -9655856.51246  22471258.681    22471264.965
       231.000         184.000
  22298968.551     6101205.23949   4764850.96046  22298968.076    22298974.878
       224.000         173.000
  20424652.140   -27954190.39649 -21750402.28647  20424651.478    20424657.155
       244.000         211.000
  21226272.558   -24547997.23549 -19096588.75147  21226271.958    21226276.365
       241.000         204.000
 03  3 20  1 38  0.0000000  0  8G14G 9G 3G31G23G17G15G18
  20997455.417   -20119799.92449 -14942960.22547  20997454.675    20997459.380
       242.000         206.000
  23541954.600   -13744344.57649 -10695020.09045  23541953.924    23541961.158
       215.000         155.000
  21655443.628   -17609035.75049 -13700059.89047  21655443.448    21655449.256
       237.000         197.000
  22878900.267   -12071322.76449  -9062281.42646  22878899.857    22878905.283
       223.000         171.000
  22482185.318   -12376188.14949  -9611115.61146  22482184.887    22482190.963
       231.000         183.000
  22311780.811     6168533.78249   4817314.74446  22311780.186    22311786.886
       223.000         173.000
  20429170.805   -27930444.53449 -21731899.01547  20429170.160    20429175.785
       244.000         211.000
  21234999.591   -24502136.28549 -19060852.93847  21234999.096    21235003.295
       241.000         204.000
 03  3 20  1 38 30.0000000  0  8G14G 9G 3G31G23G17G15G18
  20985058.232   -20184947.40349 -14993724.43847  20985057.627    20985062.368
       243.000         206.000
  23538834.436   -13760741.13249 -10707796.54145  23538834.134    23538840.411
       215.000         155.000
  21655112.681   -17610774.62349 -13701414.85047  21655112.388    21655118.275
       237.000         197.000
  22869040.834   -12123134.40649  -9102654.09146  22869040.643    22869046.583
       223.000         170.000
  22493119.531   -12318728.56449  -9566341.91546  22493118.438    22493125.302
       231.000         183.000
  22324651.898     6236171.70649   4870019.60846  22324650.786    22324658.188
       223.000         172.000
  20433764.178   -27906306.22549 -21713089.93747  20433763.430    20433769.161
       244.000         211.000
  21243757.769   -24456111.77949 -19024989.68247  21243757.353    21243761.505
       242.000         204.000
 03  3 20  1 39  0.0000000  0  8G14G 9G 3G31G23G17G15G18
  20972750.964   -20249622.36349 -15044120.45547  20972750.307    20972754.946
       243.000         206.000
  23535817.058   -13776597.36649 -10720151.97945  23535816.843    23535823.090
       215.000         155.000
  21654889.271   -17611948.57649 -13702329.60947  21654888.473    21654894.542
       237.000         197.000
  22859278.852   -12174433.66349  -9142627.50346  22859278.021    22859283.197
       223.000         170.000
  22504061.740   -12261226.86549  -9521535.39046  22504061.343    22504066.958
       231.000         183.000
  22337582.011     6304120.18849   4922966.45446  22337581.314    22337588.323
       222.000         172.000
  20438432.467   -27881774.22149 -21693974.09147  20438431.738    20438437.512
       244.000         211.000
  21252546.862   -24409924.79949 -18988999.82647  21252546.188    21252550.805
       241.000         204.000
 03  3 20  1 39 30.0000000  0  8G14G 9G 3G31G23G17G15G18
  20960533.814   -20313823.64549 -15094147.37547  20960533.255    20960537.929
       243.000         207.000
  23532902.645   -13791912.22649 -10732085.57645  23532902.561    23532909.511
       215.000         156.000
  21654773.208   -17612558.44149 -13702804.81747  21654772.663    21654778.375
       237.000         197.000
  22849614.579   -12225219.47149  -9182200.81946  22849613.642    22849619.856
       224.000         171.000
  22515011.709   -12203684.24149  -9476696.98346  22515010.902    22515017.538
       230.000         183.000
  22350570.971     6372377.76849   4976154.16446  22350570.332    22350577.495
       221.000         171.000
  20443175.637   -27856848.73449 -21674551.62847  20443174.815    20443180.500
       244.000         211.000
  21261366.566   -24363576.78249 -18952884.48347  21261366.053    21261370.518
       241.000         203.000
 03  3 20  1 40  0.0000000  0  8G14G 9G 3G31G23G17G15G18
  20948407.138   -20377549.47649 -15143803.81547  20948406.650    20948411.244
       243.000         207.000
  23530091.665   -13806683.86849 -10743595.88245  23530090.777    23530097.610
       216.000         155.000
  21654764.507   -17612604.15649 -13702840.42647  21654764.029    21654770.036
       237.000         197.000
  22840048.361   -12275489.98849  -9221372.61446  22840046.994    22840053.794
       223.000         171.000
  22525969.396   -12146100.98649  -9431826.91246  22525968.766    22525975.204
       231.000         182.000
  22363618.859     6440944.80549   5029583.00646  22363618.469    22363625.571
       221.000         171.000
  20447993.819   -27831528.90349 -21654821.88547  20447993.109    20447998.697
       244.000         211.000
  21270216.849   -24317068.29949 -18916644.10047  21270216.406    21270220.512
       241.000         203.000
 03  3 20  1 40 30.0000000  0  8G14G 9G 3G31G23G17G15G18
  20936371.181   -20440798.77249 -15193088.92547  20936370.522    20936375.248
       243.000         207.000
  23527384.266   -13820911.18049 -10754682.01845  23527383.531    23527390.802
       215.000         155.000
  21654863.021   -17612086.51249 -13702437.05447  21654862.631    21654868.367
       237.000         197.000
  22830580.406   -12325244.02349  -9260141.95646  22830579.489    22830585.906
       222.000         171.000
  22536934.632   -12088478.21249  -9386926.04246  22536934.215    22536939.636
       231.000         182.000
  22376725.480     6509820.52449   5083252.38946  22376725.425    22376732.289
       223.000         171.000
  20452887.086   -27805814.64749 -21634784.78947  20452886.261    20452892.031
       244.000         211.000
  21279097.358   -24270400.90649 -18880279.88847  21279096.738    21279101.209
       241.000         203.000
 03  3 20  1 41  0.0000000  0  8G14G 9G 3G31G23G17G15G18
  20924426.182   -20503569.74449 -15242001.31947  20924425.652    20924430.187
       242.000         208.000
  23524780.611   -13834592.87649 -10765343.01845  23524779.624    23524786.805
       214.000         155.000
  21655068.650   -17611005.96549 -13701595.05947  21655068.258    21655074.033
       238.000         197.000
  22821211.063   -12374479.91249  -9298507.55646  22821209.985    22821216.203
       223.000         171.000
  22547907.326   -12030816.48349  -9341994.83346  22547906.229    22547912.861
       230.000         182.000
  22389890.804     6579004.57749   5137162.02146  22389889.972    22389897.349
       222.000         171.000
  20457855.537   -27779705.27449 -21614439.81847  20457854.752    20457860.469
       244.000         211.000
  21288007.919   -24223575.53049 -18843792.57547  21288007.319    21288011.856
       241.000         203.000
 03  3 20  1 41 30.0000000  0  8G14G 9G 3G31G23G17G15G18
  20912572.572   -20565860.80049 -15290539.75447  20912571.828    20912576.508
       242.000         208.000
  23522281.190   -13847726.99849 -10775577.33145  23522280.614    23522287.148
       216.000         156.000
  21655381.424   -17609362.31249 -13700314.27947  21655381.002    21655387.047
       238.000         197.000
  22811940.701   -12423195.82949  -9336467.98146  22811940.252    22811946.301
       223.000         171.000
  22558887.315   -11973116.19549  -9297033.57046  22558886.668    22558893.175
       231.000         182.000
  22403114.754     6648496.75149   5191311.75446  22403113.757    22403120.883
       221.000         170.000
  20462899.359   -27753199.89649 -21593786.27147  20462898.670    20462904.213
       244.000         211.000
  21296948.440   -24176592.77249 -18807182.63147  21296947.730    21296952.296
       241.000         203.000
 03  3 20  1 42  0.0000000  0  8G14G 9G 3G31G23G17G15G18
  20900810.505   -20627670.57349 -15338703.16147  20900809.950    20900814.341
       242.000         208.000
  23519886.279   -13860312.55349 -10785384.18345  23519885.362    23519891.222
       217.000         157.000
  21655801.274   -17607156.12749 -13698595.17147  21655800.981    21655806.547
       238.000         197.000
  22802769.523   -12471390.53649  -9374022.26346  22802769.271    22802774.989
       224.000         172.000
  22569874.491   -11915378.08049  -9252042.82946  22569873.941    22569879.797
       230.000         182.000
  22416397.262     6718296.98849   5245701.53946  22416396.392    22416404.196
       221.000         170.000
  20468018.573   -27726298.13349 -21572823.85747  20468017.716    20468023.426
       244.000         211.000
  21305918.670   -24129453.69249 -18770450.87047  21305918.060    21305922.372
       241.000         203.000
 03  3 20  1 42 30.0000000  0  8G14G 9G 3G31G23G17G15G18
  20889140.300   -20688997.80349 -15386490.56447  20889139.630    20889144.316
       243.000         208.000
  23517595.910   -13872348.19649 -10794762.53545  23517595.038    23517601.650
       216.000         157.000
  21656328.027   -17604387.96649 -13696438.15447  21656327.896    21656333.348
       238.000         197.000
  22793697.724   -12519062.90049  -9411169.53046  22793697.372    22793702.703
       224.000         173.000
  22580868.707   -11857603.15349  -9207023.40446  22580867.870    22580873.635
       230.000         181.000
  22429738.300     6788404.42549   5300330.69846  22429736.616    22429744.883
       222.000         170.000
  20473213.237   -27698999.88349 -21551552.48647  20473212.520    20473218.124
       244.000         211.000
  21314918.428   -24082159.64249 -18733598.35447  21314917.889    21314922.419
       241.000         203.000
 03  3 20  1 43  0.0000000  0  8G14G 9G 3G31G23G17G15G18
  20877562.172   -20749841.03249 -15433900.82947  20877561.525    20877566.072
       242.000         209.000
  23515410.452   -13883832.48149 -10803711.26945  23515410.270    23515416.331
       216.000         157.000
  21656961.616   -17601058.26449 -13693843.57947  21656961.388    21656967.187
       238.000         197.000
  22784725.761   -12566211.05349  -9447908.31446  22784725.723    22784731.462
       223.000         173.000
  22591869.868   -11799791.67749  -9161975.50346  22591869.234    22591875.266
       231.000         181.000
  22443137.806     6858819.20249   5355199.32746  22443137.249    22443143.813
       222.000         170.000
  20478483.564   -27671304.18049 -21529971.41347  20478482.721    20478488.363
       244.000         210.000
  21323947.542   -24034711.35949 -18696625.66447  21323946.919    21323951.670
       241.000         203.000
 03  3 20  1 43 30.0000000  0  8G14G 9G 3G31G23G17G15G18
  20866076.537   -20810198.24749 -15480932.37747  20866075.996    20866080.571
       242.000         209.000
  23513330.301   -13894763.64949 -10812228.99845  23513330.310    23513336.927
       215.000         157.000
  21657702.123   -17597166.97949 -13690811.40147  21657701.575    21657707.379
       238.000         197.000
  22775853.875   -12612833.20349  -9484237.22846  22775852.885    22775859.365
       224.000         173.000
  22602877.943   -11741943.88649  -9116899.30446  22602877.224    22602883.149
       230.000         181.000
  22456595.828     6929541.32949   5410307.46146  22456595.383    22456602.506
       222.000         170.000
  20483829.666   -27643210.08549 -21508079.90547  20483828.830    20483834.734
       244.000         210.000
  21333005.947   -23987109.19149 -18659533.06247  21333005.208    21333009.820
       241.000         203.000
 03  3 20  1 44  0.0000000  0  8G14G 9G 3G31G23G17G15G18
  20854683.494   -20870068.83949 -15527584.73547  20854682.863    20854687.451
       242.000         209.000
  23511355.467   -13905141.36749 -10820315.47545  23511355.307    23511361.879
       214.000         157.000
  21658549.220   -17592715.50049 -13687342.70747  21658548.759    21658554.477
       237.000         197.000
  22767082.195   -12658928.67649  -9520155.73646  22767081.617    22767087.280
       225.000         173.000
  22613892.643   -11684061.18549  -9071795.89446  22613892.228    22613898.037
       229.000         181.000
  22470112.090     7000569.76749   5465654.28346  22470111.166    22470118.386
       223.000         170.000
  20489251.447   -27614718.31949 -21485878.52347  20489250.787    20489256.392
       244.000         210.000
  21342093.276   -23939354.97549 -18622321.97647  21342092.877    21342096.917
       241.000         202.000
 03  3 20  1 44 30.0000000  0  8G14G 9G 3G31G23G17G15G18
  20843383.474   -20929450.73249 -15573856.29447  20843382.756    20843387.452
       242.000         209.000
  23509486.300   -13914963.48649 -10827969.01045  23509485.622    23509492.170
       215.000         156.000
  21659503.016   -17587703.27049 -13683437.07147  21659502.668    21659508.331
       238.000         197.000
  22758411.124   -12704495.27049  -9555662.14146  22758410.420    22758416.059
       225.000         173.000
  22624914.072   -11626143.24949  -9026665.03446  22624912.989    22624919.354
       230.000         181.000
  22483686.676     7071904.67049   5521239.90446  22483685.588    22483692.869
       222.000         169.000
  20494749.260   -27585827.27449 -21463366.01847  20494748.351    20494754.072
       244.000         210.000
  21351209.539   -23891448.72149 -18584992.42547  21351208.936    21351213.434
       240.000         202.000
 03  3 20  1 45  0.0000000  0  8G14G 9G 3G31G23G17G15G18
  20832176.681   -20988342.44749 -15619745.89747  20832176.215    20832180.728
       242.000         209.000
  23507722.994   -13924228.77649 -10835188.65145  23507722.243    23507728.802
       215.000         155.000
  21660563.360   -17582131.09449 -13679095.11447  21660563.244    21660568.612
       238.000         197.000
  22749840.961   -12749531.68649  -9590755.41246  22749840.433    22749846.326
       225.000         173.000
  22635942.064   -11568190.73849  -8981507.23546  22635941.634    22635947.575
       230.000         180.000
  22497319.505     7143545.57549   5577063.97046  22497318.710    22497325.927
       221.000         169.000
  20500323.068   -27556536.68949 -21440542.17347  20500322.302    20500327.998
       244.000         210.000
  21360354.504   -23843391.51649 -18547545.25347  21360353.925    21360358.224
       240.000         202.000
 03  3 20  1 45 30.0000000  0  8G14G 9G 3G31G23G17G15G18
  20821063.405   -21046742.99949 -15665252.77547  20821062.728    20821067.314
       242.000         209.000
  23506066.046   -13932936.05349 -10841973.48045  23506065.679    23506072.313
       215.000         156.000
  21661730.174   -17575999.47949 -13674317.22747  21661729.797    21661735.623
       238.000         197.000
  22741371.866   -12794036.68449  -9625434.60146  22741370.847    22741377.180
       226.000         173.000
  22646976.502   -11510204.31949  -8936323.01046  22646976.305    22646982.806
       230.000         180.000
  22511010.516     7215492.35849   5633126.37246  22511009.512    22511016.714
       222.000         169.000
  20505973.028   -27526846.01749 -21417406.57947  20505972.341    20505977.787
       243.000         210.000
  21369528.016   -23795184.26049 -18509981.15547  21369527.454    21369531.976
       241.000         202.000
 03  3 20  1 46  0.0000000  0  8G14G 9G 3G31G23G17G15G18
  20810043.664   -21104651.88149 -15710376.53547  20810043.017    20810047.569
       242.000         209.000
  23504515.270   -13941085.27749 -10848323.47245  23504515.063    23504521.535
       216.000         156.000
  21663003.065   -17569310.17049 -13669104.78147  21663002.505    21663008.520
       237.000         197.000
  22733004.002   -12838010.12849  -9659699.59446  22733003.339    22733008.665
       226.000         174.000
  22658017.067   -11452185.69949  -8891113.68946  22658016.552    22658022.400
       229.000         180.000
  22524759.524     7287743.65949   5689426.06546  22524758.174    22524765.884
       222.000         168.000
  20511698.987   -27496755.91649 -21393959.74147  20511698.107    20511703.845
       244.000         210.000
  21378729.678   -23746829.17049 -18472301.86447  21378729.134    21378733.566
       241.000         202.000
 03  3 20  1 46 30.0000000  0  8G14G 9G 3G31G23G17G15G18
  20799118.041   -21162066.20249 -15755114.92047  20799117.381    20799121.991
       242.000         209.000
  23503071.177   -13948673.63249 -10854236.40645  23503070.153    23503077.221
       215.000         157.000
  21664382.333   -17562062.01349 -13663456.86947  21664381.821    21664387.470
       237.000         197.000
  22724737.882   -12881448.82949  -9693547.89546  22724737.192    22724742.677
       226.000         174.000
  22669064.047   -11394133.76749  -8845878.41946  22669063.604    22669068.914
       230.000         180.000
  22538566.542     7360300.17549   5745963.59246  22538565.176    22538573.731
       221.000         168.000
  20517501.284   -27466264.60949 -21370200.27447  20517500.380    20517506.122
       244.000         210.000
  21387959.681   -23698325.29149 -18434506.63047  21387958.874    21387963.706
       241.000         202.000
 03  3 20  1 47  0.0000000  0  8G14G 9G 3G31G23G17G15G18
  20788286.631   -21218985.36549 -15799467.47147  20788285.969    20788290.608
       242.000         209.000
  23501733.966   -13955700.55549 -10859711.87645  23501733.409    23501740.078
       216.000         157.000
  21665867.688   -17554256.14349 -13657374.37747  21665867.292    21665873.367
       237.000         197.000
  22716573.647   -12924352.20249  -9726979.06746  22716573.633    22716578.329
       226.000         174.000
  22680117.051   -11336049.72149  -8800618.11846  22680116.082    22680122.117
       229.000         180.000
  22552431.621     7433161.48349   5802738.61046  22552430.997    22552438.023
       221.000         167.000
  20523379.889   -27435372.20449 -21346128.26447  20523379.010    20523384.587
       243.000         210.000
  21397217.703   -23649674.08149 -18396596.59347  21397217.095    21397221.295
       241.000         202.000
 03  3 20  1 47 30.0000000  0  8G14G 9G 3G31G23G17G15G18
  20777549.716   -21275408.25349 -15843433.31747  20777549.112    20777553.528
       242.000         210.000
  23500503.731   -13962165.37349 -10864749.33745  23500503.270    23500509.830
       217.000         156.000
  21667459.004   -17545893.79749 -13650858.27247  21667458.441    21667464.514
       237.000         197.000
  22708511.418   -12966719.25249  -9759992.33746  22708511.285    22708516.626
       227.000         175.000
  22691176.072   -11277934.36349  -8755333.42446  22691175.186    22691181.668
       229.000         180.000
  22566354.344     7506326.23749   5859750.08546  22566353.868    22566361.202
       221.000         167.000
  20529334.822   -27404078.76349 -21321743.76047  20529334.178    20529339.726
       243.000         210.000
  21406503.456   -23600876.93649 -18358572.84447  21406502.747    21406507.496
       240.000         201.000
 03  3 20  1 48  0.0000000  0  8G14G 9G 3G31G23G17G15G18
  20766907.456   -21331333.51949 -15887011.39947  20766906.959    20766911.515
       242.000         210.000
  23499380.752   -13968066.60049 -10869347.63445  23499380.367    23499386.003
       216.000         156.000
  21669156.169   -17536974.99049 -13643908.54947  21669155.955    21669161.661
       237.000         197.000
  22700551.625   -13008548.40849  -9792586.45546  22700551.525    22700556.101
       227.000         176.000
  22702240.910   -11219787.97949  -8710024.55446  22702240.376    22702245.986
       229.000         180.000
  22580335.003     7579794.85449   5916998.33946  22580334.720    22580341.920
       221.000         167.000
  20535366.234   -27372383.18649 -21297045.90747  20535365.432    20535371.092
       243.000         209.000
  21415816.911   -23551934.55549 -18320435.91747  21415816.489    21415820.746
       240.000         201.000
 03  3 20  1 48 30.0000000  0  8G14G 9G 3G31G23G17G15G18
  20756360.123   -21386759.94249 -15930200.77547  20756359.661    20756364.111
       243.000         210.000
  23498365.101   -13973403.41849 -10873506.12545  23498365.000    23498370.666
       215.000         156.000
  21670959.074   -17527500.70549 -13636525.99247  21670958.608    21670964.723
       237.000         197.000
  22692694.347   -13049838.49949  -9824760.52646  22692693.845    22692699.349
       225.000         175.000
  22713311.580   -11161611.24149  -8664692.02146  22713311.232    22713317.682
       229.000         179.000
  22594373.320     7653566.29149   5974482.54846  22594372.831    22594379.721
       220.000         167.000
  20541474.286   -27340285.26149 -21272034.53747  20541473.434    20541479.164
       243.000         209.000
  21425157.874   -23502847.39949 -18282186.18047  21425157.212    21425161.507
       240.000         201.000
 03  3 20  1 49  0.0000000  0  8G14G 9G 3G31G23G17G15G18
  20745908.092   -21441685.55249 -15972999.90947  20745907.607    20745911.948
       243.000         210.000
  23497457.262   -13978173.80649 -10877223.26645  23497456.479    23497463.757
       215.000         156.000
  21672867.643   -17517471.01049 -13628710.64747  21672867.416    21672873.219
       237.000         197.000
  22684940.045   -13090587.59649  -9856513.04946  22684938.904    22684945.244
       227.000         176.000
  22724388.090   -11103403.97749  -8619335.71046  22724387.454    22724393.378
       229.000         179.000
  22608469.328     7727641.14849   6032203.19346  22608469.103    22608475.714
       221.000         166.000
  20547659.086   -27307783.91749 -21246708.81447  20547658.272    20547663.894
       243.000         209.000
  21434526.216   -23453616.05549 -18243824.08447  21434525.757    21434530.387
       240.000         200.000
 03  3 20  1 49 30.0000000  0  8G14G 9G 3G31G23G17G15G18
  20735551.450   -21496109.91049 -16015408.45947  20735550.767    20735555.463
       242.000         210.000
  23496657.241   -13982377.82749 -10880499.07945  23496657.023    23496663.284
       214.000         156.000
  21674881.732   -17506887.15049 -13620463.48347  21674881.632    21674887.353
       238.000         197.000
  22677288.732   -13130795.35049  -9887843.74446  22677288.050    22677294.047
       227.000         176.000
  22735470.093   -11045167.56149  -8573956.68646  22735469.222    22735475.372
       229.000         179.000
  22622622.840     7802018.10549   6090159.24746  22622622.005    22622628.968
       220.000         166.000
  20553920.544   -27274879.74449 -21221069.19747  20553919.857    20553925.642
       243.000         209.000
  21443921.811   -23404241.88249 -18205350.69447  21443921.582    21443925.651
       240.000         200.000
 03  3 20  1 50  0.0000000  0  8G14G 9G 3G31G23G17G15G18
  20725290.412   -21550031.83749 -16057425.50247  20725289.651    20725294.302
       242.000         210.000
  23495965.203   -13986014.26449 -10883332.60645  23495964.532    23495970.733
       216.000         156.000
  21677001.055   -17495749.98749 -13611785.17147  21677000.865    21677006.630
       238.000         197.000
  22669740.726   -13170460.43349  -9918751.58346  22669740.385    22669746.117
       227.000         176.000
  22746557.583   -10986902.24349  -8528555.13046  22746556.537    22746562.822
       229.000         179.000
  22636833.713     7876696.95349   6148350.52446  22636833.097    22636840.116
       219.000         166.000
  20560258.749   -27241572.17449 -21195115.24047  20560257.980    20560263.834
       243.000         209.000
  21453344.405   -23354725.80849 -18166766.73147  21453343.609    21453348.067
       240.000         200.000
 03  3 20  1 50 30.0000000  0  8G14G 9G 3G31G23G17G15G18
  20715125.244   -21603449.94449 -16099049.95647  20715124.558    20715129.199
       242.000         210.000
  23495381.425   -13989081.95049 -10885722.96145  23495381.166    23495386.868
       216.000         156.000
  21679225.562   -17484060.27449 -13602676.30447  21679225.055    21679230.984
       238.000         197.000
  22662296.205   -13209581.53449  -9949235.53846  22662295.789    22662300.669
       227.000         176.000
  22757650.542   -10928608.34149  -8483131.31046  22757650.087    22757655.563
       229.000         179.000
  22651101.981     7951677.27449   6206776.73246  22651101.149    22651108.037
       219.000         165.000
  20566673.838   -27207860.77749 -21168846.61447  20566672.939    20566678.784
       243.000         209.000
  21462793.849   -23305068.69949 -18128072.86947  21462793.277    21462797.814
       240.000         200.000
 03  3 20  1 51  0.0000000  0  8G14G 9G 3G31G23G17G15G18
  20705056.230   -21656362.93549 -16140280.81647  20705055.668    20705060.222
       242.000         211.000
  23494905.986   -13991579.99049 -10887669.45345  23494905.725    23494911.443
       216.000         155.000
  21681555.094   -17471818.48349 -13593137.24047  21681554.952    21681560.832
       238.000         197.000
  22654955.436   -13248157.36849  -9979294.61446  22654955.131    22654960.642
       226.000         176.000
  22768748.921   -10870286.14049  -8437685.43646  22768748.104    22768754.370
       229.000         178.000
  22665427.465     8026958.55449   6265437.43946  22665427.241    22665434.448
       219.000         165.000
  20573165.792   -27173745.09349 -21142262.96447  20573165.064    20573170.584
       243.000         209.000
  21472270.045   -23255270.99949 -18089269.45947  21472269.237    21472273.941
       239.000         200.000
 03  3 20  1 51 30.0000000  0  8G14G 9G 3G31G23G17G15G18
  20695083.453   -21708770.02649 -16181117.47147  20695082.742    20695087.159
       242.000         211.000
  23494539.148   -13993507.58949 -10889171.43845  23494538.390    23494544.677
       216.000         155.000
  21683989.466   -17459025.83349 -13583168.93847  21683989.087    21683994.928
       238.000         197.000
  22647718.610   -13286187.06649 -10008928.12846  22647717.931    22647723.592
       228.000         176.000
  22779852.537   -10811936.26049  -8392217.99946  22779851.757    22779858.026
       229.000         178.000
  22679810.241     8102540.29349   6324332.28246  22679810.114    22679817.218
       221.000         165.000
  20579734.745   -27139225.04549 -21115364.22447  20579733.877    20579739.780
       243.000         209.000
  21481772.805   -23205333.54449 -18050357.14947  21481772.388    21481776.468
       240.000         200.000
 03  3 20  1 52  0.0000000  0  8G14G 9G 3G31G23G17G15G18
  20685207.139   -21760670.14349 -16221559.07647  20685206.530    20685211.138
       242.000         211.000
  23494281.041   -13994864.03549 -10890228.36145  23494280.508    23494288.235
       217.000         156.000
  21686528.530   -17445683.07649 -13572771.97947  21686528.359    21686534.053
       238.000         197.000
  22640585.870   -13323669.67349 -10038135.33746  22640585.539    22640591.129
       227.000         177.000
  22790961.254   -10753559.39149  -8346729.51746  22790960.177    22790966.127
       229.000         178.000
  22694250.094     8178421.92949   6383460.81046  22694250.008    22694256.737
       220.000         165.000
  20586380.685   -27104300.34349 -21088150.16547  20586379.826    20586385.549
       243.000         209.000
  21491301.957   -23155257.58049 -18011336.90847  21491301.352    21491305.668
       240.000         199.000
 03  3 20  1 52 30.0000000  0  8G14G 9G 3G31G23G17G15G18
  20675427.548   -21812062.15849 -16261604.75847  20675426.940    20675431.281
       242.000         211.000
  23494131.816   -13995647.95549 -10890839.17645  23494131.511    23494137.535
       216.000         156.000
  21689172.088   -17431790.98649 -13561946.96647  21689171.629    21689177.595
       237.000         197.000
  22633557.516   -13360603.78949 -10066915.14846  22633556.695    22633563.116
       227.000         177.000
  22802075.077   -10695155.67749  -8301220.13046  22802074.772    22802081.040
       229.000         178.000
  22708746.842     8254602.77549   6442822.47946  22708745.663    22708753.522
       220.000         165.000
  20593103.761   -27068970.41949 -21060620.34747  20593102.941    20593108.639
       243.000         209.000
  21500857.400   -23105043.52049 -17972209.06147  21500856.817    21500861.303
       240.000         199.000
 03  3 20  1 53  0.0000000  0  8G14G 9G 3G31G23G17G15G18
  20665744.850   -21862944.80149 -16301253.52547  20665744.183    20665748.662
       241.000         211.000
  23494091.632   -13995858.82649 -10891003.44945  23494091.669    23494097.907
       215.000         155.000
  21691919.958   -17417350.65149 -13550694.74447  21691919.676    21691925.479
       238.000         197.000
  22626633.702   -13396988.50949 -10095266.85846  22626633.198    22626639.639
       227.000         177.000
  22813193.994   -10636725.66249  -8255690.23246  22813193.055    22813199.734
       228.000         177.000
  22723300.438     8331082.23549   6502416.84246  22723299.657    22723306.997
       218.000         164.000
  20599903.947   -27033235.10249 -21032774.64447  20599903.074    20599908.886
       243.000         208.000
  21510438.897   -23054692.38949 -17932974.40047  21510438.423    21510442.519
       240.000         199.000
 03  3 20  1 53 30.0000000  0  8G14G 9G 3G31G23G17G15G18
  20656159.394   -21913316.59449 -16340504.23347  20656158.859    20656163.079
       241.000         211.000
  23494160.718   -13995495.44149 -10890720.24245  23494159.991    23494165.824
       215.000         154.000
  21694772.169   -17402362.22649 -13539015.44447  21694771.902    21694777.788
       237.000         197.000
  22619814.697   -13432822.39449 -10123189.34546  22619813.969    22619820.048
       227.000         177.000
  22824317.796   -10578269.37849  -8210139.88046  22824317.184    22824322.722
       228.000         177.000
  22737910.887     8407860.34149   6562243.90646  22737910.852    22737917.778
       219.000         164.000
  20606781.375   -26997093.90449 -21004612.66847  20606780.733    20606786.075
       243.000         208.000
  21520046.391   -23004204.60749 -17893633.26447  21520045.752    21520050.250
       240.000         199.000
 03  3 20  1 54  0.0000000  0  8G14G 9G 3G31G23G17G15G18
  20646671.171   -21963177.29549 -16379356.68347  20646670.517    20646674.857
       242.000         211.000
  23494339.142   -13994557.42349 -10889989.27045  23494338.698    23494345.433
       215.000         154.000
  21697728.355   -17386827.25749 -13526910.26747  21697728.065    21697733.606
       238.000         197.000
  22613100.619   -13468104.84849 -10150682.15246  22613100.476    22613106.300
       228.000         177.000
  22835446.488   -10519787.72149  -8164569.75446  22835445.870    22835451.757
       227.000         177.000
  22752577.944     8484936.10049   6622302.92046  22752577.239    22752583.488
       219.000         163.000
  20613736.079   -26960546.70149 -20976134.32247  20613735.408    20613741.031
       242.000         208.000
  21529679.644   -22953581.42449 -17854186.62247  21529679.133    21529683.338
       239.000         199.000
 03  3 20  1 54 30.0000000  0  8G14G 9G 3G31G23G17G15G18
  20637280.468   -22012525.57649 -16417809.84647  20637279.908    20637284.352
       241.000         211.000
  23494627.125   -13993043.95649 -10888809.89345  23494626.199    23494632.256
       215.000         154.000
  21700788.377   -17370746.78949 -13514380.02147  21700787.807    21700793.743
       238.000         197.000
  22606491.739   -13502834.74549 -10177744.38746  22606491.432    22606496.686
       226.000         178.000
  22846579.913   -10461281.03149  -8118980.12046  22846578.903    22846585.322
       227.000         177.000
  22767301.548     8562309.30049   6682593.70446  22767300.676    22767307.544
       219.000         163.000
  20620768.051   -26923593.25849 -20947339.42747  20620767.340    20620772.680
       242.000         208.000
  21539338.631   -22902823.12849 -17814634.69347  21539338.117    21539342.326
       240.000         199.000
 03  3 20  1 55  0.0000000  0  8G14G 9G 3G31G23G17G15G18
  20627987.456   -22061360.47249 -16455862.97247  20627986.942    20627991.269
       241.000         211.000
  23495024.773   -13990954.30749 -10887181.57745  23495024.803    23495030.672
       214.000         155.000
  21703952.010   -17354121.68249 -13501425.39147  21703951.787    21703957.746
       237.000         197.000
  22599988.181   -13537011.16449 -10204375.34646  22599987.554    22599993.360
       227.000         177.000
  22857718.009   -10402749.73749  -8073371.31246  22857717.661    22857723.269
       227.000         176.000
  22782081.678     8639979.42549   6743115.86945  22782081.763    22782088.188
       218.000         162.000
  20627877.438   -26886233.23949 -20918227.72447  20627876.678    20627882.340
       242.000         208.000
  21549023.082   -22851930.84349 -17774978.36647  21549022.522    21549027.025
       239.000         199.000
 03  3 20  1 55 30.0000000  0  8G14G 9G 3G31G23G17G15G18
  20618792.297   -22109681.15049 -16493515.40347  20618791.678    20618795.886
       242.000         211.000
  23495532.190   -13988287.82949 -10885103.73945  23495531.392    23495537.821
       215.000         155.000
  21707219.136   -17336952.81749 -13488047.04647  21707218.655    21707224.704
       237.000         196.000
  22593590.132   -13570633.21549 -10230574.32846  22593589.384    22593595.173
       226.000         177.000
  22868860.767   -10344194.21449  -8027743.62046  22868860.317    22868866.169
       228.000         176.000
  22796918.170     8717945.44349   6803868.58745  22796917.143    22796924.066
       218.000         162.000
  20635064.218   -26848466.58349 -20888799.15447  20635063.423    20635069.053
       242.000         208.000
  21558732.936   -22800905.29249 -17735218.18847  21558732.410    21558736.671
       239.000         199.000
 03  3 20  1 56  0.0000000  0  8G14G 9G 3G31G23G17G15G18
  20609695.225   -22157486.44649 -16530766.23847  20609694.715    20609698.866
       241.000         211.000
  23496149.421   -13985043.98149 -10882576.02145  23496148.905    23496155.269
       214.000         155.000
  21710589.476   -17319241.44549 -13474245.96847  21710588.862    21710594.912
       238.000         196.000
  22587297.697   -13603699.98249 -10256340.62346  22587297.399    22587303.098
       226.000         177.000
  22880008.007   -10285614.95549  -7982097.43046  22880007.261    22880013.250
       227.000         176.000
  22811810.857     8796206.95349   6864851.55745  22811810.832    22811817.402
       221.000         162.000
  20642328.359   -26810293.14049 -20859053.61147  20642327.334    20642333.227
       242.000         208.000
  21568467.928   -22749747.39149 -17695354.88347  21568467.601    21568471.333
       239.000         198.000
 03  3 20  1 56 30.0000000  0  8G14G 9G 3G31G23G17G15G18
  20600696.310   -22204775.75449 -16567615.00847  20600695.755    20600700.134
       241.000         211.000
  23496876.704   -13981221.90549 -10879597.71545  23496875.572    23496882.506
       215.000         155.000
  21714062.875   -17300988.47649 -13460022.87147  21714062.617    21714068.471
       238.000         196.000
  22581111.110   -13636210.65849 -10281673.59046  22581111.122    22581116.649
       226.000         177.000
  22891159.780   -10227012.36749  -7936433.07046  22891158.431    22891165.402
       227.000         176.000
  22826759.637     8874763.40449   6926064.36145  22826759.413    22826765.583
       219.000         161.000
  20649669.977   -26771712.65849 -20828990.89447  20649669.281    20649674.884
       242.000         207.000
  21578228.049   -22698457.65949 -17655388.85347  21578227.524    21578231.823
       240.000         198.000
 03  3 20  1 57  0.0000000  0  8G14G 9G 3G31G23G17G15G18
  20591795.910   -22251547.54149 -16604060.51347  20591795.007    20591799.611
       241.000         211.000
  23497714.207   -13976820.64649 -10876168.12345  23497714.151    23497720.052
       215.000         154.000
  21717639.138   -17282195.03249 -13445378.62747  21717638.871    21717644.374
       237.000         196.000
  22575030.600   -13668163.93249 -10306572.23546  22575029.742    22575035.939
       226.000         177.000
  22902315.908   -10168386.34649  -7890750.44646  22902315.957    22902320.301
       228.000         176.000
  22841764.506     8953614.34949   6987506.63445  22841763.996    22841771.446
       217.000         161.000
  20657089.182   -26732724.51149 -20798610.51347  20657088.335    20657093.996
       242.000         207.000
  21588013.149   -22647036.62349 -17615320.51047  21588012.510    21588016.843
       239.000         198.000
 03  3 20  1 57 30.0000000  0  8G14G 9G 3G31G23G17G15G18
  20582994.227   -22297800.50149 -16640101.74247  20582993.700    20582998.067
       241.000         212.000
  23498662.145   -13971838.96149 -10872286.24245  23498661.975    23498668.036
       214.000         155.000
  21721318.174   -17262861.38349 -13430313.45147  21721317.835    21721323.545
       237.000         196.000
  22569056.423   -13699558.29749 -10331035.35146  22569055.568    22569061.416
       225.000         177.000
  22913476.612   -10109736.53749  -7845049.28446  22913475.791    22913482.192
       227.000         175.000
  22856825.408     9032759.83049   7049178.42545  22856824.759    22856832.220
       219.000         160.000
  20664586.087   -26693327.96249 -20767911.90647  20664585.425    20664590.940
       242.000         207.000
  21597823.236   -22595484.25249 -17575149.82747  21597822.828    21597826.930
       238.000         198.000
 03  3 20  1 58  0.0000000  0  8G14G 9G 3G31G23G17G15G18
  20574291.298   -22343534.69349 -16675738.73447  20574290.725    20574295.033
       242.000         212.000
  23499720.397   -13966277.44849 -10867952.53645  23499719.523    23499726.719
       214.000         155.000
  21725099.703   -17242989.36249 -13414828.76047  21725099.537    21725105.308
       238.000         196.000
  22563188.593   -13730393.98949 -10355063.14546  22563188.090    22563193.963
       227.000         177.000
  22924641.484   -10051064.42149  -7799330.74846  22924640.961    22924646.989
       227.000         175.000
  22871942.001     9112198.25049   7111078.46245  22871940.895    22871948.999
       219.000         160.000
  20672160.519   -26653523.87849 -20736895.73347  20672159.622    20672165.175
       242.000         207.000
  21607657.918   -22543802.51049 -17534878.34047  21607657.250    21607661.426
       239.000         197.000
 03  3 20  1 58 30.0000000  0  8G14G 9G 3G31G23G17G15G18
  20565687.255   -22388749.06149 -16710970.66847  20565686.681    20565690.953
       242.000         212.000
  23500889.098   -13960135.63949 -10863166.66045  23500888.803    23500895.799
       215.000         156.000
  21728983.434   -17222580.35949 -13398925.64447  21728983.048    21728988.990
       237.000         196.000
  22557427.218   -13760670.18149 -10378654.96246  22557426.858    22557431.785
       227.000         178.000
  22935810.613    -9992370.31049  -7753595.07046  22935810.209    22935815.345
       226.000         175.000
  22887114.176     9191928.77349   7173206.11645  22887113.181    22887120.647
       216.000         159.000
  20679812.551   -26613312.15749 -20705561.92347  20679811.614    20679817.494
       242.000         207.000
  21617517.126   -22491991.96549 -17494506.48247  21617516.465    21617521.265
       238.000         197.000
 03  3 20  1 59  0.0000000  0  8G14G 9G 3G31G23G17G15G18
  20557182.197   -22433443.24949 -16745797.27347  20557181.599    20557185.971
       242.000         212.000
  23502168.335   -13953413.08149 -10857928.26645  23502168.227    23502174.290
       215.000         156.000
  21732969.063   -17201635.82249 -13382605.23047  21732968.489    21732974.800
       238.000         196.000
  22551772.470   -13790386.16649 -10401810.26046  22551771.963    22551778.053
       227.000         178.000
  22946983.816    -9933654.67049  -7707842.61446  22946983.684    22946989.218
       227.000         175.000
  22902341.902     9271951.15049   7235561.20045  22902341.379    22902349.019
       217.000         158.000
  20687542.155   -26572692.75349 -20673910.44647  20687541.373    20687547.185
       243.000         207.000
  21627400.642   -22440053.66049 -17454035.07547  21627400.202    21627404.412
       239.000         197.000
 03  3 20  1 59 30.0000000  0  8G14G 9G 3G31G23G17G15G18
  20548776.324   -22477616.29149 -16780217.78347  20548775.779    20548780.144
       241.000         212.000
  23503558.162   -13946109.03349 -10852236.75045  23503557.466    23503564.018
       215.000         155.000
  21737056.356   -17180156.75649 -13365868.29747  21737056.069    21737062.101
       238.000         196.000
  22546224.402   -13819541.25449 -10424528.47246  22546223.494    22546228.974
       227.000         178.000
  22958161.064    -9874917.79049  -7662073.62046  22958160.726    22958167.074
       225.000         174.000
  22917624.993     9352264.17549   7298142.74745  22917625.278    22917631.805
       217.000         158.000
  20695349.404   -26531665.39049 -20641941.06947  20695348.718    20695354.319
       242.000         207.000
  21637308.425   -22387987.93449 -17413464.37647  21637307.983    21637312.281
       239.000         197.000
 03  3 20  2  0  0.0000000  0  8G14G 9G 3G31G23G17G15G18
  20540469.806   -22521267.04349 -16814231.31747  20540469.189    20540473.539
       241.000         212.000
  23505058.844   -13938222.59449 -10846091.42945  23505058.796    23505064.661
       215.000         155.000
  21741245.306   -17158143.75149 -13348715.30547  21741244.919    21741250.850
       237.000         196.000
  22540783.335   -13848134.06749 -10446808.57146  22540781.871    22540788.498
       228.000         178.000
  22969342.367    -9816159.41549  -7616287.87446  22969342.595    22969347.553
       226.000         174.000
  22932963.382     9432867.94949   7360950.86845  22932962.091    22932970.311
       216.000         158.000
  20703234.431   -26490229.46849 -20609653.33147  20703233.829    20703239.218
       242.000         207.000
  21647240.291   -22335795.55149 -17372794.98047  21647239.748    21647244.130
       238.000         196.000
 03  3 20  2  0 30.0000000  0  8G14G 9G 3G31G23G17G15G18
  20532262.797   -22564395.17149 -16847837.61047  20532262.251    20532266.389
       241.000         212.000
  23506670.365   -13929753.87949 -10839492.39145  23506669.132    23506675.997
       215.000         155.000
  21745535.477   -17135598.76449 -13331147.78147  21745535.189    21745541.066
       238.000         196.000
  22535449.317   -13876164.55549 -10468650.48046  22535448.384    22535454.956
       227.000         178.000
  22980527.660    -9757380.55049  -7570486.15846  22980527.312    22980532.972
       227.000         174.000
  22948356.910     9513761.29249   7423984.62145  22948356.553    22948364.216
       216.000         157.000
  20711197.085   -26448385.29849 -20577047.47647  20711196.197    20711201.878
       242.000         207.000
  21657196.132   -22283477.25049 -17332027.47147  21657195.585    21657199.653
       238.000         196.000
 03  3 20  2  1  0.0000000  0  8G14G 9G 3G31G23G17G15G18
  20524155.289   -22607000.27449 -16881036.35347  20524154.693    20524158.837
       241.000         212.000
  23508392.697   -13920702.87249 -10832439.60445  23508392.668    23508399.085
       215.000         155.000
  21749926.668   -17112523.07449 -13313166.72447  21749926.279    21749932.176
       238.000         196.000
  22530222.315   -13903632.25549 -10490053.85646  22530221.262    22530227.363
       227.000         178.000
  22991716.678    -9698581.80749  -7524668.95046  22991715.237    22991722.171
       227.000         174.000
  22963805.297     9594943.03349   7487243.09545  22963805.039    22963811.560
       216.000         157.000
  20719237.374   -26406133.21549 -20544123.77147  20719236.691    20719242.449
       242.000         207.000
  21667175.705   -22231034.05449 -17291162.63547  21667175.377    21667179.532
       237.000         196.000
 03  3 20  2  1 30.0000000  0  8G14G 9G 3G31G23G17G15G18
  20516147.656   -22649080.54349 -16913826.13347  20516147.057    20516151.312
       242.000         212.000
  23510226.132   -13911068.17349 -10824932.00645  23510226.199    23510231.886
       216.000         156.000
  21754418.762   -17088917.17649 -13294772.51947  21754418.609    21754423.915
       238.000         196.000
  22525102.772   -13930535.52349 -10511017.42046  22525101.737    22525107.701
       226.000         178.000
  23002909.646    -9639762.36849  -7478835.62046  23002909.457    23002914.909
       227.000         174.000
  22979308.629     9676413.51649   7550726.56445  22979307.906    22979314.973
       216.000         156.000
  20727355.479   -26363472.25049 -20510881.45347  20727354.651    20727360.181
       242.000         206.000
  21677179.113   -22178465.68849 -17250200.26947  21677178.701    21677182.921
       238.000         196.000
 03  3 20  2  2  0.0000000  0  8G14G 9G 3G31G23G17G15G18
  20508239.920   -22690635.74549 -16946206.77347  20508239.341    20508243.454
       241.000         212.000
  23512170.541   -13900850.08749 -10816969.82945  23512170.593    23512175.496
       214.000         156.000
  21759011.384   -17064782.77949 -13275966.50047  21759010.920    21759016.722
       237.000         196.000
  22520090.683   -13956874.06249 -10531540.93046  22520090.706    22520096.602
       228.000         179.000
  23014106.429    -9580923.03249  -7432986.77346  23014105.926    23014111.845
       226.000         173.000
  22994866.672     9758171.84749   7614434.32845  22994866.595    22994873.845
       214.000         156.000
  20735551.294   -26320402.88049 -20477320.90647  20735550.527    20735556.177
       242.000         206.000
  21687206.133   -22125773.37349 -17209141.31547  21687205.890    21687210.240
       238.000         196.000
 03  3 20  2  2 30.0000000  0  8G14G 9G 3G31G23G17G15G18
  20500432.206   -22731665.35949 -16978177.85947  20500431.607    20500435.814
       241.000         212.000
  23514226.044   -13890047.99349 -10808552.57845  23514225.580    23514232.180
       215.000         155.000
  21763704.347   -17040121.09949 -13256749.60847  21763703.841    21763709.446
       237.000         196.000
  22515186.144   -13982647.42049 -10551624.03946  22515186.131    22515191.550
       228.000         179.000
  23025306.892    -9522064.06349  -7387122.62846  23025306.112    23025311.428
       227.000         173.000
  23010479.444     9840217.20849   7678365.75545  23010478.647    23010485.752
       216.000         156.000
  20743824.936   -26276924.64349 -20443441.75047  20743824.259    20743829.875
       242.000         206.000
  21697256.656   -22072957.67549 -17167986.22147  21697256.372    21697260.292
       238.000         196.000
 03  3 20  2  3  0.0000000  0  8G14G 9G 3G31G23G17G15G18
  20492724.674   -22772168.69249 -17009738.86248  20492723.972    20492728.247
       242.000         213.000
  23516392.743   -13878661.75049 -10799680.14845  23516391.611    23516397.802
       214.000         154.000
  21768497.322   -17014933.82849 -13237123.16947  21768496.983    21768502.918
       237.000         196.000
  22510389.334   -14007855.04349 -10571266.31046  22510388.612    22510394.762
       229.000         179.000
  23036511.012    -9463185.95649  -7341243.58246  23036510.196    23036516.407
       226.000         173.000
  23026146.595     9922548.58249   7742520.04845  23026146.161    23026153.246
       217.000         156.000
  20752176.315   -26233037.91649 -20409244.29447  20752175.368    20752181.194
       241.000         206.000
  21707330.461   -22020019.46949 -17126735.66047  21707329.908    21707334.369
       238.000         196.000
 03  3 20  2  3 30.0000000  0  8G14G 9G 3G31G23G17G15G18
  20485117.417   -22812144.92749 -17040889.13648  20485116.859    20485121.087
       242.000         213.000
  23518670.645   -13866690.80749 -10790352.09645  23518670.213    23518674.872
       213.000         153.000
  21773390.131   -16989221.82849 -13217087.84447  21773390.046    21773395.658
       237.000         196.000
  22505700.261   -14032496.14349 -10590467.13946  22505699.888    22505705.172
       227.000         179.000
  23047718.833    -9404288.59849  -7295349.52346  23047718.716    23047724.523
       226.000         173.000
  23041868.110    10005165.18949   7806896.60745  23041867.487    23041875.104
       217.000         157.000
  20760605.444   -26188742.47249 -20374728.35447  20760604.573    20760610.556
       242.000         206.000
  21717427.529   -21966958.94949 -17085389.79647  21717427.128    21717431.200
       238.000         196.000
 03  3 20  2  4  0.0000000  0  8G14G 9G 3G31G23G17G15G18
  20477610.598   -22851593.31249 -17071628.09948  20477610.116    20477614.214
       241.000         213.000
  23521059.917   -13854135.04849 -10780568.35645  23521059.979    23521066.229
       215.000         153.000
  21778382.535   -16962986.56449 -13196644.78147  21778382.040    21778388.073
       237.000         196.000
  22501119.151   -14056570.03949 -10609225.99146  22501118.580    22501124.444
       228.000         179.000
  23058930.211    -9345372.25649  -7249440.68746  23058928.676    23058936.146
       226.000         173.000
  23057643.723    10088066.82749   7871495.26345  23057642.986    23057650.345
       216.000         156.000
  20769112.372   -26144038.31749 -20339893.94247  20769111.753    20769117.262
       242.000         206.000
  21727547.737   -21913776.85449 -17043949.20147  21727547.162    21727551.246
       238.000         195.000
 03  3 20  2  4 30.0000000  0  8G14G 9G 3G31G23G17G15G18
  20470204.256   -22890513.76349 -17101955.68648  20470203.593    20470207.732
       241.000         213.000
  23523560.455   -13840994.38149 -10770328.83445  23523561.447    23523565.427
       214.000         153.000
  21783474.166   -16936229.92049 -13175795.44747  21783474.105    21783479.392
       237.000         196.000
  22496646.002   -14080076.58549 -10627542.74746  22496645.496    22496650.855
       228.000         179.000
  23070145.129    -9286437.54249  -7203517.53046  23070144.571    23070150.954
       227.000         173.000
  23073473.418    10171252.30249   7936315.08745  23073472.927    23073480.647
       217.000         156.000
  20777697.057   -26098925.44149 -20304741.04447  20777696.190    20777702.105
       242.000         206.000
  21737690.899   -21860474.13449 -17002414.60747  21737690.550    21737694.779
       239.000         195.000
 03  3 20  2  5  0.0000000  0  8G14G 9G 3G31G23G17G15G18
  20462898.514   -22928905.55549 -17131871.33448  20462897.981    20462902.038
       241.000         213.000
  23526172.338   -13827268.70749 -10759633.47245  23526172.879    23526178.684
       215.000         154.000
  21788664.739   -16908953.16749 -13154540.83847  21788664.262    21788670.102
       238.000         196.000
  22492280.887   -14103015.24149 -10645417.00046  22492280.368    22492285.808
       228.000         179.000
  23081363.394    -9227484.62349  -7157580.19546  23081363.435    23081369.051
       223.000         172.000
  23089356.999    10254721.04049   8001355.64145  23089356.621    23089363.486
       213.000         156.000
  20786359.538   -26053403.81449 -20269269.63147  20786358.783    20786364.200
       242.000         206.000
  21747856.966   -21807051.29249 -16960786.41547  21747856.332    21747860.582
       238.000         195.000
 03  3 20  2  5 30.0000000  0  8G14G 9G 3G31G23G17G15G18
  20455693.693   -22966766.91149 -17161373.65248  20455693.038    20455697.226
       241.000         213.000
  23528895.809   -13812956.62249 -10748481.14845  23528895.654    23528901.580
       214.000         154.000
  21793954.282   -16881156.47049 -13132881.07247  21793953.590    21793959.849
       237.000         195.000
  22488024.144   -14125384.36949 -10662847.44546  22488023.495    22488029.261
       227.000         179.000
  23092585.441    -9168512.48149  -7111627.86146  23092585.236    23092590.830
       225.000         173.000
  23105294.434    10338473.09249   8066616.96645  23105293.468    23105302.119
       215.000         156.000
  20795100.005   -26007472.38949 -20233478.90547  20795099.082    20795104.917
       241.000         206.000
  21758045.934   -21753507.91849 -16919064.29547  21758045.708    21758049.723
       238.000         195.000
 03  3 20  2  6  0.0000000  0  8G14G 9G 3G31G23G17G15G18
  20448589.359   -23004100.16649 -17190464.46648  20448588.857    20448592.981
       242.000         213.000
  23531730.382   -13798060.85449 -10736874.03845  23531729.293    23531735.975
       214.000         154.000
  21799341.901   -16852844.22149 -13110819.58547  21799341.370    21799347.443
       237.000         195.000
  22483875.307   -14147186.32349 -10679835.95946  22483874.488    22483881.029
       228.000         179.000
  23103810.542    -9109524.18849  -7065662.95746  23103810.365    23103816.364
       224.000         172.000
  23121285.263    10422505.01149   8132096.35545  23121284.488    23121291.940
       215.000         156.000
  20803917.860   -25961134.05449 -20197371.10847  20803917.058    20803922.775
       242.000         206.000
  21768257.177   -21699847.43049 -16877250.92747  21768256.759    21768260.948
       238.000         195.000
 03  3 20  2  6 30.0000000  0  8G14G 9G 3G31G23G17G15G18
  20441585.980   -23040903.11049 -17219142.04848  20441585.405    20441589.293
       241.000         213.000
  23534676.377   -13782579.34049 -10724810.48545  23534675.203    23534681.579
       214.000         154.000
  21804827.731   -16824015.90549 -13088355.96647  21804827.572    21804833.117
       237.000         195.000
  22479834.854   -14168418.90749 -10696380.79246  22479834.574    22479839.830
       227.000         179.000
  23115039.050    -9050518.03749  -7019684.13646  23115038.342    23115044.535
       224.000         173.000
  23137329.517    10506817.94749   8197794.72845  23137328.691    23137336.453
       215.000         156.000
  20812813.513   -25914386.95849 -20160944.79747  20812812.770    20812818.492
       241.000         205.000
  21778490.950   -21646068.54249 -16835345.30047  21778490.115    21778494.706
       238.000         195.000
 03  3 20  2  7  0.0000000  0  8G14G 9G 3G31G23G17G15G18
  20434683.615   -23077175.11649 -17247405.91448  20434683.043    20434687.129
       241.000         213.000
  23537733.813   -13766512.06549 -10712290.50445  23537733.476    23537739.837
       215.000         154.000
  21810411.473   -16794673.12149 -13065491.46247  21810411.147    21810416.799
       237.000         195.000
  22475902.838   -14189081.49549 -10712481.48146  22475902.526    22475907.739
       227.000         179.000
  23126270.910    -8991494.24549  -6973691.56146  23126270.666    23126276.089
       224.000         172.000
  23153426.986    10591410.79249   8263711.21945  23153425.867    23153433.012
       214.000         155.000
  20821787.015   -25867230.95249 -20124199.85247  20821786.307    20821791.812
       241.000         205.000
  21788747.172   -21592171.62249 -16793347.70147  21788746.645    21788750.806
       237.000         194.000
 03  3 20  2  7 30.0000000  0  8G14G 9G 3G31G23G17G15G18
  20427882.436   -23112915.46249 -17275255.49648  20427881.862    20427885.903
       241.000         213.000
  23540902.759   -13749858.99249 -10699314.04945  23540903.092    23540908.272
       213.000         154.000
  21816092.890   -16764817.15149 -13042227.06947  21816092.603    21816098.312
       237.000         195.000
  22472079.384   -14209173.66449 -10728137.68646  22472078.884    22472084.029
       228.000         179.000
  23137506.098    -8932452.84649  -6927685.28146  23137505.448    23137511.554
       224.000         173.000
  23169577.644    10676283.03049   8329845.40445  23169575.866    23169584.783
       215.000         155.000
  20830838.279   -25819666.09849 -20087136.32547  20830837.611    20830843.244
       241.000         205.000
  21799025.719   -21538157.50949 -16751258.77347  21799024.819    21799029.361
       237.000         194.000
 03  3 20  2  8  0.0000000  0  8G14G 9G 3G31G23G17G15G18
  20421182.498   -23148123.71549 -17302690.46748  20421181.980    20421186.048
       241.000         213.000
  23544183.243   -13732620.00049 -10685881.04245  23544182.911    23544188.389
       214.000         154.000
  21821871.568   -16734449.86649 -13018564.25947  21821871.343    21821877.177
       237.000         195.000
  22468364.588   -14228695.00149 -10743349.09546  22468363.795    22468369.022
       227.000         179.000
  23148744.563    -8873394.10849  -6881665.48746  23148743.259    23148749.847
       224.000         173.000
  23185781.361    10761433.88949   8396196.70445  23185779.799    23185788.538
       214.000         154.000
  20839967.346   -25771692.66749 -20049754.43447  20839966.651    20839972.275
       242.000         205.000
  21809326.455   -21484026.69149 -16709078.91847  21809325.568    21809329.834
       237.000         194.000
 03  3 20  2  8 30.0000000  0  8G14G 9G 3G31G23G17G15G18
  20414583.796   -23182799.96849 -17329710.88848  20414583.248    20414587.330
       241.000         213.000
  23547575.097   -13714795.46249 -10671991.76845  23547574.643    23547580.913
       216.000         153.000
  21827747.259   -16703573.07049 -12994504.42447  21827746.765    21827752.817
       237.000         195.000
  22464758.421   -14247645.57449 -10758115.75246  22464757.502    22464763.672
       228.000         179.000
  23159986.285    -8814318.57649  -6835632.60246  23159985.775    23159990.814
       224.000         172.000
  23202037.762    10846861.72649   8462763.83245  23202037.154    23202045.112
       214.000         154.000
  20849174.071   -25723310.98749 -20012054.42347  20849173.098    20849179.286
       241.000         205.000
  21819649.267   -21429779.88149 -16666808.67347  21819648.592    21819653.097
       237.000         193.000
 03  3 20  2  9  0.0000000  0  8G14G 9G 3G31G23G17G15G18
  20408086.451   -23216943.70449 -17356316.36048  20408085.906    20408089.784
       241.000         213.000
  23551078.459   -13696385.08049 -10657645.98845  23551077.868    23551084.794
       214.000         153.000
  21833719.583   -16672188.23449 -12970048.70847  21833719.441    21833725.060
       237.000         195.000
  22461260.909   -14266024.87549 -10772437.25946  22461260.573    22461266.119
       228.000         179.000
  23171231.220    -8755226.19049  -6789586.57246  23171230.631    23171236.461
       224.000         172.000
  23218346.817    10932566.31749   8529546.59745  23218345.954    23218353.969
       213.000         153.000
  20858458.514   -25674520.81849 -19974036.10747  20858457.820    20858463.752
       241.000         205.000
  21829994.033   -21375417.65549 -16624448.49147  21829993.140    21829997.953
       236.000         193.000
 03  3 20  2  9 30.0000000  0  8G14G 9G 3G31G23G17G15G18
  20401690.507   -23250554.33249 -17382506.42748  20401690.014    20401693.972
       241.000         214.000
  23554693.262   -13677388.76249 -10642843.61745  23554692.526    23554698.692
       211.000         152.000
  21839788.322   -16640296.87749 -12945198.31047  21839788.229    21839793.433
       237.000         195.000
  22457872.156   -14283832.68549 -10786313.45246  22457871.269    22457876.928
       227.000         179.000
  23182479.280    -8696117.08149  -6743527.52246  23182479.054    23182484.668
       224.000         172.000
  23234708.280    11018546.64149   8596544.22845  23234707.277    23234715.490
       212.000         152.000
  20867820.644   -25625322.40849 -19935699.68747  20867820.039    20867825.634
       241.000         205.000
  21840360.696   -21320940.32449 -16581998.62447  21840360.443    21840363.876
       236.000         193.000
 03  3 20  2 10  0.0000000  0  8G14G 9G 3G31G23G17G15G18
  20395396.114   -23283631.52549 -17408280.82848  20395395.452    20395399.679
       241.000         214.000
  23558419.565   -13657806.83149 -10627584.93145  23558419.426    23558424.491
       215.000         152.000
  21845953.124   -16607900.60849 -12919954.46947  21845952.832    21845958.757
       237.000         194.000
  22454592.242   -14301068.68049 -10799744.07146  22454592.049    22454597.810
       227.000         179.000
  23193730.530    -8636991.43849  -6697455.58246  23193730.534    23193736.421
       224.000         172.000
  23251122.146    11104801.81949   8663756.04245  23251120.884    23251128.169
       214.000         152.000
  20877260.453   -25575715.94649 -19897045.30747  20877259.784    20877265.516
       241.000         205.000
  21850749.145   -21266348.72849 -16539459.71247  21850748.552    21850753.041
       237.000         193.000
 03  3 20  2 10 30.0000000  0  8G14G 9G 3G31G23G17G15G18
  20389203.286   -23316174.80949 -17433639.20148  20389202.549    20389206.551
       241.000         214.000
  23562257.363   -13637639.21749 -10611869.85545  23562257.159    23562263.047
       213.000         151.000
  21852213.774   -16575000.72849 -12894318.21147  21852213.397    21852219.449
       237.000         194.000
  22451421.184   -14317732.58249 -10812728.91546  22451419.706    22451425.933
       228.000         180.000
  23204984.873    -8577849.48049  -6651370.93846  23204984.114    23204990.543
       224.000         172.000
  23267588.181    11191331.44349   8731181.71145  23267587.374    23267595.086
       211.000         152.000
  20886777.940   -25525701.14949 -19858072.73347  20886777.235    20886783.033
       241.000         205.000
  21861159.265   -21211643.27049 -16496832.08347  21861158.995    21861162.900
       236.000         193.000
 03  3 20  2 11  0.0000000  0  8G14G 9G 3G31G23G17G15G18
  20383112.007   -23348184.66249 -17458581.90648  20383111.516    20383115.506
       241.000         214.000
  23566206.311   -13616886.65849 -10595698.99845  23566205.815    23566211.610
       212.000         150.000
  21858569.775   -16541599.72549 -12868291.46447  21858569.147    21858575.297
       237.000         194.000
  22448358.958   -14333824.75849 -10825268.25146  22448358.495    22448364.311
       228.000         180.000
  23216242.110    -8518691.98949  -6605274.18346  23216241.920    23216248.138
       223.000         172.000
  23284106.154    11278134.01649   8798820.05445  23284105.189    23284112.914
       213.000         151.000
  20896372.885   -25475279.29349 -19818782.96447  20896372.153    20896377.656
       241.000         204.000
  21871590.805   -21156825.14849 -16454116.65347  21871590.513    21871594.636
       237.000         192.000
 03  3 20  2 11 30.0000000  0  8G14G 9G 3G31G23G17G15G18
  20377122.341   -23379660.51749 -17483108.51648  20377121.782    20377125.722
       241.000         214.000
  23570266.632   -13595549.04049 -10579072.23845  23570266.684    23570272.080
       211.000         150.000
  21865020.885   -16507698.89849 -12841875.25247  21865020.561    21865026.292
       237.000         194.000
  22445405.620   -14349344.64349 -10837361.64646  22445405.239    22445409.708
       228.000         180.000
  23227502.442    -8459518.65349  -6559165.09046  23227501.645    23227507.744
       223.000         171.000
  23300676.012    11365208.76849   8866670.48145  23300675.048    23300681.391
       211.000         150.000
  20906045.356   -25424450.00049 -19779175.73247  20906044.507    20906050.454
       241.000         204.000
  21882043.834   -21101894.26149 -16411313.36047  21882043.467    21882047.290
       236.000         192.000
 03  3 20  2 12  0.0000000  0  8G14G 9G 3G31G23G17G15G18
  20371234.359   -23410602.03049 -17507218.75348  20371233.798    20371237.698
       241.000         214.000
  23574438.247   -13573626.68449 -10561989.84145  23574437.756    23574444.522
       213.000         151.000
  21871566.750   -16473300.16549 -12815071.05947  21871566.530    21871572.513
       236.000         194.000
  22442561.162   -14364292.21649 -10849009.09546  22442560.449    22442566.345
       228.000         180.000
  23238765.699    -8400329.85449  -6513043.93846  23238765.148    23238771.177
       223.000         171.000
  23317297.219    11452554.31749   8934731.92445  23317296.681    23317303.834
       213.000         150.000
  20915795.341   -25373213.54249 -19739251.22147  20915794.657    20915800.340
       241.000         204.000
  21892518.089   -21046851.53849 -16368422.92247  21892517.795    21892521.676
       237.000         192.000
 03  3 20  2 12 30.0000000  0  8G14G 9G 3G31G23G17G15G18
  20365448.120   -23441008.60849 -17530912.16048  20365447.534    20365451.548
       241.000         214.000
  23578721.278   -13551119.35949 -10544451.62845  23578721.041    23578727.047
       213.000         152.000
  21878207.092   -16438404.95149 -12787879.99047  21878206.813    21878212.628
       236.000         193.000
  22439825.689   -14378667.13149 -10860210.30846  22439824.932    22439830.658
       228.000         180.000
  23250031.936    -8341125.41749  -6466910.59746  23250031.318    23250036.811
       224.000         171.000
  23333969.982    11540170.09249   9003003.93645  23333969.639    23333976.981
       210.000         151.000
  20925622.799   -25321569.98749 -19699009.48747  20925621.943    20925627.872
       241.000         204.000
  21903013.612   -20991697.18549 -16325445.49247  21903013.319    21903017.347
       236.000         192.000
 03  3 20  2 13  0.0000000  0  8G14G 9G 3G31G23G17G15G18
  20359763.697   -23470880.32949 -17554188.79448  20359763.199    20359767.094
       241.000         214.000
  23583115.503   -13528027.55749 -10526457.99345  23583115.099    23583121.245
       214.000         154.000
  21884941.570   -16403015.13049 -12760303.50847  21884941.230    21884946.933
       236.000         193.000
  22437199.200   -14392469.50549 -10870965.39446  22437198.451    22437203.660
       228.000         181.000
  23261301.038    -8281905.60749  -6420765.27746  23261300.067    23261305.882
       223.000         170.000
  23350693.985    11628055.10449   9071485.73045  23350693.501    23350701.189
       213.000         151.000
  20935527.647   -25269519.67649 -19658450.80047  20935526.906    20935532.460
       241.000         204.000
  21913530.231   -20936431.96249 -16282381.67347  21913529.709    21913533.659
       236.000         191.000
 03  3 20  2 13 30.0000000  0  8G14G 9G 3G31G23G17G15G18
  20354181.126   -23500216.94949 -17577048.46948  20354180.404    20354184.360
       241.000         214.000
  23587620.903   -13504351.85549 -10508009.37145  23587620.530    23587626.127
       214.000         155.000
  21891769.778   -16367132.63349 -12732343.12447  21891769.124    21891775.459
       236.000         193.000
  22434681.628   -14405699.30549 -10881274.32546  22434681.213    22434686.835
       227.000         180.000
  23272573.056    -8222670.50549  -6374608.05046  23272572.443    23272577.739
       223.000         169.000
  23367469.078    11716208.55349   9140176.70245  23367467.939    23367475.879
       211.000         149.000
  20945509.863   -25217062.80049 -19617575.31847  20945509.216    20945514.768
       241.000         204.000
  21924067.835   -20881056.37549 -16239231.85747  21924067.594    21924071.499
       236.000         191.000
 03  3 20  2 14  0.0000000  0  8G14G 9G 3G31G23G17G15G18
  20348700.426   -23529018.13649 -17599490.92148  20348699.808    20348703.734
       241.000         214.000
  23592237.340   -13480092.06849 -10489105.60645  23592236.944    23592243.660
       212.000         154.000
  21898691.410   -16330759.15349 -12704000.16447  21898691.152    21898697.061
       236.000         193.000
  22432273.103   -14418356.08849 -10891136.75346  22432272.291    22432278.649
       228.000         180.000
  23283848.076    -8163419.91549  -6328438.74846  23283847.908    23283853.224
       222.000         169.000
  23384295.000    11804629.38049   9209076.01545  23384294.810    23384301.333
       210.000         149.000
  20955569.456   -25164199.30749 -19576382.99147  20955568.662    20955574.300
       241.000         204.000
  21934626.396   -20825570.61749 -16195996.19447  21934626.044    21934630.377
       235.000         191.000
 03  3 20  2 14 30.0000000  0  8G14G 9G 3G31G23G17G15G18
  20343321.560   -23557284.16949 -17621516.37148  20343320.872    20343324.941
       242.000         214.000
  23596964.862   -13455248.72149 -10469747.13745  23596964.521    23596970.694
       214.000         154.000
  21905706.143   -16293896.53349 -12675276.05347  21905705.845    21905711.790
       237.000         193.000
  22429973.526   -14430440.06149 -10900552.83046  22429972.853    22429978.634
       229.000         180.000
  23295125.978    -8104154.25949  -6282257.71146  23295125.080    23295131.674
       223.000         169.000
  23401171.589    11893316.63249   9278182.93245  23401170.337    23401178.973
       210.000         149.000
  20965706.304   -25110929.89049 -19534874.36047  20965705.484    20965711.210
       242.000         204.000
  21945205.805   -20769975.42049 -16152675.25647  21945205.031    21945209.160
       236.000         190.000
 03  3 20  2 15  0.0000000  0  8G14G 9G 3G31G23G17G15G18
  20338044.688   -23585014.04049 -17643124.03448  20338044.075    20338048.029
       241.000         214.000
  23601803.432   -13429822.00849 -10449934.09045  23601802.302    23601810.055
       212.000         155.000
  21912813.645   -16256546.15749 -12646171.87147  21912813.415    21912819.018
       236.000         192.000
  22427783.055   -14441950.97949 -10909522.37246  22427782.539    22427788.334
       228.000         181.000
  23306406.844    -8044873.15649  -6236064.62146  23306405.881    23306412.720
       220.000         169.000
  23418098.853    11982269.80549   9347497.06545  23418098.268    23418106.717
       210.000         149.000
  20975920.379   -25057254.46249 -19493049.35847  20975919.533    20975925.288
       240.000         204.000
  21955806.015   -20714271.00449 -16109269.20347  21955805.332    21955810.100
       235.000         190.000
 03  3 20  2 15 30.0000000  0  8G14G 9G 3G31G23G17G15G18
  20332869.729   -23612208.53049 -17664314.51648  20332869.028    20332873.049
       241.000         214.000
  23606752.774   -13403812.82149 -10429667.16545  23606752.715    23606759.157
       213.000         154.000
  21920013.491   -16218710.64749 -12616689.66347  21920012.721    21920018.921
       236.000         192.000
  22425701.556   -14452889.38049 -10918045.80246  22425701.230    22425706.734
       228.000         180.000
  23317690.346    -7985577.50349  -6189860.22946  23317689.589    23317696.194
       220.000         169.000
  23435076.325    12071487.00649   9417016.93845  23435076.114    23435083.483
       211.000         147.000
  20986211.646   -25003173.56849 -19450908.40547  20986210.958    20986216.773
       240.000         204.000
  21966426.753   -20658458.31649 -16065778.78947  21966426.260    21966430.260
       235.000         190.000
 03  3 20  2 16  0.0000000  0  8G14G 9G 3G31G23G17G15G18
  20327796.755   -23638867.15149 -17685087.43748  20327796.210    20327800.088
       241.000         214.000
  23611812.977   -13377220.86549 -10408946.13545  23611812.852    23611819.102
       212.000         154.000
  21927305.465   -16180391.13549 -12586830.31047  21927305.232    21927311.116
       235.000         192.000
  22423729.088   -14463254.71949 -10926122.68846  22423728.656    22423733.907
       228.000         181.000
  23328976.742    -7926266.72649  -6143644.04046  23328976.626    23328982.505
       220.000         168.000
  23452104.077    12160967.78049   9486742.18145  23452103.726    23452110.585
       210.000         148.000
  20996580.109   -24948686.97649 -19408451.32147  20996579.131    20996584.977
       240.000         203.000
  21977068.173   -20602537.33549 -16022203.98747  21977067.423    21977071.645
       235.000         189.000
 03  3 20  2 16 30.0000000  0  8G14G 9G 3G31G23G17G15G18
  20322825.732   -23664989.94249 -17705442.83448  20322825.051    20322829.130
       241.000         215.000
  23616983.957   -13350047.14049 -10387771.79545  23616984.722    23616988.901
       211.000         153.000
  21934689.020   -16141590.16449 -12556595.80047  21934688.611    21934694.196
       235.000         192.000
  22421865.532   -14473047.62049 -10933753.52346  22421864.546    22421870.414
       227.000         181.000
  23340265.922    -7866941.40549  -6097416.51946  23340265.610    23340270.950
       219.000         167.000
  23469181.581    12250710.78349   9556671.77245  23469180.564    23469188.388
       209.000         147.000
  21007025.560   -24893795.65049 -19365678.85747  21007024.619    21007030.341
       240.000         203.000
  21987730.021   -20546509.03749 -15978545.56947  21987729.332    21987733.839
       235.000         189.000
 03  3 20  2 17  0.0000000  0  8G14G 9G 3G31G23G17G15G18
  20317956.679   -23690576.78649 -17725380.60348  20317956.062    20317959.986
       241.000         215.000
  23622265.603   -13322291.82249 -10366144.23845  23622265.626    23622271.304
       213.000         153.000
  21942163.886   -16102309.48449 -12525987.48147  21942163.546    21942169.181
       236.000         192.000
  22420111.010   -14482267.67249 -10940937.96646  22420110.790    22420116.166
       228.000         181.000
  23351558.006    -7807601.24649  -6051177.44346  23351557.833    23351563.646
       220.000         167.000
  23486308.807    12340715.08549   9626804.97345  23486308.397    23486315.391
       211.000         147.000
  21017548.052   -24838499.50949 -19322590.95647  21017547.305    21017552.937
       240.000         203.000
  21998412.241   -20490373.50249 -15934803.58747  21998411.716    21998415.899
       235.000         189.000
 03  3 20  2 17 30.0000000  0  8G14G 9G 3G31G23G17G15G18
  20313189.715   -23715627.41649 -17744900.54348  20313189.152    20313192.988
       241.000         215.000
  23627657.879   -13293955.22149 -10344063.73545  23627657.633    23627663.679
       212.000         153.000
  21949729.792   -16062550.52749 -12495006.48747  21949729.708    21949735.237
       235.000         192.000
  22418465.467   -14490914.98149 -10947676.12846  22418465.170    22418470.467
       228.000         181.000
  23362852.906    -7748246.23849  -6004926.78646  23362852.844    23362858.309
       221.000         167.000
  23503485.862    12430980.60149   9697141.71045  23503485.815    23503491.548
       209.000         147.000
  21028147.612   -24782798.66649 -19279187.70847  21028146.887    21028152.715
       240.000         203.000
  22009114.839   -20434131.03549 -15890978.28547  22009114.187    22009118.512
       234.000         188.000
 03  3 20  2 18  0.0000000  0  8G14G 9G 3G31G23G17G15G18
  20308524.682   -23740142.20049 -17764002.94648  20308523.991    20308527.866
       241.000         215.000
  23633160.514   -13265038.28649 -10321531.03545  23633159.934    23633166.200
       211.000         152.000
  21957386.256   -16022315.84149 -12463654.79347  21957385.568    21957391.688
       235.000         192.000
  22416928.813   -14498990.21149 -10953968.51246  22416927.894    22416933.543
       228.000         181.000
  23374150.576    -7688876.91049  -5958664.97346  23374149.683    23374156.101
       219.000         166.000
  23520712.161    12521505.43449   9767680.51545  23520711.770    23520719.635
       210.000         147.000
  21038823.875   -24726694.35749 -19235470.06647  21038822.916    21038828.901
       239.000         203.000
  22019837.536   -20377782.70049 -15847070.48147  22019837.494    22019841.274
       234.000         188.000
 03  3 20  2 18 30.0000000  0  8G14G 9G 3G31G23G17G15G18
  20303961.572   -23764121.21349 -17782687.86048  20303961.030    20303964.847
       241.000         215.000
  23638773.530   -13235541.49149 -10298546.48745  23638773.398    23638778.776
       212.000         153.000
  21965132.837   -15981607.24449 -12431933.82147  21965132.265    21965138.291
       236.000         192.000
  22415500.990   -14506493.45049 -10959815.18246  22415500.822    22415506.109
       228.000         181.000
  23385450.912    -7629493.12349  -5912391.88846  23385450.420    23385456.511
       221.000         166.000
  23537987.616    12612288.29949   9838420.40045  23537987.011    23537994.676
       207.000         148.000
  21049576.887   -24670186.69149 -19191438.11947  21049575.992    21049582.013
       240.000         202.000
  22030580.354   -20321328.80949 -15803080.42247  22030579.957    22030583.899
       235.000         188.000
 03  3 20  2 19  0.0000000  0  8G14G 9G 3G31G23G17G15G18
  20299500.506   -23787564.22549 -17800955.11548  20299499.999    20299503.814
       241.000         215.000
  23644496.856   -13205465.20449 -10275110.38845  23644495.746    23644502.564
       213.000         154.000
  21972969.270   -15940426.47849 -12399844.92547  21972968.900    21972974.792
       235.000         191.000
  22414182.009   -14513424.67049 -10965216.12546  22414181.135    22414186.987
       228.000         181.000
  23396754.107    -7570094.69449  -5866107.39946  23396754.094    23396759.038
       221.000         166.000
  23555311.909    12703327.94749   9909360.35245  23555311.417    23555318.816
       209.000         147.000
  21060406.709   -24613275.75149 -19147091.93247  21060405.964    21060411.636
       240.000         202.000
  22041343.174   -20264769.74549 -15759008.41647  22041342.476    22041347.114
       234.000         188.000
 03  3 20  2 19 30.0000000  0  8G14G 9G 3G31G23G17G15G18
  20295141.432   -23810471.22849 -17818804.69848  20295140.866    20295144.644
       243.000         215.000
  23650330.359   -13174809.92549 -10251223.13745  23650329.797    23650336.099
       212.000         153.000
  21980895.187   -15898775.52049 -12367389.64147  21980895.023    21980900.495
       235.000         191.000
  22412971.898   -14519783.97149 -10970171.41846  22412971.293    22412976.461
       229.000         181.000
  23408060.021    -7510681.56949  -5819811.45546  23408059.538    23408065.398
       221.000         165.000
  23572684.971    12794624.41249   9980500.41345  23572684.030    23572691.954
       211.000         147.000
  21071313.172   -24555961.86749 -19102431.76047  21071312.474    21071318.249
       240.000         202.000
  22052126.006   -20208105.47449 -15714854.43346  22052125.141    22052129.732
       234.000         187.000
 03  3 20  2 20  0.0000000  0  8G14G 9G 3G31G23G17G15G18
  20290884.254   -23832842.76349 -17836237.03348  20290883.694    20290887.567
       242.000         215.000
  23656273.854   -13143576.55549 -10226885.42745  23656273.543    23656280.137
       212.000         153.000
  21988910.140   -15856656.63649 -12334569.73747  21988910.064    21988915.834
       235.000         191.000
  22411870.461   -14525572.07949 -10974681.62546  22411870.095    22411875.559
       228.000         181.000
  23419368.696    -7451254.30649  -5773504.49246  23419368.608    23419373.742
       221.000         165.000
  23590106.726    12886175.72249  10051839.06845  23590106.199    23590113.378
       210.000         147.000
  21082296.137   -24498245.88549 -19057458.27247  21082295.401    21082301.304
       240.000         202.000
  22062928.673   -20151337.27049 -15670619.46446  22062928.223    22062932.183
       234.000         187.000
 03  3 20  2 20 30.0000000  0  8G14G 9G 3G31G23G17G15G18
  20286728.996   -23854678.55249 -17853251.90748  20286728.300    20286732.374
       242.000         215.000
  23662327.341   -13111765.39849 -10202097.49445  23662326.712    23662333.196
       212.000         153.000
  21997013.795   -15814071.69449 -12301386.68247  21997013.784    21997019.038
       235.000         191.000
  22410877.769   -14530788.79649 -10978746.60146  22410877.183    22410883.211
       228.000         181.000
  23430680.133    -7391812.43249  -5727186.14346  23430679.178    23430685.066
       219.000         165.000
  23607576.698    12977981.16949  10123375.75945  23607576.245    23607583.637
       209.000         147.000
  21093355.720   -24440127.61349 -19012171.30647  21093355.044    21093360.682
       240.000         202.000
  22073751.131   -20094464.90349 -15626303.32846  22073750.580    22073755.085
       233.000         187.000
 03  3 20  2 21  0.0000000  0  8G14G 9G 3G31G23G17G15G18
  20282675.679   -23875978.89049 -17869849.54448  20282675.166    20282678.801
       242.000         215.000
  23668490.458   -13079377.66949 -10176860.27345  23668489.636    23668496.186
       210.000         153.000
  22005205.676   -15771023.02349 -12267842.26947  22005205.433    22005211.389
       235.000         191.000
  22409993.609   -14535434.76849 -10982366.83346  22409993.334    22409998.998
       228.000         181.000
  23441994.201    -7332356.32249  -5680856.69446  23441994.155    23441999.690
       219.000         165.000
  23625094.781    13070038.95449  10195109.06745  23625094.437    23625101.532
       211.000         148.000
  21104491.655   -24381607.80149 -18966571.44947  21104490.865    21104496.359
       240.000         201.000
  22084593.253   -20037489.04749 -15581906.54446  22084592.964    22084596.937
       234.000         187.000
 03  3 20  2 21 30.0000000  0  8G14G 9G 3G31G23G17G15G18
  20278724.309   -23896743.46349 -17886029.70248  20278723.812    20278727.576
       242.000         215.000
  23674763.338   -13046413.22249 -10151173.66845  23674762.973    23674768.134
       211.000         152.000
  22013485.577   -15727512.04749 -12233937.62447  22013485.251    22013491.193
       235.000         191.000
  22409218.130   -14539509.70449 -10985542.10246  22409217.412    22409223.527
       227.000         181.000
  23453311.114    -7272885.37749  -5634515.69446  23453310.481    23453316.605
       221.000         165.000
  23642660.868    13162348.94949  10267038.90245  23642660.567    23642667.205
       209.000         148.000
  21115704.014   -24322686.53249 -18920658.77047  21115703.313    21115708.703
       240.000         201.000
  22095455.122   -19980409.58649 -15537429.04346  22095455.075    22095458.674
       234.000         187.000
 03  3 20  2 22  0.0000000  0  8G14G 9G 3G31G23G17G15G18
  20274874.722   -23916972.89349 -17901792.86648  20274874.147    20274877.985
       242.000         215.000
  23681145.776   -13012873.45249 -10125038.76645  23681145.344    23681150.982
       212.000         152.000
  22021852.918   -15683541.28049 -12199674.69347  22021852.429    22021858.528
       235.000         190.000
  22408551.133   -14543014.53749 -10988273.12946  22408550.943    22408556.159
       228.000         181.000
  23464630.806    -7213400.11149  -5588163.51946  23464630.344    23464635.585
       219.000         164.000
  23660274.583    13254909.61349  10339164.06745  23660273.014    23660281.052
       209.000         148.000
  21126992.556   -24263364.79949 -18874434.04447  21126991.668    21126997.401
       240.000         201.000
  22106336.531   -19923227.51149 -15492871.56646  22106336.072    22106340.336
       234.000         186.000
 03  3 20  2 22 30.0000000  0  8G14G 9G 3G31G23G17G15G18
  20271126.980   -23936667.36249 -17917139.17748  20271126.531    20271130.055
       242.000         215.000
  23687637.511   -12978759.01549 -10098456.06145  23687637.080    23687642.701
       211.000         153.000
  22030307.381   -15639112.90849 -12165055.19647  22030307.296    22030312.944
       235.000         190.000
  22407992.614   -14545949.47449 -10990560.08546  22407992.130    22407998.559
       229.000         181.000
  23475953.122    -7153900.48549  -5541800.18846  23475952.336    23475958.900
       220.000         164.000
  23677935.880    13347719.94949  10411483.77245  23677935.316    23677942.585
       211.000         147.000
  21138357.254   -24203642.88949 -18827897.48947  21138356.410    21138361.999
       240.000         201.000
  22117237.334   -19865943.24449 -15448234.47346  22117236.856    22117240.934
       234.000         186.000
 03  3 20  2 23  0.0000000  0  8G14G 9G 3G31G23G17G15G18
  20267480.993   -23955827.00549 -17932068.74048  20267480.455    20267484.273
       242.000         216.000
  23694238.433   -12944070.79149 -10071426.23845  23694238.240    23694244.043
       210.000         153.000
  22038848.535   -15594228.88649 -12130080.63947  22038848.173    22038854.120
       234.000         190.000
  22407542.486   -14548315.02149 -10992403.35746  22407541.902    22407547.749
       229.000         181.000
  23487278.289    -7094386.47849  -5495425.62546  23487277.416    23487284.016
       220.000         165.000
  23695644.364    13440778.42049  10483996.86145  23695643.577    23695650.185
       211.000         147.000
  21149798.009   -24143521.30449 -18781049.49047  21149797.240    21149802.895
       239.000         200.000
  22128157.559   -19808556.94849 -15403517.86846  22128157.156    22128161.077
       234.000         186.000
 03  3 20  2 23 30.0000000  0  8G14G 9G 3G31G23G17G15G18
  20263936.756   -23974452.00749 -17946581.70048  20263936.159    20263939.988
       243.000         216.000
  23700948.516   -12908809.21549 -10043949.67445  23700948.914    23700954.435
       209.000         153.000
  22047475.998   -15548891.38949 -12094752.72947  22047475.240    22047481.226
       234.000         190.000
  22407200.672   -14550111.54649 -10993803.22846  22407200.258    22407205.508
       229.000         182.000
  23498606.196    -7034858.09349  -5449039.86646  23498605.404    23498611.606
       219.000         165.000
  23713399.788    13534083.82149  10556702.34745  23713399.715    23713406.532
       209.000         147.000
  21161314.688   -24083000.64149 -18733890.52747  21161313.887    21161319.383
       240.000         200.000
  22139097.086   -19751069.24449 -15358722.23946  22139096.193    22139100.675
       234.000         186.000
 03  3 20  2 24  0.0000000  0  8G14G 9G 3G31G23G17G15G18
  20260494.232   -23992542.56949 -17960678.21448  20260493.582    20260497.486
       242.000         216.000
  23707767.498   -12872975.12349 -10016026.98645  23707767.214    23707774.153
       211.000         153.000
  22056189.323   -15503102.49949 -12059073.08347  22056189.068    22056194.958
       234.000         190.000
  22406967.019   -14551339.42749 -10994760.00746  22406966.330    22406971.954
       229.000         182.000
  23509936.826    -6975315.19949  -5402642.79846  23509936.510    23509941.864
       219.000         164.000
  23731202.144    13627635.53449  10629599.76645  23731201.961    23731209.268
       210.000         147.000
  21172907.303   -24022081.13149 -18686420.78747  21172906.622    21172912.279
       239.000         200.000
  22150055.912   -19693480.15749 -15313847.61846  22150055.346    22150059.516
       233.000         186.000
 03  3 20  2 24 30.0000000  0  8G14G 9G 3G31G23G17G15G18
  20257153.334   -24010099.11049 -17974358.61048  20257152.725    20257156.623
       242.000         216.000
  23714695.254   -12836569.47649  -9987658.94745  23714695.088    23714700.951
       210.000         153.000
  22064988.086   -15456864.65449 -12023043.60447  22064987.677    22064993.368
       234.000         190.000
  22406841.487   -14551999.13249 -10995274.04646  22406840.867    22406846.891
       229.000         182.000
  23521270.182    -6915757.92549  -5356234.52746  23521269.834    23521274.943
       220.000         164.000
  23749051.146    13721432.45749  10702688.24645  23749050.285    23749057.061
       208.000         146.000
  21184575.673   -23960763.56549 -18638640.86747  21184574.844    21184580.764
       239.000         200.000
  22161033.936   -19635790.12549 -15268894.34046  22161033.356    22161038.370
       233.000         186.000
 03  3 20  2 25  0.0000000  0  8G14G 9G 3G31G23G17G15G18
  20253914.008   -24027121.69649 -17987622.93748  20253913.437    20253917.222
       242.000         216.000
  23721731.554   -12799593.22249  -9958846.26745  23721731.337    23721737.795
       211.000         154.000
  22073871.984   -15410179.61949 -11986665.66447  22073871.667    22073877.437
       234.000         189.000
  22406824.006   -14552090.98949 -10995345.61046  22406823.119    22406829.408
       228.000         182.000
  23532606.313    -6856185.94649  -5309814.79446  23532606.186    23532611.924
       221.000         164.000
  23766946.423    13815473.32249  10775966.81445  23766946.066    23766953.548
       209.000         144.000
  21196319.704   -23899048.29249 -18590551.05347  21196318.884    21196324.652
       239.000         200.000
  22172031.146   -19577999.55649 -15223862.72646  22172030.912    22172034.747
       233.000         186.000
 03  3 20  2 25 30.0000000  0  8G14G 9G 3G31G23G17G15G18
  20250776.302   -24043610.40149 -18000471.25048  20250775.690    20250779.468
       242.000         216.000
  23728876.377   -12762047.02049  -9929589.47045  23728875.721    23728882.334
       211.000         153.000
  22082840.556   -15363049.43049 -11949940.84147  22082840.168    22082846.487
       234.000         189.000
  22406914.487   -14551615.29549 -10994974.92546  22406914.016    22406919.767
       229.000         182.000
  23543945.376    -6796599.07749  -5263383.44746  23543944.696    23543950.952
       221.000         165.000
  23784888.072    13909756.65649  10849434.30745  23784887.895    23784895.047
       207.000         144.000
  21208139.338   -23836935.58049 -18542151.53447  21208138.621    21208144.322
       239.000         200.000
  22183047.444   -19520108.40749 -15178752.72346  22183046.696    22183050.791
       233.000         185.000
 03  3 20  2 26  0.0000000  0  8G14G 9G 3G31G23G17G15G18
  20247739.830   -24059567.07749 -18012904.99948  20247739.212    20247742.955
       242.000         216.000
  23736129.239   -12723933.06049  -9899890.25745  23736128.960    23736134.767
       211.000         153.000
  22091893.124   -15315477.77449 -11912872.03547  22091892.791    22091898.266
       234.000         189.000
  22407112.577   -14550574.26349 -10994163.71546  22407112.149    22407117.466
       229.000         182.000
  23555286.928    -6736998.69649  -5216941.59046  23555285.665    23555292.022
       219.000         163.000
  23802875.253    14004280.46549  10923089.21545  23802874.753    23802882.476
       208.000         142.000
  21220034.230   -23774427.60049 -18493444.01547  21220033.397    21220039.534
       238.000         200.000
  22194082.479   -19462118.70749 -15133565.93646  22194081.817    22194085.960
       233.000         185.000
